[[{"header":{"parameterUnit":"m.s-1","parameterCategory":1,"la1":31.0,"la2":29.5877,"lo1":-88.7671,"lo2":-86.6584,"dy":0.0162,"dx":0.0185,"nx":115,"ny":88,"refTime":"2024-02-29T06:00:00:Z","depth":0,"parameterNumber":2,"parameterNumberName":"U-component_of_WINDS"},"data":[0.0,0.0,0.0,0.0,0.0,0.0,0.0,0.0,0.0,0.0,0.0,0.0,0.0,0.0,0.0,0.0,0.0,0.0,0.0,0.0,0.0,0.0,0.0,0.0,0.0,0.0,0.0,0.0,0.0,0.0,0.0,0.0,0.0,0.0,0.0,0.0,0.0,0.0,0.0,0.0,0.0,0.0,0.0,0.0,0.0,0.0,0.0,0.0,0.0,0.0,0.0,0.0,0.0,0.0,0.0,0.0,0.0,0.0,0.0,0.0,0.0,0.0,0.0,0.0,0.0,0.0,0.0,0.0,0.0,0.0,0.0,0.0,0.0,0.0,0.0,0.0,0.0,0.0,0.0,0.0,0.0,0.0,0.0,0.0,0.0,0.0,0.0,0.0,0.0,0.0,0.0,0.0,0.0,0.0,0.0,0.0,0.0,0.0,0.0,0.0,0.0,0.0,0.0,0.0,0.0,0.0,0.0,0.0,0.0,0.0,0.0,0.0,0.0,0.0,0.0,0.0,0.0,0.0,0.0,0.0,0.0,0.0,0.0,0.0,0.0,0.0,0.0,0.0,0.0,0.0,0.0,0.0,0.0,0.0,0.0,0.0,0.0,0.0,0.0,0.0,0.0,0.0,0.0,0.0,0.0,0.0,0.0,0.0,0.0,0.0,0.0,0.0,0.0,0.0,0.0,0.0,0.0,0.0,0.0,0.0,0.0,0.0,0.0,0.0,0.0,0.0,0.0,0.0,0.0,0.0,0.0,0.0,0.0,0.0,0.0,0.0,0.0,0.0,0.0,0.0,0.0,0.0,0.0,0.0,0.0,0.0,0.0,0.0,0.0,0.0,0.0,0.0,0.0,0.0,0.0,0.0,0.0,0.0,0.0,0.0,0.0,0.0,0.0,0.0,0.0,0.0,0.0,0.0,0.0,0.0,0.0,0.0,0.0,0.0,0.0,0.0,0.0,0.0,0.0,0.0,0.0,0.0,0.0,0.0,0.0,0.0,0.0,0.0,0.0,0.0,0.0,0.0,0.0,0.0,0.0,0.0,0.0,0.0,0.0,0.0,0.0,0.0,0.0,0.0,0.0,0.0,0.0,0.0,0.0,0.0,0.0,0.0,0.0,0.0,0.0,0.0,0.0,0.0,0.0,0.0,0.0,0.0,0.0,0.0,0.0,0.0,0.0,0.0,0.0,0.0,0.0,0.0,0.0,0.0,0.0,0.0,0.0,0.0,0.0,0.0,0.0,0.0,0.0,0.0,0.0,0.0,0.0,0.0,0.0,0.0,0.0,0.0,0.0,0.0,0.0,0.0,0.0,0.0,0.0,0.0,0.0,0.0,0.0,0.0,0.0,0.0,0.0,0.0,0.0,0.0,0.0,0.0,0.0,0.0,0.0,0.0,0.0,0.0,0.0,0.0,0.0,0.0,0.0,0.0,0.0,0.0,0.0,0.0,0.0,0.0,0.0,0.0,0.0,0.0,0.0,0.0,0.0,0.0,0.0,0.0,0.0,0.0,0.0,0.0,0.0,0.0,0.0,0.0,0.0,0.0,0.0,0.0,0.0,0.0,0.0,0.0,0.0,0.0,0.0,0.0,0.0,0.0,0.0,0.0,0.0,0.0,0.0,0.0,0.0,0.0,0.0,0.0,0.0,0.0,0.0,0.0,0.0,0.0,0.0,0.0,0.0,0.0,0.0,0.0,0.0,0.0,0.0,0.0,0.0,0.0,0.0,0.0,0.0,0.0,0.0,0.0,0.0,0.0,0.0,0.0,0.0,0.0,0.0,0.0,0.0,0.0,0.0,0.0,0.0,0.0,0.0,0.0,0.0,0.0,0.0,0.0,0.0,0.0,0.0,0.0,0.0,0.0,0.0,0.0,0.0,0.0,0.0,0.0,0.0,0.0,0.0,0.0,0.0,0.0,0.0,0.0,0.0,0.0,0.0,0.0,0.0,0.0,0.0,0.0,0.0,0.0,0.0,0.0,0.0,0.0,0.0,0.0,0.0,0.0,0.0,0.0,0.0,0.0,0.0,0.0,0.0,0.0,0.0,0.0,0.0,0.0,0.0,0.0,0.0,0.0,0.0,0.0,0.0,0.0,0.0,0.0,0.0,0.0,0.0,0.0,0.0,0.0,0.0,0.0,0.0,0.0,0.0,0.0,0.0,0.0,0.0,0.0,0.0,0.0,0.0,0.0,0.0,0.0,0.0,0.0,0.0,0.0,0.0,0.0,0.0,0.0,0.0,0.0,0.0,0.0,0.0,0.0,0.0,0.0,0.0,0.0,0.0,0.0,0.0,0.0,0.0,0.0,0.0,0.0,0.0,0.0,0.0,0.0,0.0,0.0,0.0,0.0,0.0,0.0,0.0,0.0,0.0,0.0,0.0,0.0,0.0,0.0,0.0,0.0,0.0,0.0,0.0,0.0,0.0,0.0,0.0,0.0,0.0,0.0,0.0,0.0,0.0,0.0,0.0,0.0,0.0,0.0,0.0,0.0,0.0,0.0,0.0,0.0,0.0,0.0,0.0,0.0,0.0,0.0,0.0,0.0,0.0,0.0,0.0,0.0,0.0,0.0,0.0,0.0,0.0,0.0,0.0,0.0,0.0,0.0,0.0,0.0,0.0,0.0,0.0,0.0,0.0,0.0,0.0,0.0,0.0,0.0,0.0,0.0,0.0,0.0,0.0,0.0,0.0,0.0,0.0,0.0,0.0,0.0,0.0,0.0,0.0,0.0,0.0,0.0,0.0,0.0,0.0,0.0,0.0,0.0,0.0,0.0,0.0,0.0,0.0,0.0,0.0,0.0,0.0,0.0,0.0,0.0,0.0,0.0,0.0,0.0,0.0,0.0,0.0,0.0,0.0,0.0,0.0,0.0,0.0,0.0,0.0,0.0,0.0,0.0,0.0,0.0,0.0,0.0,0.0,0.0,0.0,0.0,0.0,0.0,0.0,0.0,0.0,0.0,0.0,0.0,0.0,0.0,0.0,0.0,0.0,0.0,0.0,0.0,0.0,0.0,0.0,0.0,0.0,0.0,0.0,0.0,0.0,0.0,0.0,0.0,0.0,0.0,0.0,0.0,0.0,0.0,0.0,0.0,0.0,0.0,0.0,0.0,0.0,0.0,0.0,0.0,0.0,0.0,0.0,0.0,0.0,0.0,0.0,0.0,0.0,0.0,0.0,0.0,0.0,0.0,0.0,0.0,0.0,0.0,0.0,0.0,0.0,0.0,0.0,0.0,0.0,0.0,0.0,0.0,0.0,0.0,0.0,0.0,0.0,0.0,0.0,0.0,0.0,0.0,0.0,0.0,0.0,0.0,0.0,0.0,0.0,0.0,0.0,0.0,0.0,0.0,0.0,0.0,0.0,0.0,0.0,0.0,0.0,0.0,0.0,0.0,0.0,0.0,0.0,0.0,0.0,0.0,0.0,0.0,0.0,0.0,0.0,0.0,0.0,0.0,0.0,0.0,0.0,0.0,0.0,0.0,0.0,0.0,0.0,0.0,0.0,0.0,0.0,0.0,0.0,0.0,0.0,0.0,0.0,0.0,0.0,0.0,0.0,0.0,0.0,0.0,0.0,0.0,0.0,0.0,0.0,0.0,0.0,0.0,0.0,0.0,0.0,0.0,0.0,0.0,0.0,0.0,0.0,0.0,0.0,0.0,0.0,0.0,0.0,0.0,0.0,0.0,0.0,0.0,0.0,0.0,0.0,0.0,0.0,0.0,0.0,0.0,0.0,0.0,0.0,0.0,0.0,0.0,0.0,0.0,0.0,0.0,0.0,0.0,0.0,0.0,0.0,0.0,0.0,0.0,0.0,0.0,0.0,0.0,0.0,0.0,0.0,0.0,0.0,0.0,0.0,0.0,0.0,0.0,0.0,0.0,0.0,0.0,0.0,0.0,0.0,0.0,0.0,0.0,0.0,0.0,0.0,0.0,0.0,0.0,0.0,0.0,0.0,0.0,0.0,0.0,0.0,0.0,0.0,0.0,0.0,0.0,0.0,0.0,0.0,0.0,0.0,0.0,0.0,0.0,0.0,0.0,0.0,0.0,0.0,0.0,0.0,0.0,0.0,0.0,0.0,0.0,0.0,0.0,0.0,0.0,0.0,0.0,0.0,0.0,0.0,0.0,0.0,0.0,0.0,0.0,0.0,0.0,0.0,0.0,0.0,0.0,0.0,0.0,0.0,0.0,0.0,0.0,0.0,0.0,0.0,0.0,0.0,0.0,0.0,0.0,0.0,0.0,0.0,0.0,0.0,0.0,0.0,0.0,-2.0474,0.0,0.0,0.0,0.0,0.0,0.0,0.0,0.0,0.0,0.0,0.0,0.0,0.0,0.0,0.0,0.0,0.0,0.0,0.0,0.0,0.0,0.0,0.0,0.0,0.0,0.0,0.0,0.0,0.0,0.0,0.0,0.0,0.0,0.0,0.0,0.0,0.0,0.0,0.0,0.0,0.0,0.0,0.0,0.0,0.0,0.0,0.0,0.0,0.0,0.0,0.0,0.0,0.0,0.0,0.0,0.0,0.0,0.0,0.0,0.0,0.0,0.0,0.0,0.0,0.0,0.0,0.0,0.0,0.0,0.0,0.0,0.0,0.0,0.0,0.0,0.0,0.0,0.0,0.0,0.0,0.0,0.0,0.0,0.0,0.0,0.0,0.0,0.0,0.0,0.0,0.0,0.0,0.0,0.0,0.0,0.0,0.0,0.0,0.0,0.0,0.0,0.0,0.0,0.0,0.0,0.0,0.0,0.0,0.0,0.0,-2.121,-2.1042,-2.0882,-2.0625,-2.0258,0.0,0.0,0.0,0.0,0.0,0.0,0.0,0.0,0.0,0.0,0.0,0.0,0.0,0.0,0.0,0.0,0.0,0.0,0.0,0.0,0.0,0.0,0.0,0.0,0.0,0.0,0.0,0.0,0.0,0.0,0.0,0.0,0.0,0.0,0.0,0.0,0.0,0.0,0.0,0.0,0.0,0.0,0.0,0.0,0.0,0.0,0.0,0.0,0.0,0.0,0.0,0.0,0.0,0.0,0.0,0.0,0.0,0.0,0.0,0.0,0.0,0.0,0.0,0.0,0.0,0.0,0.0,0.0,0.0,0.0,0.0,0.0,0.0,0.0,0.0,0.0,0.0,0.0,0.0,0.0,0.0,0.0,0.0,0.0,0.0,0.0,0.0,0.0,0.0,0.0,0.0,0.0,0.0,0.0,0.0,0.0,0.0,0.0,0.0,0.0,0.0,0.0,0.0,0.0,0.0,0.0,0.0,0.0,0.0,0.0,0.0,0.0,-2.0722,-2.0496,-2.0183,0.0,0.0,0.0,0.0,0.0,0.0,0.0,0.0,0.0,0.0,0.0,0.0,0.0,0.0,0.0,0.0,0.0,0.0,0.0,0.0,0.0,0.0,0.0,0.0,0.0,0.0,0.0,0.0,0.0,0.0,0.0,0.0,0.0,0.0,0.0,0.0,0.0,0.0,0.0,0.0,0.0,0.0,0.0,0.0,0.0,0.0,0.0,0.0,0.0,0.0,0.0,0.0,0.0,0.0,0.0,0.0,0.0,0.0,0.0,0.0,0.0,0.0,0.0,0.0,0.0,0.0,0.0,0.0,0.0,0.0,0.0,0.0,0.0,0.0,0.0,0.0,0.0,0.0,0.0,0.0,0.0,0.0,0.0,0.0,0.0,0.0,0.0,0.0,0.0,0.0,0.0,0.0,0.0,0.0,0.0,0.0,0.0,0.0,0.0,0.0,0.0,0.0,0.0,0.0,0.0,0.0,0.0,0.0,0.0,0.0,-2.0892,-2.0892,-2.0593,0.0,-2.0389,0.0,0.0,0.0,0.0,0.0,0.0,0.0,0.0,0.0,0.0,0.0,0.0,0.0,0.0,0.0,0.0,0.0,0.0,0.0,0.0,0.0,0.0,0.0,0.0,0.0,0.0,0.0,0.0,0.0,0.0,0.0,0.0,0.0,0.0,0.0,0.0,0.0,0.0,0.0,0.0,0.0,0.0,0.0,0.0,0.0,0.0,0.0,0.0,0.0,0.0,0.0,0.0,0.0,0.0,0.0,0.0,0.0,0.0,0.0,0.0,0.0,0.0,0.0,0.0,0.0,0.0,0.0,0.0,0.0,0.0,0.0,0.0,0.0,0.0,0.0,0.0,0.0,0.0,0.0,0.0,0.0,0.0,0.0,0.0,0.0,0.0,0.0,0.0,0.0,0.0,0.0,0.0,0.0,0.0,0.0,0.0,0.0,0.0,0.0,0.0,0.0,0.0,0.0,0.0,0.0,0.0,0.0,0.0,0.0,0.0,-2.1215,-2.0995,-2.0886,-2.082,0.0,0.0,0.0,0.0,0.0,0.0,0.0,0.0,0.0,0.0,0.0,0.0,0.0,0.0,0.0,0.0,0.0,0.0,0.0,0.0,0.0,0.0,0.0,0.0,0.0,0.0,0.0,0.0,0.0,0.0,0.0,0.0,0.0,0.0,0.0,0.0,0.0,0.0,0.0,0.0,0.0,0.0,0.0,0.0,0.0,0.0,0.0,0.0,0.0,0.0,0.0,0.0,0.0,0.0,0.0,0.0,0.0,0.0,0.0,0.0,0.0,0.0,0.0,0.0,0.0,0.0,0.0,0.0,0.0,0.0,0.0,0.0,0.0,0.0,0.0,0.0,0.0,0.0,0.0,0.0,0.0,0.0,0.0,0.0,0.0,0.0,0.0,0.0,0.0,0.0,0.0,0.0,0.0,0.0,0.0,0.0,0.0,0.0,0.0,0.0,0.0,0.0,0.0,0.0,0.0,0.0,0.0,0.0,0.0,0.0,-2.1496,-2.1565,-2.1239,-2.1107,-2.104,-2.0973,0.0,0.0,0.0,0.0,0.0,0.0,0.0,0.0,0.0,0.0,0.0,0.0,0.0,0.0,0.0,0.0,0.0,0.0,0.0,0.0,0.0,0.0,0.0,0.0,0.0,0.0,0.0,0.0,0.0,0.0,0.0,0.0,0.0,0.0,0.0,0.0,0.0,0.0,0.0,0.0,0.0,0.0,0.0,0.0,0.0,0.0,0.0,0.0,0.0,0.0,0.0,0.0,0.0,0.0,0.0,0.0,0.0,0.0,0.0,0.0,0.0,0.0,0.0,0.0,0.0,0.0,0.0,0.0,0.0,0.0,0.0,0.0,0.0,0.0,0.0,0.0,0.0,0.0,0.0,0.0,0.0,0.0,0.0,0.0,0.0,0.0,0.0,0.0,0.0,0.0,0.0,0.0,0.0,0.0,0.0,0.0,0.0,0.0,0.0,0.0,0.0,0.0,0.0,0.0,0.0,0.0,0.0,0.0,-2.1574,-2.1913,-2.1919,-2.1594,-2.1157,-2.0827,0.0,0.0,0.0,0.0,0.0,0.0,0.0,0.0,0.0,0.0,0.0,0.0,0.0,0.0,0.0,0.0,0.0,0.0,0.0,0.0,0.0,0.0,0.0,0.0,0.0,0.0,0.0,0.0,0.0,0.0,0.0,0.0,0.0,0.0,0.0,0.0,0.0,0.0,0.0,0.0,0.0,0.0,0.0,0.0,0.0,0.0,0.0,0.0,0.0,0.0,0.0,0.0,0.0,0.0,0.0,0.0,0.0,0.0,0.0,0.0,0.0,0.0,0.0,0.0,0.0,0.0,0.0,0.0,0.0,0.0,0.0,0.0,0.0,0.0,0.0,0.0,0.0,0.0,0.0,0.0,0.0,0.0,0.0,0.0,0.0,0.0,0.0,0.0,0.0,0.0,0.0,0.0,0.0,0.0,0.0,0.0,0.0,0.0,0.0,0.0,0.0,0.0,0.0,0.0,0.0,0.0,0.0,0.0,0.0,-2.1958,-2.2116,-2.2336,-2.2455,-2.1911,-2.145,0.0,0.0,0.0,0.0,0.0,0.0,0.0,0.0,0.0,0.0,0.0,0.0,0.0,0.0,0.0,0.0,0.0,0.0,0.0,0.0,0.0,0.0,0.0,0.0,0.0,0.0,0.0,0.0,0.0,0.0,0.0,0.0,0.0,0.0,0.0,0.0,0.0,0.0,0.0,0.0,0.0,0.0,0.0,0.0,0.0,0.0,0.0,0.0,0.0,0.0,0.0,0.0,0.0,0.0,0.0,0.0,0.0,0.0,0.0,0.0,0.0,0.0,0.0,0.0,0.0,0.0,0.0,0.0,0.0,0.0,0.0,0.0,0.0,0.0,0.0,0.0,0.0,0.0,0.0,0.0,0.0,0.0,0.0,0.0,0.0,0.0,0.0,0.0,0.0,0.0,0.0,0.0,0.0,0.0,0.0,0.0,0.0,0.0,0.0,0.0,0.0,0.0,0.0,0.0,0.0,0.0,0.0,0.0,0.0,-2.2501,0.0,-2.2659,-2.2846,-2.2338,-2.174,0.0,0.0,0.0,0.0,0.0,0.0,0.0,0.0,0.0,0.0,0.0,0.0,0.0,0.0,0.0,0.0,0.0,0.0,0.0,0.0,0.0,0.0,0.0,0.0,0.0,0.0,0.0,0.0,0.0,0.0,0.0,0.0,0.0,0.0,0.0,0.0,0.0,0.0,0.0,0.0,0.0,0.0,0.0,0.0,0.0,0.0,0.0,0.0,0.0,0.0,0.0,0.0,0.0,0.0,0.0,0.0,0.0,0.0,0.0,0.0,0.0,0.0,0.0,0.0,0.0,0.0,0.0,0.0,0.0,0.0,0.0,0.0,0.0,0.0,0.0,0.0,0.0,0.0,0.0,0.0,0.0,0.0,0.0,0.0,0.0,0.0,0.0,0.0,0.0,0.0,0.0,0.0,0.0,0.0,0.0,0.0,0.0,0.0,0.0,0.0,0.0,0.0,0.0,0.0,0.0,0.0,0.0,0.0,-2.2956,-2.3254,-2.3091,-2.2868,-2.2681,-2.225,-2.1596,0.0,0.0,0.0,0.0,0.0,0.0,0.0,0.0,0.0,0.0,0.0,0.0,0.0,0.0,0.0,0.0,0.0,0.0,0.0,0.0,0.0,0.0,0.0,0.0,0.0,0.0,0.0,0.0,0.0,0.0,0.0,0.0,0.0,0.0,0.0,0.0,0.0,0.0,0.0,0.0,0.0,0.0,0.0,0.0,0.0,0.0,0.0,0.0,0.0,0.0,0.0,0.0,0.0,0.0,0.0,0.0,0.0,0.0,0.0,0.0,0.0,0.0,0.0,0.0,0.0,0.0,0.0,0.0,0.0,0.0,0.0,0.0,0.0,0.0,0.0,0.0,0.0,0.0,0.0,0.0,0.0,0.0,0.0,0.0,0.0,0.0,0.0,0.0,0.0,0.0,0.0,0.0,0.0,0.0,0.0,0.0,0.0,0.0,0.0,0.0,0.0,0.0,0.0,0.0,0.0,0.0,0.0,0.0,0.0,-2.3113,-2.3038,-2.2889,-2.2703,-2.2403,-2.1919,0.0,0.0,0.0,0.0,0.0,0.0,0.0,0.0,0.0,0.0,0.0,0.0,0.0,0.0,0.0,0.0,0.0,0.0,0.0,0.0,0.0,0.0,0.0,0.0,0.0,0.0,0.0,0.0,0.0,0.0,0.0,0.0,0.0,0.0,0.0,0.0,0.0,0.0,0.0,0.0,0.0,0.0,0.0,0.0,0.0,0.0,0.0,0.0,0.0,0.0,0.0,0.0,0.0,0.0,0.0,0.0,0.0,0.0,0.0,0.0,0.0,0.0,0.0,0.0,0.0,0.0,0.0,0.0,0.0,0.0,0.0,0.0,0.0,0.0,0.0,0.0,0.0,0.0,0.0,0.0,0.0,0.0,0.0,0.0,0.0,0.0,0.0,0.0,0.0,0.0,0.0,0.0,0.0,0.0,0.0,0.0,0.0,0.0,0.0,0.0,0.0,0.0,0.0,0.0,0.0,0.0,0.0,0.0,0.0,-2.3655,-2.3596,-2.3433,-2.3105,-2.2841,-2.2294,-2.1569,0.0,0.0,0.0,0.0,0.0,0.0,0.0,0.0,0.0,0.0,0.0,0.0,0.0,0.0,0.0,0.0,0.0,0.0,0.0,0.0,0.0,0.0,0.0,0.0,0.0,0.0,0.0,0.0,0.0,0.0,0.0,0.0,0.0,0.0,0.0,0.0,0.0,0.0,0.0,0.0,0.0,0.0,0.0,0.0,0.0,0.0,0.0,0.0,0.0,0.0,0.0,0.0,0.0,0.0,0.0,0.0,0.0,0.0,0.0,0.0,0.0,0.0,0.0,0.0,0.0,0.0,0.0,0.0,0.0,0.0,0.0,0.0,0.0,0.0,0.0,0.0,0.0,0.0,0.0,0.0,0.0,0.0,0.0,0.0,0.0,0.0,0.0,0.0,0.0,0.0,0.0,0.0,0.0,0.0,0.0,0.0,0.0,0.0,0.0,0.0,0.0,0.0,0.0,0.0,0.0,0.0,0.0,0.0,-2.4798,-2.4675,-2.4357,-2.3809,-2.3384,-2.2724,0.0,0.0,0.0,0.0,0.0,0.0,0.0,0.0,0.0,0.0,0.0,0.0,0.0,0.0,0.0,0.0,0.0,0.0,0.0,0.0,0.0,0.0,0.0,0.0,0.0,0.0,0.0,0.0,0.0,0.0,0.0,0.0,0.0,0.0,0.0,0.0,0.0,0.0,0.0,0.0,0.0,0.0,0.0,0.0,0.0,0.0,0.0,0.0,0.0,0.0,0.0,0.0,0.0,0.0,0.0,0.0,0.0,0.0,0.0,0.0,0.0,0.0,0.0,0.0,0.0,0.0,0.0,0.0,0.0,0.0,0.0,0.0,0.0,0.0,0.0,0.0,0.0,0.0,0.0,0.0,0.0,0.0,0.0,0.0,0.0,0.0,0.0,0.0,0.0,0.0,0.0,0.0,0.0,0.0,0.0,0.0,0.0,0.0,0.0,0.0,0.0,0.0,0.0,0.0,0.0,0.0,0.0,0.0,0.0,-2.5313,-2.5808,-2.5445,-2.4156,-2.3987,-2.3404,0.0,0.0,0.0,0.0,0.0,0.0,0.0,0.0,0.0,0.0,0.0,0.0,0.0,0.0,0.0,0.0,0.0,0.0,0.0,0.0,0.0,0.0,0.0,0.0,0.0,0.0,0.0,0.0,0.0,0.0,0.0,0.0,0.0,0.0,0.0,0.0,0.0,0.0,0.0,0.0,0.0,0.0,0.0,0.0,0.0,0.0,0.0,0.0,0.0,0.0,0.0,0.0,0.0,0.0,0.0,0.0,0.0,0.0,0.0,0.0,0.0,0.0,0.0,0.0,0.0,0.0,0.0,0.0,0.0,0.0,0.0,0.0,0.0,0.0,0.0,0.0,0.0,0.0,0.0,0.0,0.0,0.0,0.0,0.0,0.0,0.0,0.0,0.0,0.0,0.0,0.0,0.0,0.0,0.0,0.0,0.0,0.0,0.0,0.0,0.0,0.0,0.0,0.0,0.0,0.0,0.0,0.0,0.0,-2.5593,-2.5958,-2.6586,-2.6361,-2.5244,-2.4745,-2.4054,0.0,0.0,0.0,0.0,0.0,0.0,0.0,0.0,0.0,0.0,0.0,0.0,0.0,0.0,0.0,0.0,0.0,0.0,0.0,0.0,0.0,0.0,0.0,0.0,0.0,0.0,0.0,0.0,0.0,0.0,0.0,0.0,0.0,0.0,0.0,0.0,0.0,0.0,0.0,0.0,0.0,0.0,0.0,0.0,0.0,0.0,0.0,0.0,0.0,0.0,0.0,0.0,0.0,0.0,0.0,0.0,0.0,0.0,0.0,0.0,0.0,0.0,0.0,0.0,0.0,0.0,0.0,0.0,0.0,0.0,0.0,0.0,0.0,0.0,0.0,0.0,0.0,0.0,0.0,0.0,0.0,0.0,0.0,0.0,0.0,0.0,0.0,0.0,0.0,0.0,0.0,0.0,0.0,0.0,0.0,0.0,0.0,0.0,0.0,0.0,0.0,0.0,0.0,0.0,0.0,0.0,0.0,0.0,-2.6475,-2.6724,-2.718,-2.7149,-2.6667,-2.5578,-2.466,0.0,0.0,0.0,0.0,0.0,0.0,0.0,0.0,0.0,0.0,0.0,0.0,0.0,0.0,0.0,0.0,0.0,0.0,0.0,0.0,0.0,0.0,0.0,0.0,0.0,0.0,0.0,0.0,0.0,0.0,0.0,0.0,0.0,0.0,0.0,0.0,0.0,0.0,0.0,0.0,0.0,0.0,0.0,0.0,0.0,0.0,0.0,0.0,0.0,0.0,0.0,0.0,0.0,0.0,0.0,0.0,0.0,0.0,0.0,0.0,0.0,0.0,0.0,0.0,0.0,0.0,0.0,0.0,0.0,0.0,0.0,0.0,0.0,0.0,0.0,0.0,0.0,0.0,0.0,0.0,0.0,0.0,0.0,0.0,0.0,0.0,0.0,0.0,0.0,0.0,0.0,0.0,0.0,0.0,0.0,0.0,0.0,0.0,0.0,0.0,0.0,0.0,0.0,0.0,0.0,0.0,0.0,0.0,-2.726,-2.7693,-2.8,-2.7835,-2.7164,-2.6214,-2.5134,0.0,0.0,0.0,0.0,0.0,0.0,0.0,0.0,0.0,0.0,0.0,0.0,0.0,0.0,0.0,0.0,0.0,0.0,0.0,0.0,0.0,0.0,0.0,0.0,0.0,0.0,0.0,0.0,0.0,0.0,0.0,0.0,0.0,0.0,0.0,0.0,0.0,0.0,0.0,0.0,0.0,0.0,0.0,0.0,0.0,0.0,0.0,0.0,-1.9078,0.0,0.0,0.0,0.0,0.0,0.0,0.0,0.0,0.0,0.0,0.0,0.0,0.0,0.0,0.0,0.0,0.0,0.0,0.0,0.0,0.0,0.0,0.0,0.0,0.0,0.0,0.0,0.0,0.0,0.0,0.0,0.0,0.0,0.0,0.0,0.0,0.0,0.0,0.0,0.0,0.0,0.0,0.0,0.0,0.0,0.0,0.0,0.0,0.0,0.0,0.0,0.0,0.0,0.0,0.0,0.0,0.0,0.0,0.0,-2.7853,-2.8027,-2.8275,-2.8066,-2.7336,-2.6625,-2.5564,0.0,0.0,0.0,0.0,0.0,0.0,0.0,0.0,0.0,0.0,0.0,0.0,0.0,0.0,0.0,0.0,0.0,0.0,0.0,0.0,0.0,0.0,0.0,0.0,0.0,0.0,0.0,0.0,0.0,0.0,0.0,0.0,0.0,0.0,0.0,0.0,0.0,0.0,0.0,0.0,0.0,0.0,0.0,0.0,0.0,0.0,0.0,0.0,0.0,0.0,0.0,0.0,0.0,0.0,0.0,0.0,0.0,0.0,0.0,0.0,0.0,0.0,0.0,0.0,0.0,0.0,0.0,0.0,0.0,0.0,0.0,0.0,0.0,0.0,0.0,0.0,0.0,0.0,0.0,0.0,0.0,0.0,0.0,0.0,0.0,0.0,0.0,0.0,0.0,0.0,0.0,0.0,0.0,0.0,0.0,0.0,0.0,0.0,0.0,0.0,0.0,0.0,0.0,0.0,0.0,0.0,0.0,-2.8156,-2.8495,-2.8408,-2.8481,-2.8207,-2.7478,-2.6838,-2.5854,-2.4549,0.0,0.0,0.0,0.0,0.0,0.0,0.0,0.0,0.0,0.0,0.0,0.0,0.0,0.0,0.0,0.0,0.0,0.0,0.0,0.0,0.0,0.0,0.0,0.0,0.0,0.0,0.0,0.0,0.0,0.0,0.0,0.0,0.0,0.0,0.0,0.0,0.0,0.0,-1.7694,-1.8825,0.0,0.0,0.0,0.0,0.0,0.0,0.0,0.0,-2.0526,0.0,0.0,0.0,0.0,0.0,0.0,0.0,0.0,0.0,0.0,0.0,0.0,0.0,0.0,0.0,0.0,0.0,0.0,0.0,0.0,0.0,0.0,0.0,0.0,0.0,0.0,0.0,0.0,0.0,0.0,0.0,0.0,0.0,0.0,0.0,0.0,0.0,0.0,0.0,0.0,0.0,0.0,0.0,0.0,0.0,0.0,0.0,0.0,0.0,0.0,0.0,0.0,0.0,0.0,0.0,0.0,-2.8433,-2.9169,-2.9749,-3.0145,-2.9624,-2.8978,-2.8233,-2.6802,-2.5544,-2.4549,0.0,0.0,0.0,0.0,0.0,0.0,0.0,0.0,0.0,0.0,0.0,0.0,0.0,0.0,0.0,0.0,0.0,0.0,0.0,0.0,0.0,0.0,0.0,0.0,0.0,0.0,0.0,0.0,0.0,0.0,0.0,0.0,0.0,0.0,0.0,0.0,0.0,0.0,0.0,-1.9617,-2.0099,0.0,0.0,0.0,0.0,0.0,0.0,0.0,0.0,-2.0588,0.0,0.0,0.0,0.0,0.0,0.0,0.0,0.0,0.0,0.0,0.0,0.0,0.0,0.0,0.0,0.0,0.0,0.0,0.0,0.0,0.0,0.0,0.0,0.0,0.0,0.0,0.0,0.0,0.0,0.0,0.0,0.0,0.0,0.0,0.0,0.0,0.0,0.0,0.0,0.0,0.0,0.0,0.0,0.0,0.0,0.0,0.0,0.0,0.0,0.0,0.0,0.0,0.0,0.0,0.0,-2.9004,-2.9678,-3.0141,-3.0351,-2.9669,-2.8932,-2.8186,-2.6949,-2.5813,0.0,0.0,0.0,0.0,0.0,0.0,0.0,0.0,0.0,0.0,0.0,0.0,0.0,0.0,0.0,0.0,0.0,0.0,0.0,0.0,0.0,0.0,0.0,0.0,0.0,0.0,0.0,0.0,0.0,0.0,0.0,0.0,0.0,0.0,0.0,0.0,0.0,0.0,0.0,0.0,-2.0296,-2.0796,-2.0743,0.0,0.0,0.0,0.0,0.0,0.0,-2.1094,-2.1118,0.0,0.0,0.0,0.0,0.0,0.0,0.0,0.0,0.0,0.0,0.0,0.0,0.0,0.0,0.0,0.0,0.0,0.0,0.0,0.0,0.0,0.0,0.0,0.0,0.0,0.0,0.0,0.0,0.0,0.0,0.0,0.0,0.0,0.0,0.0,0.0,0.0,0.0,0.0,0.0,0.0,0.0,0.0,0.0,0.0,0.0,0.0,0.0,0.0,0.0,0.0,0.0,0.0,0.0,0.0,-2.9503,-3.0174,-3.0496,-3.0422,-2.9734,-2.8948,-2.8092,-2.7075,-2.6044,0.0,0.0,0.0,0.0,0.0,0.0,0.0,0.0,0.0,0.0,0.0,0.0,0.0,0.0,0.0,0.0,0.0,0.0,0.0,0.0,0.0,0.0,0.0,0.0,0.0,0.0,0.0,0.0,0.0,0.0,0.0,0.0,0.0,0.0,0.0,0.0,0.0,0.0,0.0,0.0,0.0,-2.1607,-2.1016,-2.1446,0.0,0.0,0.0,0.0,-2.147,-2.171,0.0,0.0,0.0,0.0,0.0,0.0,0.0,0.0,0.0,0.0,0.0,0.0,0.0,0.0,0.0,0.0,0.0,0.0,0.0,0.0,0.0,0.0,0.0,0.0,0.0,0.0,0.0,0.0,0.0,0.0,0.0,0.0,0.0,0.0,0.0,0.0,0.0,0.0,0.0,0.0,0.0,0.0,0.0,0.0,0.0,0.0,0.0,0.0,0.0,0.0,0.0,0.0,0.0,0.0,0.0,0.0,-3.004,-3.1025,-3.1461,-3.1228,-3.0556,-2.9606,-2.8395,-2.701,-2.5722,0.0,0.0,0.0,0.0,0.0,0.0,0.0,0.0,0.0,0.0,0.0,0.0,0.0,0.0,0.0,0.0,0.0,0.0,0.0,0.0,0.0,0.0,0.0,0.0,0.0,0.0,0.0,0.0,0.0,0.0,0.0,0.0,0.0,0.0,0.0,0.0,0.0,0.0,0.0,0.0,0.0,-2.2363,-2.2733,-2.3069,-2.3085,0.0,0.0,-2.2774,-2.3151,-2.3253,0.0,0.0,0.0,0.0,0.0,0.0,0.0,0.0,0.0,0.0,0.0,0.0,0.0,0.0,0.0,0.0,0.0,0.0,0.0,0.0,0.0,0.0,0.0,0.0,0.0,0.0,0.0,0.0,0.0,0.0,0.0,0.0,0.0,0.0,0.0,0.0,0.0,0.0,0.0,0.0,0.0,0.0,0.0,0.0,0.0,0.0,0.0,0.0,0.0,0.0,0.0,0.0,0.0,0.0,0.0,-2.8274,-2.9758,-3.1175,-3.1743,-3.1335,-3.0905,-3.0304,-2.9462,-2.7717,-2.6278,0.0,0.0,0.0,0.0,0.0,0.0,0.0,0.0,0.0,0.0,0.0,0.0,0.0,0.0,0.0,0.0,0.0,0.0,0.0,0.0,0.0,0.0,0.0,0.0,0.0,0.0,0.0,0.0,0.0,0.0,0.0,0.0,0.0,0.0,0.0,0.0,0.0,0.0,0.0,0.0,0.0,0.0,-2.2655,-2.3196,0.0,0.0,0.0,-2.3401,-2.3417,0.0,0.0,0.0,0.0,0.0,0.0,0.0,0.0,0.0,0.0,0.0,0.0,0.0,0.0,0.0,0.0,0.0,0.0,0.0,0.0,0.0,0.0,0.0,0.0,0.0,0.0,0.0,0.0,0.0,0.0,0.0,0.0,0.0,0.0,0.0,0.0,0.0,0.0,0.0,0.0,0.0,0.0,0.0,0.0,0.0,0.0,0.0,0.0,0.0,0.0,0.0,0.0,0.0,0.0,0.0,0.0,0.0,-2.9828,-3.1511,-3.2103,-3.1541,-3.1367,-3.0812,-2.976,-2.8121,0.0,0.0,0.0,0.0,0.0,0.0,0.0,0.0,0.0,0.0,0.0,0.0,0.0,0.0,0.0,0.0,0.0,0.0,0.0,0.0,0.0,0.0,0.0,0.0,0.0,0.0,0.0,-1.736,0.0,0.0,0.0,0.0,0.0,0.0,0.0,0.0,0.0,0.0,0.0,0.0,0.0,0.0,-2.3475,-2.284,-2.3633,-2.4053,0.0,0.0,-2.4235,-2.3835,-2.3827,-2.3831,0.0,0.0,0.0,0.0,0.0,0.0,0.0,0.0,0.0,0.0,0.0,0.0,0.0,0.0,0.0,0.0,0.0,0.0,0.0,0.0,0.0,0.0,0.0,0.0,0.0,0.0,0.0,0.0,0.0,0.0,0.0,0.0,0.0,0.0,0.0,0.0,0.0,0.0,0.0,0.0,0.0,0.0,0.0,0.0,0.0,0.0,0.0,0.0,0.0,0.0,0.0,0.0,0.0,0.0,0.0,-3.0885,-3.243,-3.2839,-3.2183,-3.2112,-3.0968,-2.8603,-2.7738,-2.6669,0.0,0.0,0.0,0.0,0.0,0.0,0.0,0.0,0.0,0.0,0.0,0.0,0.0,0.0,0.0,0.0,0.0,0.0,0.0,0.0,0.0,0.0,0.0,0.0,0.0,0.0,0.0,0.0,0.0,0.0,0.0,0.0,0.0,0.0,0.0,0.0,0.0,0.0,0.0,0.0,0.0,-2.4194,-2.4238,-2.517,-2.5693,0.0,0.0,-2.5582,-2.4798,-2.5326,-2.5161,-2.3297,0.0,0.0,0.0,0.0,0.0,0.0,0.0,0.0,0.0,0.0,0.0,0.0,0.0,0.0,0.0,0.0,0.0,0.0,0.0,0.0,0.0,0.0,0.0,0.0,0.0,0.0,0.0,0.0,0.0,0.0,0.0,0.0,0.0,0.0,0.0,0.0,0.0,0.0,0.0,0.0,0.0,0.0,0.0,0.0,0.0,0.0,0.0,0.0,0.0,0.0,0.0,0.0,0.0,-2.9287,-3.0511,-3.2335,-3.2977,-3.2435,-3.2557,-3.1856,-3.0239,-2.8943,-2.7653,0.0,0.0,0.0,0.0,0.0,0.0,0.0,0.0,0.0,0.0,0.0,0.0,0.0,0.0,0.0,0.0,0.0,0.0,0.0,0.0,0.0,0.0,0.0,0.0,0.0,0.0,0.0,0.0,-1.8434,-1.8653,-1.8815,0.0,0.0,0.0,0.0,0.0,0.0,0.0,0.0,0.0,0.0,-2.443,-2.4726,-2.5443,0.0,0.0,-2.5745,-2.5911,-2.5598,-2.524,-2.493,-2.472,-2.3943,0.0,0.0,0.0,0.0,0.0,0.0,0.0,0.0,0.0,0.0,0.0,0.0,0.0,0.0,0.0,0.0,0.0,0.0,0.0,0.0,0.0,0.0,0.0,0.0,0.0,0.0,0.0,0.0,0.0,0.0,0.0,0.0,0.0,0.0,0.0,0.0,0.0,0.0,0.0,0.0,0.0,0.0,0.0,0.0,0.0,0.0,0.0,0.0,0.0,0.0,0.0,0.0,-2.9499,-3.0676,-3.2406,-3.3092,-3.2755,-3.2929,-3.2272,-3.0826,-2.9477,-2.8137,0.0,0.0,0.0,0.0,0.0,0.0,0.0,0.0,0.0,0.0,0.0,0.0,0.0,0.0,0.0,0.0,0.0,0.0,0.0,0.0,0.0,0.0,0.0,0.0,0.0,0.0,0.0,0.0,-1.8727,-1.8999,-1.9274,0.0,0.0,0.0,0.0,0.0,0.0,0.0,0.0,0.0,0.0,-2.4848,-2.5229,-2.5788,-2.6094,-2.5784,-2.5968,-2.6149,-2.6039,-2.542,-2.5176,-2.5643,0.0,0.0,0.0,0.0,0.0,0.0,0.0,0.0,0.0,0.0,0.0,0.0,0.0,0.0,0.0,0.0,0.0,0.0,0.0,0.0,0.0,0.0,0.0,0.0,0.0,0.0,0.0,0.0,0.0,0.0,-2.6117,0.0,0.0,0.0,0.0,0.0,0.0,0.0,0.0,0.0,0.0,0.0,0.0,0.0,0.0,0.0,0.0,0.0,0.0,0.0,0.0,0.0,0.0,-3.0181,-3.1735,-3.2765,-3.3284,-3.3284,-3.3284,-3.2111,-2.9714,-2.9083,-2.7898,-2.6014,0.0,0.0,0.0,0.0,0.0,0.0,0.0,0.0,0.0,0.0,0.0,0.0,0.0,0.0,0.0,0.0,0.0,0.0,0.0,0.0,0.0,0.0,0.0,0.0,0.0,0.0,-1.8707,-1.9054,-1.9292,0.0,0.0,0.0,0.0,0.0,0.0,0.0,0.0,0.0,0.0,-2.4678,-2.5509,-2.5947,-2.6316,-2.6554,-2.6554,-2.6554,-2.648,-2.6094,-2.6215,-2.6199,0.0,0.0,0.0,0.0,0.0,0.0,0.0,0.0,0.0,0.0,0.0,0.0,0.0,0.0,0.0,0.0,0.0,0.0,0.0,0.0,0.0,0.0,0.0,0.0,0.0,0.0,0.0,-2.7978,-2.8411,0.0,0.0,0.0,0.0,0.0,0.0,0.0,0.0,0.0,0.0,0.0,-2.9687,-2.9934,0.0,0.0,0.0,0.0,0.0,0.0,0.0,0.0,0.0,0.0,0.0,0.0,-3.0205,-3.1735,-3.2789,-3.3452,-3.3765,-3.3312,-3.2462,-3.1249,-3.0252,-2.8623,-2.6237,0.0,0.0,0.0,0.0,0.0,0.0,0.0,0.0,0.0,0.0,0.0,0.0,0.0,0.0,0.0,0.0,0.0,0.0,0.0,0.0,0.0,0.0,0.0,0.0,0.0,-1.9355,0.0,0.0,0.0,0.0,0.0,0.0,0.0,0.0,0.0,0.0,0.0,-2.3341,-2.4692,-2.5261,-2.5753,-2.6316,-2.6499,-2.6591,0.0,0.0,0.0,0.0,0.0,0.0,0.0,0.0,0.0,0.0,0.0,0.0,0.0,0.0,-2.6604,-2.5743,-2.5251,-2.4985,-2.4985,0.0,0.0,0.0,0.0,0.0,0.0,0.0,0.0,0.0,0.0,0.0,0.0,0.0,0.0,0.0,0.0,-3.0499,0.0,0.0,0.0,0.0,0.0,0.0,0.0,0.0,-3.1017,-3.1352,-3.141,-3.1608,-3.14,0.0,-3.036,-2.9137,0.0,0.0,0.0,0.0,0.0,0.0,0.0,0.0,-3.0487,-3.1994,-3.2884,-3.3525,-3.3934,-3.3384,-3.2626,-3.1713,-3.0053,-2.823,-2.6216,-2.5147,-2.3929,0.0,0.0,0.0,0.0,0.0,0.0,0.0,0.0,0.0,0.0,0.0,0.0,0.0,0.0,0.0,0.0,0.0,0.0,0.0,0.0,0.0,0.0,0.0,-2.0081,0.0,0.0,0.0,0.0,0.0,0.0,0.0,0.0,0.0,-2.28,-2.3481,-2.4267,-2.535,-2.5771,-2.6117,-2.6554,0.0,0.0,0.0,0.0,0.0,0.0,0.0,-2.7195,-2.7502,-2.7754,-2.8201,-2.9132,-2.9545,-2.965,-2.9363,0.0,0.0,-2.7531,-2.7034,-2.6827,-2.6827,-2.6827,-2.6827,-2.6827,-2.6599,-2.6413,0.0,0.0,0.0,0.0,0.0,0.0,0.0,0.0,-3.0934,-3.1551,0.0,-3.1902,0.0,0.0,0.0,0.0,0.0,0.0,0.0,0.0,-3.1934,-3.2458,-3.291,-3.27,-3.2324,-3.1829,-3.1108,-3.0547,-3.0114,-2.831,0.0,0.0,0.0,0.0,0.0,0.0,-3.0982,-3.2465,-3.3051,-3.3573,-3.3982,-3.3573,-3.2603,-3.109,-2.8758,-2.7037,-2.6097,-2.555,-2.4863,-2.3992,-2.3058,0.0,0.0,0.0,0.0,0.0,0.0,0.0,0.0,0.0,0.0,0.0,0.0,0.0,0.0,0.0,0.0,0.0,0.0,0.0,0.0,-2.0546,0.0,0.0,0.0,0.0,0.0,0.0,0.0,0.0,0.0,0.0,-2.389,-2.4765,-2.5475,-2.5611,0.0,0.0,0.0,0.0,-2.6609,-2.6628,-2.6958,-2.7196,-2.7196,-2.7919,-2.8427,-2.8291,0.0,0.0,-3.0562,-3.1071,-3.136,-3.136,-3.0946,-3.0284,-2.8959,-2.8649,-2.8607,-2.8628,-2.8607,-2.8649,-2.8649,-2.8545,-2.8545,-3.1645,0.0,0.0,0.0,0.0,-3.0761,-3.1772,-3.335,-3.335,-3.3836,-3.4574,-3.3531,0.0,0.0,0.0,0.0,0.0,0.0,-3.2315,-3.2482,-3.3146,-3.3528,-3.3719,-3.4007,-3.3863,-3.3362,-3.3007,-3.2368,-3.1561,-3.0843,-2.9779,-2.8379,0.0,0.0,0.0,0.0,-3.1584,-3.2769,-3.3433,-3.403,-3.4534,-3.3741,-3.2735,-3.1556,-3.0463,-2.942,-2.8477,-2.7392,-2.6345,-2.5422,-2.3866,0.0,0.0,0.0,0.0,0.0,0.0,0.0,0.0,0.0,0.0,0.0,0.0,0.0,0.0,0.0,0.0,0.0,0.0,0.0,-2.084,-2.1214,-2.1688,0.0,0.0,0.0,0.0,0.0,0.0,0.0,0.0,0.0,-2.5642,-2.5582,-2.5619,0.0,0.0,-2.6683,-2.7032,-2.7013,-2.7105,-2.7398,0.0,0.0,0.0,-2.7995,-2.852,-2.9108,-3.0394,-3.1292,-3.1215,-3.1547,-3.1754,-3.1443,-3.1278,-3.1029,-3.0677,-3.0036,-2.9642,-2.9601,-2.9601,-2.9601,-2.9601,-2.9601,-2.9601,-3.4847,-3.3484,-3.2269,-3.2351,-3.3195,-3.3197,-3.4189,-3.5819,-3.5354,-3.56,-3.6251,-3.4999,-3.4007,-3.315,-3.1854,0.0,0.0,0.0,-3.3029,-3.3244,-3.3743,-3.4102,-3.4318,-3.4631,-3.4607,-3.4294,-3.3887,-3.341,-3.2836,-3.2322,-3.1572,-3.061,0.0,0.0,-3.0313,-3.1187,-3.2126,-3.3172,-3.3719,-3.4246,-3.4751,-3.3624,-3.2388,-3.1118,-3.0623,-2.9988,-2.9218,-2.8296,-2.7385,-2.6532,-2.5019,-2.3825,0.0,0.0,0.0,0.0,0.0,0.0,0.0,0.0,0.0,0.0,0.0,-1.9798,-2.0333,0.0,0.0,0.0,-2.0707,-2.1232,-2.223,-2.2512,0.0,0.0,0.0,0.0,0.0,0.0,0.0,-2.512,-2.5792,-2.6327,-2.659,-2.6661,-2.6771,-2.705,-2.705,-2.7197,-2.738,0.0,-2.7546,-2.7728,-2.8122,-2.8386,-2.8405,-2.8918,-2.9598,-3.0442,-3.1335,-3.1988,-3.1961,-3.2147,-3.2209,-3.2002,-3.1919,-3.1919,-3.1919,-3.1443,-3.0946,-3.0615,-3.0532,-3.0532,-3.0553,-3.0553,-3.0532,-3.7631,-3.7444,-3.4822,-3.4472,-3.5687,-3.5784,-3.6616,-3.791,-3.6994,-3.697,-3.7526,-3.6253,-3.5231,-3.441,-3.3244,0.0,0.0,-3.3029,-3.3338,-3.3792,-3.3959,-3.4294,-3.4775,-3.4775,-3.4775,-3.4775,-3.4126,-3.3839,-3.403,-3.3126,-3.2771,-3.2958,-3.1802,-3.1194,-3.117,-3.1869,-3.2744,-3.372,-3.3935,-3.4246,-3.4631,-3.3268,-3.1856,-3.0398,-2.9897,-2.9417,-2.8866,-2.8631,-2.8157,-2.7342,-2.6225,-2.51,-2.4054,0.0,0.0,0.0,0.0,0.0,0.0,0.0,0.0,0.0,0.0,0.0,0.0,0.0,0.0,0.0,-2.2062,0.0,-2.3846,-2.4171,0.0,0.0,0.0,-2.5625,-2.6207,-2.6258,-2.6231,-2.6378,0.0,0.0,0.0,0.0,-2.8616,-2.8085,-2.7915,-2.7822,-2.7877,-2.7801,-2.7877,-2.795,-2.8687,-2.9258,-2.9219,-3.0082,-3.0937,-3.1579,-3.1917,-3.2138,-3.2525,-3.2628,-3.2669,-3.2607,-3.2669,-3.2649,-3.2669,-3.2566,-3.2478,-3.1629,-3.1485,-3.1485,-3.1485,-3.1485,-3.1485,-3.7895,-3.8477,-3.8213,-3.7493,-3.6554,-3.7171,-3.7639,-3.801,-3.8206,-3.8108,-3.7838,-3.675,-3.5649,-3.4461,-3.4318,-3.4294,-3.4366,-3.4342,-3.4414,-3.4534,-3.4583,-3.4679,-3.4775,-3.4775,-3.4775,-3.4775,-3.4655,-3.4534,-3.4583,-3.4366,-3.4102,-3.3767,-3.3409,-3.3005,-3.2484,-3.303,-3.3505,-3.3935,-3.439,-3.4318,-3.3669,-3.3311,-3.2526,-3.1386,-3.125,-3.066,-2.9688,-2.9511,-2.8873,-2.7683,-2.6313,-2.5392,-2.4902,-2.3557,0.0,0.0,0.0,0.0,0.0,0.0,0.0,0.0,0.0,-2.18,-2.2625,0.0,-2.2853,0.0,-2.3247,-2.3741,-2.4364,-2.5074,0.0,0.0,-2.6894,-2.724,-2.767,-2.7402,-2.7388,-2.8009,-2.8304,-2.8652,-2.9292,-2.9639,-2.9871,-3.0046,-2.8764,-2.7875,-2.8187,-2.8242,-2.8352,-2.8685,-2.8972,-2.9065,-2.9223,-2.9712,-3.0451,-3.0973,-3.1492,-3.2011,-3.2592,-3.2669,-3.2669,-3.2669,-3.2669,-3.2669,-3.2669,-3.2669,-3.2607,-3.2457,-3.2395,-3.2416,-3.2416,-3.2395,-3.2395,-3.8003,-3.8477,-3.8896,-3.8316,-3.7211,-3.8186,-3.8793,-3.9094,-3.8642,-3.8341,-3.8141,-3.7097,-3.6158,-3.537,-3.5421,-3.5521,-3.5521,-3.5521,-3.5545,-3.5521,-3.5521,-3.5351,-3.5184,-3.5184,-3.5064,-3.4775,-3.4775,-3.4726,-3.4628,-3.4726,-3.4582,-3.4198,-3.415,-3.4055,-3.3768,-3.3768,-3.4031,-3.4342,-3.4631,-3.439,-3.3645,-3.3287,-3.2737,-3.1923,-3.1481,-3.0864,-3.0049,-2.9784,-2.9056,-2.7729,-2.6681,-2.5711,-2.4943,-2.4012,-2.3287,0.0,0.0,0.0,0.0,0.0,0.0,0.0,0.0,0.0,0.0,0.0,-2.4033,0.0,-2.478,0.0,-2.5987,-2.6501,-2.7076,-2.78,-2.7992,-2.8202,-2.8674,-2.8645,-2.8773,-2.912,-2.9667,-3.0058,-3.0211,-3.06,-3.0855,-3.0801,-2.9834,-2.9239,-2.9389,-2.9464,-2.954,-2.9747,-3.0039,-3.0392,-3.0567,-3.0918,-3.1267,-3.1594,-3.196,-3.2326,-3.2612,-3.2669,-3.2669,-3.2669,-3.2669,-3.2669,-3.2669,-3.2669,-3.2669,-3.2669,-3.2669,-3.2669,-3.2669,-3.2669,-3.2669,-3.8185,-3.8344,-3.8607,-3.8473,-3.8128,-3.8998,-3.9724,-4.0185,-3.8868,-3.839,-3.8488,-3.7433,-3.6807,-3.6603,-3.6531,-3.6507,-3.6507,-3.6435,-3.6411,-3.6411,-3.6411,-3.617,-3.5713,-3.5665,-3.5376,-3.4895,-3.4823,-3.4677,-3.4482,-3.4628,-3.4628,-3.4433,-3.4433,-3.458,-3.4775,-3.4318,-3.4318,-3.4751,-3.4775,-3.4534,-3.4006,-3.3362,-3.272,-3.2103,-3.1266,-3.0556,-3.0079,-2.9738,-2.8987,-2.7796,-2.7095,-2.6142,-2.4843,-2.4324,-2.3846,0.0,-2.337,0.0,0.0,0.0,0.0,0.0,0.0,0.0,0.0,-2.455,-2.5337,-2.6641,-2.6418,-2.6662,-2.7855,-2.802,-2.8255,-2.8649,-2.8752,-2.898,-2.9435,-2.9829,-3.0125,-3.0079,-3.1216,-3.1595,-3.0769,-3.1374,-3.1652,-3.1247,-3.117,-3.1112,-3.1132,-3.0898,-3.0684,-3.082,-3.1364,-3.1716,-3.2261,-3.2472,-3.2551,-3.2646,-3.2744,-3.2798,-3.2897,-3.2934,-3.2934,-3.2934,-3.2954,-3.2954,-3.2913,-3.2913,-3.2913,-3.2954,-3.2975,-3.2855,-3.2711,-3.2669,-3.2669,-3.9389,-4.0083,-4.0542,-4.0694,-4.0542,-3.9903,-3.9438,-3.9154,-3.9775,-3.9827,-3.9367,-3.8258,-3.7714,-3.7661,-3.7228,-3.706,-3.7012,-3.6603,-3.6411,-3.6411,-3.6411,-3.6362,-3.6218,-3.6033,-3.5767,-3.5449,-3.4991,-3.4775,-3.4726,-3.458,-3.458,-3.4726,-3.4726,-3.4775,-3.4775,0.0,0.0,0.0,-3.4775,-3.4534,-3.4006,-3.3839,-3.3241,-3.2126,-3.1938,0.0,-2.9442,-2.967,-2.9192,-2.7796,-2.723,0.0,0.0,0.0,0.0,0.0,0.0,0.0,0.0,0.0,0.0,0.0,-2.5858,-2.5813,-2.5544,-2.5962,-2.6599,-2.7552,-2.7593,-2.7779,-2.8371,-2.8814,-2.9083,-2.9166,-2.9497,-2.9911,-3.0367,-3.0512,-3.081,-3.1525,-3.1828,-3.2076,-3.2178,-3.2436,-3.2498,-3.2367,-3.267,-3.2875,-3.2895,-3.1718,-3.084,-3.084,-3.1387,-3.1781,-3.2196,-3.2336,-3.2595,-3.2854,-3.3032,-3.3191,-3.3644,-3.3782,-3.3803,-3.3782,-3.3883,-3.3782,-3.3803,-3.3803,-3.3762,-3.3803,-3.3803,-3.3596,-3.2892,-3.2669,-3.2669,-3.9745,0.0,-4.0334,-4.0491,0.0,-3.9569,-3.9563,-3.9997,-3.9461,-3.9102,-3.8841,-3.8262,-3.7974,-3.7974,-3.7709,-3.7589,-3.7565,-3.73,-3.7232,-3.7387,-3.7387,-3.7318,-3.7229,-3.6937,-3.6398,-3.5641,-3.5352,-3.4941,-3.4457,-3.4531,-3.4628,-3.4628,-3.4726,-3.4775,-3.4775,-3.4775,-3.4775,-3.4775,-3.4775,-3.4631,-3.4366,-3.3933,-3.3358,-3.2691,0.0,0.0,0.0,0.0,0.0,0.0,0.0,0.0,0.0,0.0,0.0,-2.5292,-2.5547,-2.5586,-2.5213,-2.5627,-2.6082,-2.6584,-2.72,-2.7386,-2.6931,-2.7303,-2.7862,-2.8524,-2.8607,-2.8794,-2.9249,-2.9518,-2.9642,-2.9663,-3.0056,-3.045,-3.0677,-3.1091,-3.1526,-3.1905,-3.2194,-3.2421,-3.2706,-3.2934,-3.3037,-3.3078,-3.343,-3.3779,-3.3699,-3.3044,-3.2431,-3.2411,-3.2572,-3.2893,-3.3095,-3.3155,-3.3235,-3.3515,-3.3575,-3.3774,-3.4072,-3.4072,-3.4072,-3.4072,-3.4072,-3.4072,-3.4072,-3.4072,-3.4072,-3.4072,-3.4072,-3.3948,-3.3451,-3.3223,-3.2975,-4.0247,-3.9882,-4.0174,-4.0165,-4.0002,-3.9479,-3.999,-4.1049,0.0,0.0,0.0,-3.8316,-3.8262,-3.8286,-3.8286,-3.8268,-3.8224,-3.8224,-3.8282,-3.8473,-3.8421,-3.8307,-3.815,-3.777,-3.7003,-3.598,-3.5713,-3.5153,-3.4402,-3.4627,-3.4677,-3.4531,-3.4726,-3.4872,-3.4775,-3.4726,-3.4726,-3.4726,-3.4726,-3.4726,-3.4653,-3.3863,-3.3336,-3.3098,-3.162,-3.0763,-3.051,-2.9669,-2.8986,-2.8405,-2.8023,-2.7646,-2.7099,-2.7059,-2.6904,-2.6608,-2.6695,-2.6644,-2.6273,-2.6708,-2.7185,-2.7641,-2.8297,-2.8566,-2.8193,-2.8524,-2.8938,-2.9373,-2.9435,-2.958,-2.9953,-2.9994,-3.0036,-3.0098,-3.045,-3.0739,-3.0946,-3.1567,-3.1988,-3.2132,-3.2442,-3.2768,-3.2851,-3.3141,-3.3468,-3.3534,-3.3906,-3.4238,-3.4258,-3.4134,-3.3971,-3.3994,-3.4056,-3.4217,-3.43,-3.4302,-3.43,-3.4323,-3.4362,-3.432,-3.43,-3.43,-3.43,-3.4383,-3.43,-3.4341,-3.432,-3.4383,-3.43,-3.432,-3.43,-3.4279,-3.4176,-3.3886,-3.3513,-4.2131,-4.2475,-4.2527,-4.2213,-4.1741,-4.1185,-4.0835,-4.0641,-4.0542,-4.0326,-4.0055,-3.9588,-3.9393,-3.9369,-3.9369,-3.9213,-3.9048,-3.9048,-3.8912,0.0,-3.8502,-3.8372,-3.8327,-3.7837,-3.7366,-3.6916,-3.605,-3.5519,-3.5373,-3.5015,-3.4775,-3.4775,-3.5017,-3.5017,-3.4775,-3.4531,-3.4482,-3.4433,-3.4433,-3.4408,-3.4211,-3.4021,-3.3405,-3.23,-3.2019,-3.1298,-3.0057,-2.9851,-2.9623,-2.9328,-2.8857,-2.8611,-2.85,-2.7766,-2.7323,-2.7463,-2.7501,-2.7505,-2.7614,-2.8069,-2.8524,-2.8959,-2.9145,-2.9166,-2.9125,-2.9166,-2.9394,-2.9849,-2.987,-2.9911,-2.9994,-3.0015,-3.018,-3.0512,-3.0657,-3.0988,-3.1692,-3.1884,-3.2153,-3.2504,-3.2607,-3.2892,-3.3203,-3.3348,-3.3575,-3.4007,-3.4422,-3.4776,-3.4941,-3.4548,-3.436,-3.4608,-3.4712,-3.4817,-3.5045,-3.5211,-3.5148,-3.5231,-3.5169,-3.5128,-3.5128,-3.5107,-3.5128,-3.519,-3.5128,-3.5169,-3.5169,-3.5231,-3.5148,-3.5128,-3.5107,-3.5045,-3.4734,-3.4629,-3.4443,-4.3329,-4.3017,-4.2991,-4.2545,-4.1943,-4.2411,-4.2271,-4.1672,-4.2057,-4.1584,-4.0463,-4.019,-4.0081,-4.0081,-3.9916,-3.9825,-3.9908,-3.9691,-3.956,-3.9495,-3.923,-3.9006,-3.8841,-3.831,-3.7858,-3.7463,-3.6928,-3.6372,-3.584,-3.5574,-3.5308,-3.5042,-3.4969,-3.492,-3.4775,-3.4531,-3.4335,-3.4261,-3.4335,-3.4335,-3.4237,-3.4123,-3.3743,-3.3149,-3.2653,-3.209,-3.153,-3.1019,-3.0738,-3.0738,-3.0278,-3.0025,-2.9956,-2.9708,-2.9453,-2.9299,-2.9354,-2.9235,-2.874,-2.8882,-2.9187,-2.9622,-2.9684,-2.9684,-2.9684,-2.9684,-2.9766,-2.9973,-2.9994,-2.9994,-3.0015,-3.0222,-3.045,-3.0657,-3.1112,-3.1588,-3.1926,-3.2271,-3.2442,-3.2628,-3.2669,-3.2892,-3.3327,-3.3596,-3.3927,-3.4443,-3.4838,-3.5211,-3.5397,-3.5086,-3.4859,-3.5086,-3.5107,-3.519,-3.5397,-3.5418,-3.5418,-3.5418,-3.5418,-3.5418,-3.5418,-3.5418,-3.5418,-3.5418,-3.5418,-3.5418,-3.5418,-3.5418,-3.5418,-3.5418,-3.5418,-3.5314,-3.5148,-3.5128,-3.4879,-4.3999,-4.3208,-4.3316,-4.2897,-4.2192,-4.3246,-4.3236,-4.2549,-4.2871,-4.2318,-4.1046,-4.0752,-4.0697,-4.0697,-4.0421,-4.0428,-4.0605,-4.0337,-4.0177,-4.0116,-3.9779,-3.9484,-3.93,-3.868,-3.8254,-3.7941,-3.7795,-3.7282,-3.6575,-3.6331,-3.599,-3.5381,-3.4993,-3.4775,-3.4677,-3.4482,-3.4286,-3.4113,-3.431,-3.4335,-3.4237,-3.4101,-3.3983,-3.3768,-3.3078,-3.27,-3.2794,-3.2064,-3.1731,-3.1897,-3.1492,-3.1253,-3.1253,-3.1275,-3.1176,-3.0878,-3.0949,-3.07,-2.997,-2.9859,-2.9962,-3.0297,-3.0256,-3.0183,-3.0203,-3.015,-3.0098,-3.0015,-3.0098,-3.016,-3.0222,-3.0574,-3.0884,-3.1008,-3.1609,-3.1988,-3.2153,-3.2463,-3.2669,-3.2669,-3.2752,-3.3058,-3.3492,-3.3927,-3.4383,-3.4838,-3.5211,-3.5418,-3.5418,-3.5418,-3.5418,-3.5418,-3.5418,-3.5418,-3.5418,-3.5418,-3.5418,-3.5418,-3.5418,-3.5418,-3.5418,-3.5418,-3.5418,-3.5418,-3.5418,-3.5418,-3.5418,-3.5418,-3.5418,-3.5418,-3.5418,-3.5418,-3.5397,-3.5376,-3.5169,-4.3903,-4.3932,-4.4318,-4.4074,-4.3259,-4.339,-4.2972,-4.2238,-4.2199,-4.2263,-4.2202,-4.1485,-4.1265,-4.146,-4.1208,-4.1136,-4.1225,-4.0867,-4.0605,-4.0311,-3.9604,-3.936,-3.9505,-3.8798,-3.8502,-3.8589,-3.8248,-3.803,-3.7808,-3.7315,-3.6675,-3.5891,-3.5162,-3.4701,-3.4482,-3.4433,-3.4286,-3.4136,-3.4286,-3.4188,-3.3817,-3.3967,-3.3856,-3.3361,-3.3313,-3.3006,-3.2653,-3.2418,-3.2394,-3.2441,-3.2205,-3.2016,-3.1945,-3.1419,-3.1214,-3.1542,-3.1191,-3.1018,-3.1309,-3.1367,-3.1359,-3.1424,-3.094,-3.0681,-3.0703,-3.0684,-3.0429,-3.018,-3.0387,-3.0615,-3.0657,-3.105,-3.1443,-3.1698,-3.1926,-3.2132,-3.2504,-3.2649,-3.2669,-3.2669,-3.3058,-3.3492,-3.3927,-3.4463,-3.4859,-3.5231,-3.5355,-3.5418,-3.5418,-3.5418,-3.5418,-3.5418,-3.5418,-3.5418,-3.5418,-3.5418,-3.5418,-3.5418,-3.5418,-3.5418,-3.5418,-3.5418,-3.5418,-3.5418,-3.5418,-3.5418,-3.5418,-3.5418,-3.5418,-3.5418,-3.5418,-3.5418,-3.5418,-3.5418,-3.519,-4.4694,-4.4422,-4.4613,-4.4152,-4.3462,-4.324,-4.3209,-4.3154,-4.2762,-4.2706,-4.2681,-4.1834,-4.1663,-4.2118,-4.2004,-4.2019,-4.1966,-4.1854,-4.1669,-4.1449,-4.0903,-4.0375,-3.9865,-3.9402,-3.9185,-3.9074,-3.8879,-3.8734,-3.8413,-3.764,-3.6699,-3.5864,-3.54,-3.5038,-3.4652,-3.4482,-3.4335,-3.4237,-3.4335,-3.431,-3.4139,-3.4408,-3.4435,-3.4245,-3.4221,-3.4077,-3.3863,-3.3695,-3.3647,-3.3598,-3.3405,-3.3186,-3.304,-3.2748,-3.2594,-3.2601,-3.2079,-3.1844,-3.2044,-3.1783,-3.1578,-3.1578,-3.1094,-3.0785,-3.0806,-3.1074,-3.1021,-3.0544,-3.0876,-3.1091,-3.1187,-3.1505,-3.1857,-3.1988,-3.2215,-3.252,-3.2628,-3.2669,-3.2752,-3.3078,-3.3265,-3.3738,-3.4401,-3.4859,-3.519,-3.5397,-3.5418,-3.5418,-3.5418,-3.5418,-3.5418,-3.5418,-3.5418,-3.5418,-3.5418,-3.5418,-3.5418,-3.5418,-3.5418,-3.5418,-3.5418,-3.5418,-3.5418,-3.5418,-3.5418,-3.5418,-3.5418,-3.5418,-3.5418,-3.5418,-3.5418,-3.5418,-3.5418,-3.5418,-3.5314,-4.491,-4.4531,-4.4476,-4.4068,-4.3406,-4.3295,-4.3321,-4.3346,-4.3042,-4.2874,-4.2818,-4.2118,-4.2061,-4.2457,-4.2344,-4.2344,-4.2457,-4.2425,-4.2339,-4.2108,-4.1792,-4.1186,-4.055,-4.0042,-3.9721,-3.9636,-3.9488,-3.9214,-3.879,-3.7811,-3.6891,-3.6124,-3.5905,-3.5519,-3.4941,-3.4745,-3.4625,-3.4457,-3.4482,-3.4482,-3.4531,-3.4677,-3.4775,-3.4775,-3.4726,-3.4677,-3.4677,-3.4482,-3.4384,-3.4384,-3.4261,-3.4113,-3.3915,-3.3767,-3.3592,-3.3269,-3.2896,-3.2672,-3.2723,-3.2392,-3.219,-3.224,-3.1819,-3.1598,-3.1758,-3.2057,-3.2137,-3.1987,-3.2229,-3.2429,-3.1664,-3.1961,-3.2153,-3.2194,-3.2504,-3.2711,-3.2892,-3.2913,-3.3099,-3.3492,-3.372,-3.4031,-3.4776,-3.5211,-3.5418,-3.5418,-3.5418,-3.5418,-3.5418,-3.5418,-3.5418,-3.5418,-3.5418,-3.5418,-3.5418,-3.5418,-3.5418,-3.5418,-3.5418,-3.5418,-3.5418,-3.5418,-3.5418,-3.5418,-3.5418,-3.5418,-3.5418,-3.5418,-3.5418,-3.5418,-3.5418,-3.5418,-3.5418,-3.5418,-3.5418,-4.3955,-4.3955,-4.3955,-4.3764,-4.3406,-4.3708,-4.3235,-4.2369,-4.2481,-4.2569,-4.2594,-4.2457,-4.2481,-4.2481,-4.2004,-4.2004,-4.24,-4.2256,-4.2174,-4.2132,-4.1657,-4.1441,-4.1569,-4.06,-4.0184,-4.027,-3.9869,-3.9387,-3.8795,-3.7993,-3.7415,-3.7112,-3.6654,-3.6021,-3.5392,-3.5445,-3.518,-3.465,-3.4652,-3.4775,-3.4775,-3.4775,-3.4775,-3.4775,-3.458,-3.4433,-3.4433,-3.4384,-3.4384,-3.4384,-3.4384,-3.4335,-3.4286,-3.3915,-3.3568,-3.3342,-3.3292,-3.3319,-3.3519,-3.3469,-3.3592,-3.3787,-3.3429,-3.3498,-3.3543,-3.3816,-3.3962,-3.4419,-3.4667,-3.4218,-3.2553,-3.2692,-3.2794,-3.2758,-3.2742,-3.297,-3.3344,-3.3344,-3.3613,-3.4049,-3.4443,-3.4776,-3.5293,-3.5397,-3.5418,-3.5418,-3.5418,-3.5418,-3.5418,-3.5418,-3.5418,-3.5418,-3.5418,-3.5418,-3.5418,-3.5418,-3.5418,-3.5418,-3.5418,-3.5418,-3.5418,-3.5418,-3.5418,-3.5418,-3.5418,-3.5418,-3.5418,-3.5418,-3.5418,-3.5418,-3.5418,-3.5418,-3.5418,-3.5418,-3.5418,-4.4748,-4.4367,-4.4064,-4.3598,-4.3184,-4.3679,-4.3457,-4.2762,-4.3209,-4.3154,-4.2793,-4.2569,-4.2625,-4.2818,-4.2344,-4.2287,-4.2538,-4.265,-4.2706,-4.2681,-4.2482,-4.2263,-4.1943,-4.138,-4.086,-4.0498,-4.0142,-3.9658,-3.9179,-3.8775,-3.8374,-3.7822,-3.7602,-3.7185,-3.6573,-3.6158,-3.5743,-3.55,-3.5089,-3.4775,-3.4823,-3.4775,-3.4726,-3.458,-3.4433,-3.4335,-3.4211,-3.4211,-3.4211,-3.4211,-3.4211,-3.4113,-3.3965,-3.3618,-3.3369,-3.3342,-3.3292,-3.3342,-3.3442,-3.3442,-3.3631,-3.3908,-3.3583,-3.3673,-3.4198,-3.4555,-3.4778,-3.489,-3.5523,-3.5298,-3.4615,-3.4348,-3.4155,-3.3649,-3.3537,-3.3728,-3.4031,-3.3833,-3.3893,-3.5058,-3.5365,-3.5252,-3.5355,-3.5418,-3.5418,-3.5418,-3.5418,-3.5418,-3.5418,-3.5418,-3.5418,-3.5418,-3.5418,-3.5418,-3.5418,-3.5418,-3.5418,-3.5418,-3.5418,-3.5418,-3.5418,-3.5418,-3.5418,-3.5418,-3.5418,-3.5418,-3.5418,-3.5418,-3.5418,-3.5418,-3.5418,-3.5418,-3.5418,-3.5418,-3.5418,-4.5046,-4.4613,-4.4094,-4.3764,-4.3628,-4.3984,-4.3819,-4.3376,-4.3734,-4.3568,-4.3017,-4.2737,-4.2793,-4.293,-4.2737,-4.2681,-4.2681,-4.293,-4.2986,-4.2986,-4.2986,-4.2785,-4.2459,-4.1958,-4.1509,-4.0971,-4.0386,-3.9932,-3.9556,-3.928,-3.8877,-3.8349,-3.8325,-3.8054,-3.7513,-3.6994,-3.6674,-3.6405,-3.5697,-3.5332,-3.5308,-3.5163,-3.492,-3.4677,-3.4482,-3.4237,-3.3988,-3.3965,-3.3965,-3.3965,-3.4064,-3.3988,-3.3741,-3.3519,-3.3392,-3.3342,-3.3292,-3.3319,-3.3465,-3.3581,-3.3862,-3.4236,-3.4194,-3.4409,-3.512,-3.5557,-3.568,-3.5926,-3.6348,-3.6634,-3.6409,-3.6392,-3.5989,-3.4967,-3.4687,-3.4971,-3.5539,-3.4859,-3.4889,-3.5523,-3.5558,-3.5397,-3.5418,-3.5418,-3.5418,-3.5418,-3.5418,-3.5418,-3.5418,-3.5418,-3.5418,-3.5418,-3.5418,-3.5418,-3.5438,-3.5438,-3.5459,-3.5459,-3.5418,-3.5418,-3.5418,-3.5418,-3.5418,-3.5418,-3.5418,-3.5418,-3.5418,-3.5418,-3.5418,-3.5418,-3.5418,-3.5418,-3.5418,-3.5418,-3.5418,-4.4722,-4.4668,-4.4148,-4.4203,-4.4505,-4.4639,-4.4367,-4.3899,-4.3844,-4.3543,-4.3017,-4.2986,-4.2986,-4.2986,-4.2986,-4.2986,-4.2986,-4.2986,-4.2986,-4.2986,-4.2986,-4.2961,-4.2886,-4.2182,-4.1853,-4.1877,-4.0761,-4.0181,-4.0106,-3.9448,-3.8942,-3.8865,-3.8896,-3.8677,-3.813,-3.8058,-3.7811,-3.7268,-3.6653,-3.6383,-3.6333,-3.5892,-3.5502,-3.5211,-3.4749,-3.4259,-3.379,-3.3717,-3.3691,-3.3717,-3.3915,-3.3965,-3.3691,-3.3618,-3.3519,-3.3342,-3.3292,-3.3465,-3.3711,-3.4105,-3.4435,-3.4769,-3.5393,-3.5829,-3.6362,-3.6737,-3.7103,-3.7477,-3.7713,-3.7838,-3.7958,-3.8186,-3.7825,-3.6543,-3.6185,-3.6533,-3.7077,-3.6765,-3.6029,-3.5703,-3.5603,-3.5418,-3.5418,-3.5418,-3.5418,-3.5418,-3.548,-3.5521,-3.5562,-3.5604,-3.5521,-3.5521,-3.5666,-3.5769,-3.5604,-3.5438,-3.548,-3.55,-3.5438,-3.5418,-3.5418,-3.5418,-3.5418,-3.5418,-3.5418,-3.5418,-3.5418,-3.5418,-3.5418,-3.5418,-3.5418,-3.5418,-3.5418,-3.5418,-3.5418,-4.5341,-4.5287,-4.4694,-4.4505,-4.4694,-4.4694,-4.4422,-4.3899,-4.3899,-4.3543,-4.3098,-4.2986,-4.2986,-4.2986,-4.2986,-4.2986,-4.2986,-4.2986,-4.2986,-4.2986,-4.2986,-4.2986,-4.288,-4.2507,-4.2121,-4.1808,-4.1268,-4.0918,-4.0818,-4.0262,-3.9987,-3.999,-3.9976,-3.9725,-3.9164,-3.9019,-3.8667,-3.8114,-3.7393,-3.7022,-3.7022,-3.685,-3.6431,-3.577,-3.5278,-3.4688,-3.3939,-3.3618,-3.3442,-3.3442,-3.3542,-3.3542,-3.3419,-3.3442,-3.3392,-3.3388,-3.3614,-3.3775,-3.3945,-3.4411,-3.4849,-3.5224,-3.5518,-3.5948,-3.6624,-3.6972,-3.7304,-3.7702,-3.7892,-3.8118,-3.8503,-3.8695,-3.8295,-3.7257,-3.7445,-3.7883,-3.8436,-3.857,-3.7933,-3.6703,-3.6441,-3.6156,-3.5603,-3.5438,-3.548,-3.5521,-3.5707,-3.5894,-3.5935,-3.6121,-3.637,-3.637,-3.637,-3.6246,-3.6142,-3.608,-3.6101,-3.5976,-3.5832,-3.5625,-3.5562,-3.5521,-3.55,-3.5418,-3.5418,-3.5418,-3.5418,-3.5418,-3.5418,-3.5418,-3.5418,-3.5418,-3.5418,-3.5418,-3.5418,-4.5582,-4.5555,-4.4938,-4.4992,-4.5315,-4.5154,-4.4856,-4.4557,-4.4531,-4.4203,-4.3738,-4.3628,-4.3543,-4.3376,-4.3321,-4.3209,-4.3042,-4.2986,-4.2986,-4.2986,-4.2986,-4.2986,-4.3042,-4.3042,-4.2922,-4.2629,-4.2153,-4.19,-4.1875,-4.1157,-4.0727,-4.0528,-4.0513,-4.0235,-3.9749,-3.955,-3.9272,-3.8891,-3.8265,-3.7891,-3.7841,-3.7667,-3.727,-3.6627,-3.613,-3.5511,-3.4778,-3.4276,-3.3761,-3.3411,-3.3292,-3.3292,-3.3292,-3.3453,-3.3545,-3.366,-3.4004,-3.4303,-3.4349,-3.4785,-3.5175,-3.5474,-3.568,-3.6071,-3.6696,-3.6958,-3.719,-3.7965,-3.8096,-3.8395,-3.8953,-3.932,-3.9093,-3.8674,-3.8901,-3.9132,-3.9371,-3.9523,-3.9039,-3.7752,-3.711,-3.671,-3.6368,-3.5811,-3.5769,-3.5914,-3.6183,-3.637,-3.6411,-3.6597,-3.6763,-3.6825,-3.6701,-3.666,-3.6742,-3.6742,-3.6763,-3.6556,-3.6328,-3.6059,-3.5873,-3.5811,-3.5769,-3.55,-3.5418,-3.5418,-3.5418,-3.5418,-3.5418,-3.5418,-3.5418,-3.5418,-3.5418,-3.5418,-3.5418,-4.5582,-4.5502,-4.4938,-4.5315,-4.6139,-4.5715,-4.5422,-4.5555,-4.5448,-4.5046,-4.4668,-4.4505,-4.4313,-4.3955,-4.3789,-4.3487,-4.3098,-4.2986,-4.2986,-4.2986,-4.2986,-4.3042,-4.3209,-4.3543,-4.3823,-4.3968,-4.3447,-4.3133,-4.3028,-4.2033,-4.1128,-4.0883,-4.089,-4.0352,-4.0002,-3.9799,-3.9903,-3.9546,-3.9145,-3.8868,-3.8843,-3.8417,-3.7942,-3.7593,-3.7117,-3.6539,-3.5962,-3.5352,-3.4565,-3.3572,-3.3499,-3.3522,-3.3499,-3.3821,-3.405,-3.4073,-3.4555,-3.4785,-3.4923,-3.529,-3.5566,-3.5657,-3.6033,-3.6572,-3.7021,-3.7068,-3.7472,-3.8574,-3.8646,-3.8861,-3.953,-3.9994,-4.0202,-4.0403,-4.0233,-4.0188,-3.9849,-3.9826,-3.9439,-3.8551,-3.7676,-3.7245,-3.7616,-3.6936,-3.6876,-3.7023,-3.7254,-3.7381,-3.7188,-3.7271,-3.7037,-3.7055,-3.7136,-3.7198,-3.7301,-3.7301,-3.7322,-3.726,-3.6991,-3.666,-3.6225,-3.608,-3.5852,-3.5583,-3.5418,-3.5418,-3.5418,-3.5418,-3.5418,-3.5418,-3.5418,-3.5418,-3.5418,-3.5418,-3.5418,-4.5582,-4.5555,-4.4938,-4.5154,-4.5715,-4.5154,-4.5234,-4.5502,-4.51,-4.4938,-4.4722,-4.4694,-4.4476,-4.3955,-4.3899,-4.3543,-4.3098,-4.2986,-4.2986,-4.2986,-4.2986,-4.3265,-4.3598,-4.3844,-4.4148,-4.4507,-4.4351,-4.4242,-4.4136,-4.3054,-4.2426,-4.2353,-4.2184,-4.1565,-4.0585,-4.1003,-4.0773,-3.9851,-3.9572,-3.9446,-3.9421,-3.932,-3.8867,-3.8239,-3.791,-3.7358,-3.6611,-3.5876,-3.5212,-3.4515,-3.4395,-3.4395,-3.4349,-3.4486,-3.4578,-3.467,-3.5037,-3.5336,-3.5428,-3.5772,-3.6048,-3.6071,-3.6208,-3.6602,-3.7356,-3.752,-3.8076,-3.8864,-3.9196,-3.9498,-4.009,-4.0331,-4.0571,-4.0908,-4.0932,-4.0889,-4.0803,-4.0769,-4.0455,-3.9521,-3.9405,-3.9198,-3.8875,-3.8773,-3.8766,-3.8985,-3.9163,-3.9127,-3.8552,-3.8399,-3.8398,-3.7954,-3.7881,-3.786,-3.786,-3.786,-3.7881,-3.7922,-3.7715,-3.7405,-3.6846,-3.6308,-3.5935,-3.5542,-3.5459,-3.5418,-3.5418,-3.5418,-3.5418,-3.5418,-3.5418,-3.5418,-3.5418,-3.5418,-3.5418,-4.5207,-4.5154,-4.4639,-4.4856,-4.5502,-4.4938,-4.5154,-4.5822,-4.5662,-4.5448,-4.5448,-4.5422,-4.4992,-4.4258,-4.4258,-4.3764,-4.3098,-4.2986,-4.2986,-4.2986,-4.2986,-4.328,-4.3782,-4.4077,-4.4509,-4.5023,-4.5074,-4.51,-4.4886,-4.395,-4.3339,-4.2923,-4.2802,-4.2021,-4.093,-4.1126,-4.1053,-4.0153,-3.9848,-3.9697,-3.9697,-3.9697,-3.9392,-3.8862,-3.8632,-3.8228,-3.7521,-3.6928,-3.6218,-3.5474,-3.4993,-3.4808,-3.4831,-3.4992,-3.5083,-3.5129,-3.5566,-3.5841,-3.5887,-3.6171,-3.6369,-3.653,-3.6599,-3.7017,-3.7609,-3.7971,-3.846,-3.9379,-3.9642,-4.0098,-4.0595,-4.0739,-4.0884,-4.11,-4.1196,-4.1268,-4.1461,-4.1533,-4.1396,-4.1094,-4.0854,-4.0796,-4.0266,-4.0276,-4.0338,-4.046,-4.0561,-4.0162,-3.9713,-3.978,-3.9583,-3.8946,-3.8437,-3.8353,-3.8225,-3.8179,-3.8092,-3.8175,-3.8067,-3.7839,-3.7343,-3.666,-3.6183,-3.5811,-3.5583,-3.5438,-3.548,-3.548,-3.5418,-3.5418,-3.5418,-3.5418,-3.5418,-3.5418,-3.5418,-4.4639,-4.4585,-4.4039,-4.4476,-4.5315,-4.4938,-4.5395,-4.6377,-4.643,-4.6325,-4.6245,-4.6377,-4.5502,-4.4613,-4.4422,-4.3958,-4.3042,-4.2986,-4.2986,-4.2986,-4.3048,-4.3288,-4.3802,-4.4194,-4.4811,-4.5391,-4.5581,-4.5608,-4.5449,-4.4613,-4.3836,-4.3447,-4.2859,-4.2095,-4.1588,-4.1137,-4.0754,-4.0551,-4.0249,-3.9998,-3.9923,-3.9873,-3.9617,-3.9235,-3.9158,-3.8951,-3.8561,-3.8117,-3.7488,-3.6268,-3.5468,-3.5218,-3.5113,-3.5405,-3.5566,-3.5703,-3.6048,-3.6346,-3.6369,-3.6484,-3.6668,-3.7012,-3.7104,-3.7445,-3.8063,-3.8395,-3.8831,-3.9893,-4.0054,-4.0464,-4.0923,-4.1148,-4.1148,-4.1196,-4.1196,-4.1437,-4.1822,-4.1966,-4.2158,-4.2615,-4.1861,-4.1874,-4.1785,-4.1604,-4.1176,-4.2022,-4.2,-4.162,-4.1133,-4.086,-4.0366,-3.9583,-3.9144,-3.8702,-3.8615,-3.8482,-3.835,-3.8237,-3.8237,-3.7984,-3.7674,-3.7074,-3.6556,-3.6163,-3.5935,-3.5728,-3.5625,-3.5583,-3.548,-3.5418,-3.5418,-3.5418,-3.5418,-3.5418,-3.5418,-4.4039,-4.401,-4.3432,-4.3848,-4.4776,-4.4802,-4.5395,-4.6482,-4.6482,-4.6166,-4.5875,-4.5822,-4.5126,-4.4094,-4.4119,-4.3653,-4.3098,-4.2986,-4.2986,-4.2986,-4.2986,-4.3296,-4.3724,-4.4042,-4.4599,-4.5341,-4.5599,-4.584,-4.5979,-4.5502,-4.4912,-4.4323,-4.4002,-4.3441,-4.2225,-4.2268,-4.1986,-4.1282,-4.1003,-4.0701,-4.0375,-4.0325,-4.0045,-3.9536,-3.9409,-3.9411,-3.9335,-3.8893,-3.8299,-3.7604,-3.695,-3.6494,-3.6018,-3.6025,-3.6094,-3.6231,-3.6576,-3.6874,-3.692,-3.7173,-3.7494,-3.7586,-3.7655,-3.7929,-3.8699,-3.8849,-3.9393,-4.0253,-4.0568,-4.0683,-4.1091,-4.1196,-4.1196,-4.1196,-4.1196,-4.1389,-4.1822,-4.1966,-4.2062,-4.2268,-4.27,-4.3081,-4.314,-4.3384,-4.3325,-4.3553,-4.3365,-4.3114,-4.2587,-4.1929,-4.1226,-4.0365,-3.9953,-3.9649,-3.9538,-3.9341,-3.9012,-3.8702,-3.8503,-3.8416,-3.8082,-3.7591,-3.7074,-3.6639,-3.6266,-3.6101,-3.5976,-3.5707,-3.5604,-3.548,-3.5438,-3.5479,-3.5541,-3.5479,-3.5479,-4.3487,-4.3432,-4.3154,-4.3628,-4.4585,-4.4476,-4.4992,-4.5875,-4.5768,-4.5502,-4.5207,-4.5154,-4.4694,-4.3955,-4.3844,-4.3543,-4.3098,-4.2986,-4.2986,-4.3098,-4.3265,-4.3585,-4.3847,-4.415,-4.4758,-4.5551,-4.5919,-4.6211,-4.6296,-4.5928,-4.5368,-4.51,-4.483,-4.4077,-4.3169,-4.3264,-4.2741,-4.1922,-4.1724,-4.1446,-4.0953,-4.0849,-4.0774,-4.0315,-4.024,-4.0292,-4.0395,-4.0159,-3.9549,-3.8881,-3.8424,-3.759,-3.6633,-3.6507,-3.6622,-3.6714,-3.7104,-3.7356,-3.7471,-3.7632,-3.7862,-3.816,-3.816,-3.8551,-3.8989,-3.9244,-3.9767,-4.0466,-4.0711,-4.085,-4.1139,-4.1196,-4.1196,-4.1196,-4.1196,-4.1317,-4.1557,-4.1822,-4.2206,-4.2591,-4.3132,-4.354,-4.3853,-4.4069,-4.4189,-4.3903,-4.3864,-4.3591,-4.2974,-4.2385,-4.1942,-4.1324,-4.0934,-4.0637,-4.0494,-4.0236,-3.9779,-3.9407,-3.8946,-3.8946,-3.8885,-3.8301,-3.7653,-3.7198,-3.6763,-3.6556,-3.637,-3.6081,-3.5873,-3.5873,-3.5832,-3.579,-3.5747,-3.5747,-3.5747,-4.2986,-4.2986,-4.2986,-4.3653,-4.4422,-4.4094,-4.4531,-4.5261,-4.4938,-4.4776,-4.4559,-4.4559,-4.4258,-4.3819,-4.3734,-4.3432,-4.3098,-4.2986,-4.2986,-4.3042,-4.3543,-4.3903,-4.4131,-4.4625,-4.5179,-4.5725,-4.6021,-4.6292,-4.6323,-4.6034,-4.5715,-4.5555,-4.51,-4.4561,-4.4131,-4.3873,-4.3506,-4.2834,-4.242,-4.2144,-4.1641,-4.1509,-4.1351,-4.115,-4.1125,-4.11,-4.11,-4.1018,-4.0715,-3.9837,-3.9671,-3.8532,-3.7371,-3.6851,-3.7206,-3.7284,-3.7834,-3.8089,-3.8215,-3.8273,-3.847,-3.8746,-3.8688,-3.8872,-3.9229,-3.9533,-3.9943,-4.0432,-4.0769,-4.0908,-4.1139,-4.1081,-4.1139,-4.1196,-4.1196,-4.1196,-4.1268,-4.1605,-4.2158,-4.288,-4.3096,-4.3385,-4.377,-4.4058,-4.4093,-4.4165,-4.4165,-4.3993,-4.3293,-4.2872,-4.2513,-4.2574,-4.2316,-4.1765,-4.1588,-4.1077,-4.0625,-4.0301,-3.9713,-3.9648,-3.9648,-3.9213,-3.8584,-3.7719,-3.7301,-3.7118,-3.6912,-3.6748,-3.6582,-3.6394,-3.629,-3.6267,-3.6181,-3.6014,-3.5993,-4.2986,-4.2986,-4.2986,-4.3432,-4.3955,-4.3955,-4.4258,-4.4776,-4.4668,-4.4422,-4.4064,-4.3984,-4.3708,-4.3321,-4.3154,-4.3098,-4.3042,-4.2986,-4.2986,-4.3098,-4.3653,-4.4094,-4.4479,-4.5129,-4.5713,-4.6079,-4.6102,-4.6102,-4.6401,-4.6377,-4.6034,-4.5715,-4.5502,-4.5154,-4.4613,-4.4183,-4.4188,-4.3865,-4.3384,-4.2961,-4.2627,-4.2225,-4.1856,-4.1501,-4.1476,-4.1451,-4.1376,-4.1326,-4.1006,-4.0409,-3.9916,-3.9213,-3.8427,-3.7993,-3.796,-3.8311,-3.8854,-3.9192,-3.9125,-3.951,-3.9477,-3.9347,-3.9147,-3.9206,-3.9344,-3.9426,-3.9931,-4.0513,-4.0942,-4.1057,-4.0792,-4.085,-4.0966,-4.1081,-4.1172,-4.1196,-4.1196,-4.1341,-4.1605,-4.223,-4.2639,-4.3108,-4.3409,-4.3673,-4.3673,-4.3673,-4.3612,-4.3612,-4.3296,-4.3259,-4.3245,-4.3531,-4.3927,-4.3255,-4.2713,-4.2038,-4.1527,-4.1399,-4.0926,-4.0495,-4.0431,-4.0105,-3.9519,-3.8673,-3.8002,-3.7707,-3.7522,-3.7464,-3.7255,-3.7108,-3.7001,-3.6869,-3.6638,-3.6427,-3.6239,-4.2986,-4.2986,-4.2986,-4.3321,-4.3789,-4.3543,-4.3764,-4.4203,-4.3958,-4.3683,-4.3487,-4.3432,-4.3265,-4.3042,-4.2986,-4.2986,-4.2986,-4.2986,-4.2986,-4.3154,-4.3848,-4.4203,-4.4585,-4.5448,-4.5875,-4.6085,-4.6027,-4.6209,-4.6508,-4.6482,-4.6325,-4.6139,-4.6034,-4.5768,-4.5368,-4.5341,-4.4964,-4.4776,-4.4424,-4.3965,-4.3489,-4.2916,-4.2439,-4.2258,-4.2158,-4.2183,-4.2183,-4.2183,-4.1908,-4.1355,-4.074,-4.0266,-3.9846,-3.9423,-3.9068,-3.9269,-3.9884,-4.0192,-3.9962,-4.0047,-3.9849,-3.9403,-3.9308,-3.9485,-3.9661,-3.9873,-4.0106,-4.0571,-4.1091,-4.1091,-4.0537,-4.0595,-4.0792,-4.0908,-4.1057,-4.1172,-4.1196,-4.1196,-4.1365,-4.1605,-4.2038,-4.2519,-4.3036,-4.312,-4.312,-4.312,-4.312,-4.312,-4.312,-4.312,-4.3168,-4.3732,-4.4093,-4.4013,-4.3365,-4.2862,-4.2506,-4.2356,-4.2016,-4.1633,-4.1271,-4.1013,-4.0366,-3.9518,-3.8976,-3.8544,-3.8395,-3.8357,-3.8167,-3.7848,-3.7715,-3.7496,-3.7136,-3.6903,-3.667,-4.2986,-4.2986,-4.2986,-4.3265,-4.3598,-4.3209,-4.3265,-4.3543,-4.3265,-4.3042,-4.2986,-4.3042,-4.3042,-4.2986,-4.2986,-4.2986,-4.2986,-4.2986,-4.2986,-4.3209,-4.3958,-4.4258,-4.4585,-4.5341,-4.6139,-4.6086,-4.6218,-4.6535,-4.6535,-4.6535,-4.6535,-4.643,-4.6455,-4.6297,-4.5928,-4.5875,-4.5609,-4.5502,-4.5154,-4.4856,-4.401,-4.3321,-4.2986,-4.2986,-4.2986,-4.2911,-4.2836,-4.2836,-4.2668,-4.2164,-4.168,-4.1272,-4.1182,-4.0836,-4.0415,-4.0269,-4.0875,-4.0928,-4.0745,-4.0374,-4.0223,-3.9661,-3.9344,-3.9638,-4.0106,-4.0397,-4.0687,-4.086,-4.1148,-4.1148,-4.0513,-4.0421,-4.0561,-4.0792,-4.0942,-4.1115,-4.1196,-4.1196,-4.1196,-4.1413,-4.1653,-4.199,-4.253,-4.2591,-4.2591,-4.2591,-4.2591,-4.2591,-4.2567,-4.2399,-4.2591,-4.3409,-4.3877,-4.4189,-4.395,-4.3553,-4.3451,-4.3514,-4.3051,-4.261,-4.2229,-4.1911,-4.1142,-4.0517,-4.0105,-3.9693,-3.9563,-3.9216,-3.8916,-3.8615,-3.8412,-3.8084,-3.7616,-3.7252,-3.7015,-4.2986,-4.2986,-4.2986,-4.3042,-4.3098,-4.3042,-4.3042,-4.3098,-4.3042,-4.2986,-4.2986,-4.2986,-4.2986,-4.2986,-4.2986,-4.2986,-4.2986,-4.3098,-4.3098,-4.3265,-4.3874,-4.4422,-4.4613,-4.5287,-4.5981,-4.6139,-4.6377,-4.6482,-4.6535,-4.6535,-4.6535,-4.6535,-4.6535,-4.6403,-4.6297,-4.6086,-4.5928,-4.6034,-4.5341,-4.4585,-4.3929,-4.3376,-4.3098,-4.2986,-4.2986,-4.2986,-4.2986,-4.2986,-4.293,-4.2818,-4.2256,-4.1972,-4.1948,-4.1923,-4.1866,-4.1817,-4.1923,-4.1948,-4.1688,-4.1206,-4.0629,-3.9989,-3.9638,-3.9697,-4.0397,-4.1263,-4.1606,-4.1033,-4.1206,-4.1033,-4.0571,-4.0246,-4.0328,-4.0561,-4.085,-4.1,-4.1139,-4.1196,-4.1196,-4.1196,-4.1437,-4.1653,-4.2049,-4.2038,-4.2062,-4.2062,-4.2062,-4.2086,-4.2134,-4.2086,-4.223,-4.3096,-4.389,-4.4189,-4.4285,-4.395,-4.395,-4.4285,-4.3888,-4.3428,-4.3114,-4.2673,-4.2229,-4.1678,-4.1229,-4.0582,-4.0127,-3.9823,-3.9606,-3.9302,-3.8886,-3.8491,-3.8099,-3.775,-3.7297,-4.2986,-4.2986,-4.2986,-4.2986,-4.2986,-4.2986,-4.2986,-4.2986,-4.2986,-4.2986,-4.2986,-4.2986,-4.2986,-4.2986,-4.2986,-4.2986,-4.3098,-4.3321,-4.3487,-4.3653,-4.4258,-4.4748,-4.4964,-4.5609,-4.6192,-4.6086,-4.6297,-4.6482,-4.6535,-4.6535,-4.6535,-4.6535,-4.6535,-4.6535,-4.6535,-4.6272,-4.6245,-4.6192,-4.5662,-4.4938,-4.4367,-4.3819,-4.3321,-4.3042,-4.2986,-4.2986,-4.2986,-4.2986,-4.2986,-4.293,-4.24,-4.2287,-4.24,-4.2344,-4.2174,-4.2625,-4.2625,-4.2457,-4.2061,-4.1492,-4.0918,-4.0397,-4.0048,-4.0281,-4.1148,-4.1948,-4.2344,-4.172,-4.1663,-4.132,-4.0803,-4.0687,-4.0595,-4.0653,-4.0826,-4.1,-4.1115,-4.1196,-4.1196,-4.1196,-4.1196,-4.1413,-4.1581,-4.1605,-4.1653,-4.1629,-4.1629,-4.1605,-4.1894,-4.2265,-4.2447,-4.288,-4.3673,-4.4261,-4.4285,-4.4161,-4.4161,-4.4285,-4.4285,-4.3888,-4.3764,-4.3451,-4.2949,-4.257,-4.2125,-4.1486,-4.0777,-4.0344,-4.0147,-3.9733,-3.9362,-3.8985,-3.8543,-3.7745,-3.7297,-4.2986,-4.2986,-4.2986,-4.2986,-4.2986,-4.2986,-4.2986,-4.2986,-4.2986,-4.2986,-4.2986,-4.2986,-4.2986,-4.2986,-4.2986,-4.2986,-4.3042,-4.3487,-4.3734,-4.4148,-4.4531,-4.483,-4.5126,-4.5768,-4.5928,-4.5822,-4.6297,-4.6482,-4.6535,-4.6535,-4.6535,-4.6535,-4.6535,-4.6535,-4.6535,-4.6482,-4.6482,-4.643,-4.5875,-4.5234,-4.4694,-4.4148,-4.3598,-4.3209,-4.2986,-4.2986,-4.2986,-4.2986,-4.2986,-4.293,-4.2625,-4.2569,-4.2818,-4.2625,-4.2569,-4.2849,-4.293,-4.2737,-4.2344,-4.1834,-4.1206,-4.086,-4.0687,-4.1091,-4.181,-4.2625,-4.2849,-4.2344,-4.2061,-4.1549,-4.1091,-4.1263,-4.0918,-4.0803,-4.086,-4.1057,-4.1115,-4.1057,-4.1139,-4.1196,-4.1196,-4.1196,-4.1293,-4.1244,-4.122,-4.122,-4.1196,-4.1196,-4.1653,-4.2265,-4.2627,-4.2952,-4.3673,-4.4237,-4.4285,-4.4285,-4.4285,-4.4285,-4.4285,-4.4285,-4.4099,-4.3912,-4.3514,-4.32,-4.2862,-4.2293,-4.155,-4.1164,-4.0755,-4.0401,-4.011,-3.956,-3.8967,-3.8143,-3.7461,-4.2986,-4.2986,-4.2986,-4.2986,-4.2986,-4.2986,-4.2986,-4.2986,-4.2986,-4.2986,-4.2986,-4.2986,-4.2986,-4.2986,-4.2986,-4.2986,-4.2986,-4.3042,-4.3432,-4.3623,-4.3598,-4.445,-4.4992,-4.5448,-4.5555,-4.6245,-4.6482,-4.6482,-4.6535,-4.6535,-4.6535,-4.6535,-4.6535,-4.6535,-4.6535,-4.6535,-4.6535,-4.643,-4.5981,-4.5368,-4.4776,-4.4258,-4.3708,-4.3209,-4.3042,-4.2986,-4.2986,-4.2986,-4.2986,-4.2986,-4.2874,-4.2793,-4.293,-4.2874,-4.2905,-4.293,-4.2986,-4.293,-4.2681,-4.2287,-4.2004,-4.1948,-4.1891,-4.1834,-4.2231,-4.2681,-4.2849,-4.2793,-4.2457,-4.2118,-4.172,-4.1549,-4.132,-4.1033,-4.1033,-4.1033,-4.1057,-4.0826,-4.0884,-4.1139,-4.1254,-4.1254,-4.1408,-4.1432,-4.1278,-4.122,-4.1437,-4.1461,-4.1798,-4.2362,-4.2699,-4.3096,-4.3794,-4.4189,-4.4285,-4.4285,-4.4285,-4.4285,-4.4285,-4.4285,-4.4285,-4.4037,-4.3888,-4.3639,-4.3326,-4.2822,-4.2483,-4.2252,-4.1929,-4.1388,-4.086,-4.0343,-3.9556,-3.8687,-3.8067,-4.2986,-4.2986,-4.2986,-4.2986,-4.2986,-4.2986,-4.2986,-4.2986,-4.2986,-4.2986,-4.2986,-4.2986,-4.2986,-4.2986,-4.2986,-4.2986,-4.3042,-4.3432,-4.3679,-4.4039,-4.4396,-4.4992,-4.5529,-4.5768,-4.6086,-4.643,-4.6535,-4.6535,-4.6535,-4.6535,-4.6535,-4.6535,-4.6535,-4.6535,-4.6535,-4.6535,-4.6535,-4.6482,-4.6192,-4.5715,-4.4884,-4.491,-4.4313,-4.3098,-4.3432,-4.3321,-4.3098,-4.3042,-4.2986,-4.2986,-4.2986,-4.2986,-4.2986,-4.2986,-4.2986,-4.2986,-4.2986,-4.2986,-4.293,-4.2457,-4.2118,-4.2118,-4.2118,-4.2231,-4.2513,-4.2874,-4.2986,-4.293,-4.2818,-4.2513,-4.2061,-4.2174,-4.2118,-4.1549,-4.1206,-4.1148,-4.1,-4.0769,-4.1,-4.1344,-4.1344,-4.1344,-4.1571,-4.1774,-4.148,-4.1268,-4.1509,-4.1774,-4.2134,-4.2495,-4.288,-4.3216,-4.389,-4.4189,-4.4285,-4.4285,-4.4285,-4.4285,-4.4285,-4.4285,-4.4285,-4.4285,-4.4099,-4.3974,-4.3787,-4.3451,-4.3326,-4.3389,-4.3004,-4.2155,-4.1599,-4.1057,-4.0241,-3.9354,-3.8886,-4.3129,-4.3073,-4.3042,-4.2986,-4.2986,-4.2986,-4.2986,-4.2986,-4.2986,-4.2986,-4.2986,-4.2986,-4.2986,-4.2986,-4.2986,-4.2986,-4.3154,-4.3568,-4.3929,-4.4313,-4.4776,-4.5502,-4.5822,-4.6034,-4.6139,-4.643,-4.6535,-4.6535,-4.6535,-4.6535,-4.6535,-4.6535,-4.6535,-4.6535,-4.6535,-4.6535,-4.6535,-4.6535,-4.643,-4.6034,-4.5154,-4.5287,-4.491,-4.3543,-4.3679,-4.3487,-4.3154,-4.2986,-4.2986,-4.2986,-4.2986,-4.2986,-4.2986,-4.2986,-4.2986,-4.2986,-4.2986,-4.2986,-4.2874,-4.2681,-4.2344,-4.2457,-4.24,-4.2625,-4.2849,-4.2986,-4.2986,-4.2986,-4.2986,-4.2818,-4.2344,-4.2625,-4.2457,-4.1834,-4.132,-4.1148,-4.0918,-4.0745,-4.123,-4.1573,-4.1541,-4.1499,-4.2026,-4.2268,-4.2155,-4.1966,-4.2121,-4.2338,-4.253,-4.2856,-4.3241,-4.3577,-4.3901,-4.4141,-4.4285,-4.4285,-4.4285,-4.4285,-4.4285,-4.4285,-4.4285,-4.4285,-4.4285,-4.4161,-4.4037,-4.4037,-4.3974,-4.3912,-4.3389,-4.2799,-4.2295,-4.1831,-4.1122,-4.0357,-3.9984,-4.3406,-4.3351,-4.3129,-4.3042,-4.3042,-4.2986,-4.2986,-4.2986,-4.2986,-4.2986,-4.2986,-4.2986,-4.3042,-4.3098,-4.3154,-4.3209,-4.3351,-4.3764,-4.4148,-4.4585,-4.4884,-4.5502,-4.5875,-4.6086,-4.6192,-4.643,-4.6535,-4.6535,-4.6535,-4.6535,-4.6535,-4.6535,-4.6535,-4.6535,-4.6535,-4.6535,-4.6535,-4.6535,-4.6535,-4.6086,-4.5635,-4.5609,-4.5018,-4.4203,-4.3955,-4.3764,-4.3321,-4.3042,-4.3042,-4.2986,-4.2986,-4.2986,-4.2986,-4.2986,-4.2986,-4.2986,-4.2986,-4.2986,-4.2986,-4.2986,-4.2905,-4.2849,-4.2737,-4.293,-4.2986,-4.2986,-4.2986,-4.2986,-4.2986,-4.2986,-4.293,-4.293,-4.2569,-4.2231,-4.172,-4.1206,-4.1033,-4.0745,-4.1148,-4.1793,-4.1671,-4.1586,-4.2351,-4.2846,-4.2842,-4.2795,-4.2795,-4.2916,-4.3,-4.3265,-4.3673,-4.3842,-4.4045,-4.4141,-4.4285,-4.4285,-4.4285,-4.4285,-4.4285,-4.4285,-4.4285,-4.4285,-4.4285,-4.4285,-4.4285,-4.4161,-4.4223,-4.4285,-4.3764,-4.3341,-4.3035,-4.2527,-4.1897,-4.1434,-4.1045,-4.3764,-4.3708,-4.3598,-4.3623,-4.3543,-4.3129,-4.2986,-4.2986,-4.2986,-4.2986,-4.2986,-4.2986,-4.3265,-4.3487,-4.3598,-4.3708,-4.4123,-4.4177,-4.4613,-4.4722,-4.51,-4.5448,-4.5875,-4.6139,-4.6245,-4.643,-4.6535,-4.6535,-4.6535,-4.6535,-4.6535,-4.6535,-4.6535,-4.6535,-4.6535,-4.6535,-4.6535,-4.6535,-4.6482,-4.6219,-4.5715,-4.5875,-4.5609,-4.4531,-4.4422,-4.4094,-4.3543,-4.3265,-4.3042,-4.2986,-4.2986,-4.2986,-4.2986,-4.2986,-4.2986,-4.2986,-4.2986,-4.2986,-4.2986,-4.2986,-4.2986,-4.2986,-4.2986,-4.2986,-4.2986,-4.2986,-4.2986,-4.2986,-4.2986,-4.2986,-4.2986,-4.2986,-4.2762,-4.2513,-4.2061,-4.1549,-4.1206,-4.086,-4.1,-4.1867,-4.2136,-4.2379,-4.2985,-4.3275,-4.3361,-4.3385,-4.3385,-4.3553,-4.3721,-4.3866,-4.4069,-4.4093,-4.4213,-4.4237,-4.4285,-4.4285,-4.4285,-4.4285,-4.4285,-4.4285,-4.4285,-4.4285,-4.4285,-4.4285,-4.4285,-4.4285,-4.4285,-4.4285,-4.4223,-4.3917,-4.3579,-4.3445,-4.317,-4.264,-4.2108,-4.4064,-4.4064,-4.3955,-4.3899,-4.3844,-4.3487,-4.3265,-4.3129,-4.3017,-4.2986,-4.2986,-4.3042,-4.3321,-4.3734,-4.3955,-4.4203,-4.4668,-4.4938,-4.4992,-4.51,-4.5662,-4.5928,-4.6086,-4.6272,-4.643,-4.6535,-4.6535,-4.6535,-4.6535,-4.6535,-4.6535,-4.6535,-4.6535,-4.6535,-4.6535,-4.6535,-4.6535,-4.6535,-4.6482,-4.635,-4.6139,-4.6139,-4.5981,-4.5234,-4.4802,-4.4422,-4.3899,-4.3432,-4.3042,-4.3042,-4.3042,-4.2986,-4.2986,-4.2986,-4.2986,-4.2986,-4.2986,-4.2986,-4.2986,-4.2986,-4.2986,-4.2986,-4.2986,-4.2986,-4.2986,-4.2986,-4.2986,-4.2986,-4.2986,-4.2986,-4.2986,-4.2986,-4.293,-4.2706,-4.2287,-4.1777,-4.132,-4.0976,-4.1317,-4.2152,-4.2758,-4.31,-4.3518,-4.3686,-4.3866,-4.3962,-4.4034,-4.4117,-4.4213,-4.4261,-4.4285,-4.4285,-4.4261,-4.4285,-4.4285,-4.4285,-4.4285,-4.4285,-4.4285,-4.4285,-4.4285,-4.4285,-4.4285,-4.4285,-4.4285,-4.4285,-4.4285,-4.4285,-4.4223,-4.4223,-4.4151,-4.4151,-4.4285,-4.3774,-4.3071,-4.4313,-4.4258,-4.4064,-4.3955,-4.3955,-4.3899,-4.3708,-4.3406,-4.3129,-4.3042,-4.2986,-4.2986,-4.3321,-4.3844,-4.3899,-4.4313,-4.483,-4.5395,-4.5555,-4.5768,-4.6139,-4.6297,-4.643,-4.6482,-4.6535,-4.6535,-4.6535,-4.6535,-4.6535,-4.6535,-4.6535,-4.6535,-4.6535,-4.6535,-4.6535,-4.6535,-4.6535,-4.6535,-4.6482,-4.643,-4.635,-4.643,-4.6192,-4.5662,-4.5154,-4.4694,-4.4203,-4.3708,-4.3321,-4.3154,-4.3098,-4.3042,-4.3042,-4.2986,-4.2986,-4.2986,-4.2986,-4.2986,-4.2986,-4.2986,-4.2986,-4.2986,-4.2986,-4.2986,-4.2986,-4.2986,-4.2986,-4.2986,-4.2986,-4.2986,-4.2986,-4.2986,-4.2986,-4.2706,-4.24,-4.1948,-4.1492,-4.1499,-4.1913,-4.2503,-4.2995,-4.3482,-4.3929,-4.4207,-4.4216,-4.4117,-4.4141,-4.4189,-4.4261,-4.4261,-4.4285,-4.4285,-4.4285,-4.4285,-4.4285,-4.4285,-4.4285,-4.4285,-4.4285,-4.4285,-4.4285,-4.4285,-4.4285,-4.4285,-4.4285,-4.4285,-4.4285,-4.4285,-4.4285,-4.4285,-4.4285,-4.4285,-4.4285,-4.4285,-4.3798,-4.4585,-4.4585,-4.4476,-4.4476,-4.4422,-4.4258,-4.3874,-4.3462,-4.3295,-4.3184,-4.2986,-4.2986,-4.3321,-4.3899,-4.4313,-4.4776,-4.5315,-4.5875,-4.6139,-4.6297,-4.6377,-4.6482,-4.6535,-4.6535,-4.6535,-4.6535,-4.6535,-4.6535,-4.6535,-4.6535,-4.6535,-4.6535,-4.6535,-4.6535,-4.6535,-4.6535,-4.6535,-4.6535,-4.6535,-4.6535,-4.6535,-4.6535,-4.6325,-4.6034,-4.5529,-4.5126,-4.4884,-4.4396,-4.4013,-4.3653,-4.3653,-4.3543,-4.2986,-4.2986,-4.2986,-4.2986,-4.2986,-4.2986,-4.2986,-4.2986,-4.2986,-4.2986,-4.2986,-4.2986,-4.2986,-4.2986,-4.2986,-4.2986,-4.2986,-4.2986,-4.2986,-4.2986,-4.2986,-4.2818,-4.2513,-4.2174,-4.1826,-4.2152,-4.2594,-4.3259,-4.3754,-4.4161,-4.4585,-4.4389,-4.4374,-4.4323,-4.4285,-4.4285,-4.4285,-4.4285,-4.4285,-4.4285,-4.4285,-4.4285,-4.4285,-4.4285,-4.4285,-4.4285,-4.4285,-4.4285,-4.4285,-4.4285,-4.4285,-4.4285,-4.4285,-4.4285,-4.4285,-4.4285,-4.4285,-4.4285,-4.4285,-4.4285,-4.4285,-4.4285,-4.4285,-4.4802,-4.483,-4.4722,-4.4694,-4.4694,-4.4505,-4.4177,-4.3738,-4.3517,-4.3295,-4.3129,-4.3042,-4.3321,-4.3899,-4.4258,-4.4748,-4.5555,-4.5822,-4.6139,-4.643,-4.6535,-4.6535,-4.6535,-4.6535,-4.6535,-4.6535,-4.6535,-4.6535,-4.6535,-4.6535,-4.6535,-4.6535,-4.6535,-4.6535,-4.6535,-4.6535,-4.6535,-4.6535,-4.6535,-4.6535,-4.6535,-4.6535,-4.6535,-4.6377,-4.5928,-4.5715,-4.5529,-4.5046,-4.4585,-4.4258,-4.4203,-4.3929,-4.3376,-4.3209,-4.2986,-4.2986,-4.2986,-4.2986,-4.2986,-4.2986,-4.2986,-4.2986,-4.2986,-4.2986,-4.2986,-4.2986,-4.2986,-4.2986,-4.2986,-4.2986,-4.2986,-4.2986,-4.2986,-4.2986,-4.2681,-4.24,-4.2591,-4.2863,-4.3449,-4.417,-4.4625,-4.5006,-4.5098,-4.4829,-4.4594,-4.4409,-4.4285,-4.4285,-4.4285,-4.4285,-4.4285,-4.4285,-4.4285,-4.4285,-4.4285,-4.4285,-4.4285,-4.4285,-4.4285,-4.4285,-4.4285,-4.4285,-4.4285,-4.4285,-4.4285,-4.4285,-4.4285,-4.4285,-4.4285,-4.4285,-4.4285,-4.4285,-4.4285,-4.4285,-4.4285,-4.491,-4.5126,-4.483,-4.4802,-4.4802,-4.4776,-4.4585,-4.4313,-4.3738,-4.3406,-4.3326,-4.3129,-4.3265,-4.3653,-4.4039,-4.4639,-4.5341,-4.5768,-4.6192,-4.6535,-4.6535,-4.6535,-4.6535,-4.6535,-4.6535,-4.6535,-4.6535,-4.6535,-4.6535,-4.6535,-4.6535,-4.6535,-4.6535,-4.6535,-4.6535,-4.6535,-4.6535,-4.6535,-4.6535,-4.6535,-4.6535,-4.6535,-4.6482,-4.6403,-4.6086,-4.5715,-4.5609,-4.5261,-4.483,-4.4776,-4.4668,-4.4531,-4.3984,-4.3321,-4.3098,-4.3042,-4.3098,-4.2986,-4.2986,-4.2986,-4.2986,-4.2986,-4.2986,-4.2986,-4.2986,-4.2986,-4.2986,-4.2986,-4.2986,-4.2986,-4.2986,-4.2986,-4.2986,-4.2986,-4.2874,-4.275,-4.2967,-4.3465,-4.4411,-4.4969,-4.5266,-4.5572,-4.511,-4.4816,-4.4508,-4.4347,-4.4285,-4.4285,-4.4285,-4.4285,-4.4285,-4.4285,-4.4285,-4.4285,-4.4285,-4.4285,-4.4285,-4.4285,-4.4285,-4.4285,-4.4285,-4.4285,-4.4285,-4.4285,-4.4285,-4.4285,-4.4285,-4.4285,-4.4285,-4.4285,-4.4285,-4.4285,-4.4285,-4.4285,-4.4285,-4.4748,-4.4856,-4.5018,-4.518,-4.5341,-4.518,-4.5018,-4.491,-4.4094,-4.3628,-4.3406,-4.3129,-4.3098,-4.3376,-4.4097,-4.467,-4.4992,-4.5768,-4.6297,-4.6482,-4.6535,-4.6535,-4.6535,-4.6535,-4.6535,-4.6535,-4.6535,-4.6535,-4.6535,-4.6535,-4.6535,-4.6535,-4.6535,-4.6535,-4.6535,-4.6535,-4.6535,-4.6535,-4.6535,-4.6535,-4.6535,-4.6535,-4.6482,-4.6482,-4.6245,-4.6192,-4.6139,-4.6139,-4.5768,-4.5502,-4.5422,-4.5072,-4.4531,-4.3572,-4.3321,-4.3487,-4.3265,-4.3098,-4.2986,-4.2986,-4.2986,-4.2986,-4.2986,-4.2986,-4.2986,-4.2986,-4.2986,-4.2986,-4.2986,-4.2986,-4.2986,-4.2986,-4.2986,-4.2986,-4.3062,-4.32,-4.3337,-4.4302,-4.5271,-4.5629,-4.591,-4.5646,-4.5184,-4.4816,-4.4508,-4.4385,-4.4347,-4.4285,-4.4285,-4.4285,-4.4285,-4.4285,-4.4285,-4.4285,-4.4285,-4.4285,-4.4285,-4.4285,-4.4285,-4.4285,-4.4285,-4.4285,-4.4285,-4.4285,-4.4285,-4.4285,-4.4285,-4.4285,-4.4285,-4.4285,-4.4285,-4.4285,-4.4223,-4.4223,-4.4285,-4.483,-4.51,-4.5422,-4.5502,-4.5448,-4.5395,-4.5234,-4.491,-4.4476,-4.3939,-4.338,-4.3077,-4.3012,-4.328,-4.3945,-4.4565,-4.4913,-4.5715,-4.6192,-4.643,-4.6535,-4.6535,-4.6535,-4.6535,-4.6535,-4.6535,-4.6535,-4.6535,-4.6535,-4.6535,-4.6535,-4.6535,-4.6535,-4.6535,-4.6535,-4.6535,-4.6535,-4.6535,-4.6535,-4.6535,-4.6535,-4.6535,-4.6535,-4.6535,-4.6535,-4.6535,-4.6535,-4.6535,-4.6297,-4.5928,-4.5768,-4.5475,-4.4992,-4.4287,-4.3874,-4.3764,-4.3543,-4.3265,-4.3154,-4.3042,-4.3042,-4.3042,-4.3042,-4.3042,-4.2986,-4.2986,-4.2986,-4.2986,-4.2986,-4.2986,-4.2986,-4.2986,-4.2986,-4.2986,-4.3388,-4.3708,-4.4152,-4.4937,-4.5623,-4.599,-4.6155,-4.6095,-4.5696,-4.5453,-4.5086,-4.4508,-4.447,-4.4285,-4.4285,-4.4285,-4.4285,-4.4285,-4.4285,-4.4285,-4.4285,-4.4285,-4.4285,-4.4285,-4.4285,-4.4285,-4.4285,-4.4285,-4.4285,-4.4285,-4.4285,-4.4285,-4.4285,-4.4285,-4.4285,-4.4285,-4.4285,-4.4285,-4.4223,-4.4161,-4.4099,-4.5126,-4.5635,-4.5901,-4.5768,-4.5395,-4.5502,-4.5315,-4.4938,-4.4722,-4.4299,-4.3773,-4.3185,-4.3281,-4.3336,-4.3693,-4.4304,-4.497,-4.558,-4.6056,-4.6403,-4.6482,-4.6535,-4.6535,-4.6535,-4.6535,-4.6535,-4.6535,-4.6535,-4.6535,-4.6535,-4.6535,-4.6535,-4.6535,-4.6535,-4.6535,-4.6535,-4.6535,-4.6535,-4.6535,-4.6535,-4.6535,-4.6535,-4.6535,-4.6535,-4.6535,-4.6535,-4.6535,-4.6535,-4.6455,-4.6245,-4.5928,-4.5768,-4.5422,-4.4938,-4.4585,-4.4313,-4.4148,-4.3819,-4.3487,-4.3321,-4.3265,-4.3154,-4.3098,-4.3098,-4.3098,-4.3154,-4.3154,-4.3042,-4.3042,-4.3011,-4.3011,-4.3011,-4.3011,-4.3288,-4.379,-4.4292,-4.492,-4.5522,-4.5924,-4.6326,-4.6301,-4.6301,-4.6059,-4.5757,-4.5392,-4.4902,-4.4594,-4.4409,-4.4285,-4.4285,-4.4285,-4.4285,-4.4285,-4.4285,-4.4285,-4.4285,-4.4285,-4.4285,-4.4285,-4.4285,-4.4285,-4.4285,-4.4285,-4.4285,-4.4285,-4.4285,-4.4285,-4.4223,-4.4223,-4.4285,-4.4161,-4.4075,-4.4013,-4.395,-4.3826,-4.5448,-4.5928,-4.6007,-4.606,-4.6139,-4.5822,-4.5635,-4.5635,-4.4992,-4.4698,-4.4623,-4.415,-4.3596,-4.2516,-4.3467,-4.4201,-4.4864,-4.5548,-4.6052,-4.6453,-4.6665,-4.664,-4.6535,-4.6535,-4.6535,-4.6535,-4.6535,-4.6535,-4.6535,-4.6535,-4.6535,-4.6535,-4.6535,-4.6535,-4.6535,-4.6535,-4.6535,-4.6535,-4.6535,-4.6535,-4.6535,-4.6535,-4.6535,-4.6535,-4.6535,-4.6535,-4.6535,-4.6535,-4.6535,-4.6297,-4.6034,-4.5981,-4.5822,-4.5475,-4.5072,-4.491,-4.4748,-4.4476,-4.4123,-4.3874,-4.3764,-4.3708,-4.3653,-4.3543,-4.3543,-4.3598,-4.3487,-4.3154,-4.3123,-4.3143,-4.3143,-4.3087,-4.3137,-4.384,-4.4443,-4.4895,-4.5447,-4.5824,-4.62,-4.6326,-4.6301,-4.612,-4.5732,-4.5489,-4.527,-4.484,-4.4594,-4.447,-4.4409,-4.4347,-4.4347,-4.4285,-4.4285,-4.4285,-4.4285,-4.4285,-4.4285,-4.4285,-4.4285,-4.4285,-4.4285,-4.4285,-4.4285,-4.4285,-4.4285,-4.4285,-4.4223,-4.4161,-4.4137,-4.4137,-4.395,-4.3888,-4.374,-4.3678,-4.3514]},{"header":{"parameterUnit":"m.s-1","parameterCategory":1,"la1":31.0,"la2":29.5877,"lo1":-88.7671,"lo2":-86.6584,"dy":0.0162,"dx":0.0185,"nx":115,"ny":88,"refTime":"2024-02-29T06:00:00:Z","depth":0,"parameterNumber":3,"parameterNumberName":"V-component_of_WINDS"},"data":[0.0,0.0,0.0,0.0,0.0,0.0,0.0,0.0,0.0,0.0,0.0,0.0,0.0,0.0,0.0,0.0,0.0,0.0,0.0,0.0,0.0,0.0,0.0,0.0,0.0,0.0,0.0,0.0,0.0,0.0,0.0,0.0,0.0,0.0,0.0,0.0,0.0,0.0,0.0,0.0,0.0,0.0,0.0,0.0,0.0,0.0,0.0,0.0,0.0,0.0,0.0,0.0,0.0,0.0,0.0,0.0,0.0,0.0,0.0,0.0,0.0,0.0,0.0,0.0,0.0,0.0,0.0,0.0,0.0,0.0,0.0,0.0,0.0,0.0,0.0,0.0,0.0,0.0,0.0,0.0,0.0,0.0,0.0,0.0,0.0,0.0,0.0,0.0,0.0,0.0,0.0,0.0,0.0,0.0,0.0,0.0,0.0,0.0,0.0,0.0,0.0,0.0,0.0,0.0,0.0,0.0,0.0,0.0,0.0,0.0,0.0,0.0,0.0,0.0,0.0,0.0,0.0,0.0,0.0,0.0,0.0,0.0,0.0,0.0,0.0,0.0,0.0,0.0,0.0,0.0,0.0,0.0,0.0,0.0,0.0,0.0,0.0,0.0,0.0,0.0,0.0,0.0,0.0,0.0,0.0,0.0,0.0,0.0,0.0,0.0,0.0,0.0,0.0,0.0,0.0,0.0,0.0,0.0,0.0,0.0,0.0,0.0,0.0,0.0,0.0,0.0,0.0,0.0,0.0,0.0,0.0,0.0,0.0,0.0,0.0,0.0,0.0,0.0,0.0,0.0,0.0,0.0,0.0,0.0,0.0,0.0,0.0,0.0,0.0,0.0,0.0,0.0,0.0,0.0,0.0,0.0,0.0,0.0,0.0,0.0,0.0,0.0,0.0,0.0,0.0,0.0,0.0,0.0,0.0,0.0,0.0,0.0,0.0,0.0,0.0,0.0,0.0,0.0,0.0,0.0,0.0,0.0,0.0,0.0,0.0,0.0,0.0,0.0,0.0,0.0,0.0,0.0,0.0,0.0,0.0,0.0,0.0,0.0,0.0,0.0,0.0,0.0,0.0,0.0,0.0,0.0,0.0,0.0,0.0,0.0,0.0,0.0,0.0,0.0,0.0,0.0,0.0,0.0,0.0,0.0,0.0,0.0,0.0,0.0,0.0,0.0,0.0,0.0,0.0,0.0,0.0,0.0,0.0,0.0,0.0,0.0,0.0,0.0,0.0,0.0,0.0,0.0,0.0,0.0,0.0,0.0,0.0,0.0,0.0,0.0,0.0,0.0,0.0,0.0,0.0,0.0,0.0,0.0,0.0,0.0,0.0,0.0,0.0,0.0,0.0,0.0,0.0,0.0,0.0,0.0,0.0,0.0,0.0,0.0,0.0,0.0,0.0,0.0,0.0,0.0,0.0,0.0,0.0,0.0,0.0,0.0,0.0,0.0,0.0,0.0,0.0,0.0,0.0,0.0,0.0,0.0,0.0,0.0,0.0,0.0,0.0,0.0,0.0,0.0,0.0,0.0,0.0,0.0,0.0,0.0,0.0,0.0,0.0,0.0,0.0,0.0,0.0,0.0,0.0,0.0,0.0,0.0,0.0,0.0,0.0,0.0,0.0,0.0,0.0,0.0,0.0,0.0,0.0,0.0,0.0,0.0,0.0,0.0,0.0,0.0,0.0,0.0,0.0,0.0,0.0,0.0,0.0,0.0,0.0,0.0,0.0,0.0,0.0,0.0,0.0,0.0,0.0,0.0,0.0,0.0,0.0,0.0,0.0,0.0,0.0,0.0,0.0,0.0,0.0,0.0,0.0,0.0,0.0,0.0,0.0,0.0,0.0,0.0,0.0,0.0,0.0,0.0,0.0,0.0,0.0,0.0,0.0,0.0,0.0,0.0,0.0,0.0,0.0,0.0,0.0,0.0,0.0,0.0,0.0,0.0,0.0,0.0,0.0,0.0,0.0,0.0,0.0,0.0,0.0,0.0,0.0,0.0,0.0,0.0,0.0,0.0,0.0,0.0,0.0,0.0,0.0,0.0,0.0,0.0,0.0,0.0,0.0,0.0,0.0,0.0,0.0,0.0,0.0,0.0,0.0,0.0,0.0,0.0,0.0,0.0,0.0,0.0,0.0,0.0,0.0,0.0,0.0,0.0,0.0,0.0,0.0,0.0,0.0,0.0,0.0,0.0,0.0,0.0,0.0,0.0,0.0,0.0,0.0,0.0,0.0,0.0,0.0,0.0,0.0,0.0,0.0,0.0,0.0,0.0,0.0,0.0,0.0,0.0,0.0,0.0,0.0,0.0,0.0,0.0,0.0,0.0,0.0,0.0,0.0,0.0,0.0,0.0,0.0,0.0,0.0,0.0,0.0,0.0,0.0,0.0,0.0,0.0,0.0,0.0,0.0,0.0,0.0,0.0,0.0,0.0,0.0,0.0,0.0,0.0,0.0,0.0,0.0,0.0,0.0,0.0,0.0,0.0,0.0,0.0,0.0,0.0,0.0,0.0,0.0,0.0,0.0,0.0,0.0,0.0,0.0,0.0,0.0,0.0,0.0,0.0,0.0,0.0,0.0,0.0,0.0,0.0,0.0,0.0,0.0,0.0,0.0,0.0,0.0,0.0,0.0,0.0,0.0,0.0,0.0,0.0,0.0,0.0,0.0,0.0,0.0,0.0,0.0,0.0,0.0,0.0,0.0,0.0,0.0,0.0,0.0,0.0,0.0,0.0,0.0,0.0,0.0,0.0,0.0,0.0,0.0,0.0,0.0,0.0,0.0,0.0,0.0,0.0,0.0,0.0,0.0,0.0,0.0,0.0,0.0,0.0,0.0,0.0,0.0,0.0,0.0,0.0,0.0,0.0,0.0,0.0,0.0,0.0,0.0,0.0,0.0,0.0,0.0,0.0,0.0,0.0,0.0,0.0,0.0,0.0,0.0,0.0,0.0,0.0,0.0,0.0,0.0,0.0,0.0,0.0,0.0,0.0,0.0,0.0,0.0,0.0,0.0,0.0,0.0,0.0,0.0,0.0,0.0,0.0,0.0,0.0,0.0,0.0,0.0,0.0,0.0,0.0,0.0,0.0,0.0,0.0,0.0,0.0,0.0,0.0,0.0,0.0,0.0,0.0,0.0,0.0,0.0,0.0,0.0,0.0,0.0,0.0,0.0,0.0,0.0,0.0,0.0,0.0,0.0,0.0,0.0,0.0,0.0,0.0,0.0,0.0,0.0,0.0,0.0,0.0,0.0,0.0,0.0,0.0,0.0,0.0,0.0,0.0,0.0,0.0,0.0,0.0,0.0,0.0,0.0,0.0,0.0,0.0,0.0,0.0,0.0,0.0,0.0,0.0,0.0,0.0,0.0,0.0,0.0,0.0,0.0,0.0,0.0,0.0,0.0,0.0,0.0,0.0,0.0,0.0,0.0,0.0,0.0,0.0,0.0,0.0,0.0,0.0,0.0,0.0,0.0,0.0,0.0,0.0,0.0,0.0,0.0,0.0,0.0,0.0,0.0,0.0,0.0,0.0,0.0,0.0,0.0,0.0,0.0,0.0,0.0,0.0,0.0,0.0,0.0,0.0,0.0,0.0,0.0,0.0,0.0,0.0,0.0,0.0,0.0,0.0,0.0,0.0,0.0,0.0,0.0,0.0,0.0,0.0,0.0,0.0,0.0,0.0,0.0,0.0,0.0,0.0,0.0,0.0,0.0,0.0,0.0,0.0,0.0,0.0,0.0,0.0,0.0,0.0,0.0,0.0,0.0,0.0,0.0,0.0,0.0,0.0,0.0,0.0,0.0,0.0,0.0,0.0,0.0,0.0,0.0,0.0,0.0,0.0,0.0,0.0,0.0,0.0,0.0,0.0,0.0,0.0,0.0,0.0,0.0,0.0,0.0,0.0,0.0,0.0,0.0,0.0,0.0,0.0,0.0,0.0,0.0,0.0,0.0,0.0,0.0,0.0,0.0,0.0,0.0,0.0,0.0,0.0,0.0,0.0,0.0,0.0,0.0,0.0,0.0,0.0,0.0,0.0,0.0,0.0,0.0,0.0,0.0,0.0,0.0,0.0,0.0,0.0,0.0,0.0,0.0,0.0,0.0,0.0,0.0,0.0,0.0,0.0,0.0,0.0,0.0,0.0,0.0,0.0,0.0,0.0,0.0,0.0,0.0,0.0,0.0,0.0,0.0,0.0,0.0,0.0,0.0,0.0,0.0,0.0,0.0,0.0,0.0,0.0,0.0,0.0,0.0,0.0,0.0,0.0,0.0,0.0,2.9582,0.0,0.0,0.0,0.0,0.0,0.0,0.0,0.0,0.0,0.0,0.0,0.0,0.0,0.0,0.0,0.0,0.0,0.0,0.0,0.0,0.0,0.0,0.0,0.0,0.0,0.0,0.0,0.0,0.0,0.0,0.0,0.0,0.0,0.0,0.0,0.0,0.0,0.0,0.0,0.0,0.0,0.0,0.0,0.0,0.0,0.0,0.0,0.0,0.0,0.0,0.0,0.0,0.0,0.0,0.0,0.0,0.0,0.0,0.0,0.0,0.0,0.0,0.0,0.0,0.0,0.0,0.0,0.0,0.0,0.0,0.0,0.0,0.0,0.0,0.0,0.0,0.0,0.0,0.0,0.0,0.0,0.0,0.0,0.0,0.0,0.0,0.0,0.0,0.0,0.0,0.0,0.0,0.0,0.0,0.0,0.0,0.0,0.0,0.0,0.0,0.0,0.0,0.0,0.0,0.0,0.0,0.0,0.0,0.0,0.0,2.9059,2.9229,2.9344,2.9525,2.9683,0.0,0.0,0.0,0.0,0.0,0.0,0.0,0.0,0.0,0.0,0.0,0.0,0.0,0.0,0.0,0.0,0.0,0.0,0.0,0.0,0.0,0.0,0.0,0.0,0.0,0.0,0.0,0.0,0.0,0.0,0.0,0.0,0.0,0.0,0.0,0.0,0.0,0.0,0.0,0.0,0.0,0.0,0.0,0.0,0.0,0.0,0.0,0.0,0.0,0.0,0.0,0.0,0.0,0.0,0.0,0.0,0.0,0.0,0.0,0.0,0.0,0.0,0.0,0.0,0.0,0.0,0.0,0.0,0.0,0.0,0.0,0.0,0.0,0.0,0.0,0.0,0.0,0.0,0.0,0.0,0.0,0.0,0.0,0.0,0.0,0.0,0.0,0.0,0.0,0.0,0.0,0.0,0.0,0.0,0.0,0.0,0.0,0.0,0.0,0.0,0.0,0.0,0.0,0.0,0.0,0.0,0.0,0.0,0.0,0.0,0.0,0.0,2.9457,2.9614,2.9782,0.0,0.0,0.0,0.0,0.0,0.0,0.0,0.0,0.0,0.0,0.0,0.0,0.0,0.0,0.0,0.0,0.0,0.0,0.0,0.0,0.0,0.0,0.0,0.0,0.0,0.0,0.0,0.0,0.0,0.0,0.0,0.0,0.0,0.0,0.0,0.0,0.0,0.0,0.0,0.0,0.0,0.0,0.0,0.0,0.0,0.0,0.0,0.0,0.0,0.0,0.0,0.0,0.0,0.0,0.0,0.0,0.0,0.0,0.0,0.0,0.0,0.0,0.0,0.0,0.0,0.0,0.0,0.0,0.0,0.0,0.0,0.0,0.0,0.0,0.0,0.0,0.0,0.0,0.0,0.0,0.0,0.0,0.0,0.0,0.0,0.0,0.0,0.0,0.0,0.0,0.0,0.0,0.0,0.0,0.0,0.0,0.0,0.0,0.0,0.0,0.0,0.0,0.0,0.0,0.0,0.0,0.0,0.0,0.0,0.0,2.9289,2.9289,2.9547,0.0,2.9736,0.0,0.0,0.0,0.0,0.0,0.0,0.0,0.0,0.0,0.0,0.0,0.0,0.0,0.0,0.0,0.0,0.0,0.0,0.0,0.0,0.0,0.0,0.0,0.0,0.0,0.0,0.0,0.0,0.0,0.0,0.0,0.0,0.0,0.0,0.0,0.0,0.0,0.0,0.0,0.0,0.0,0.0,0.0,0.0,0.0,0.0,0.0,0.0,0.0,0.0,0.0,0.0,0.0,0.0,0.0,0.0,0.0,0.0,0.0,0.0,0.0,0.0,0.0,0.0,0.0,0.0,0.0,0.0,0.0,0.0,0.0,0.0,0.0,0.0,0.0,0.0,0.0,0.0,0.0,0.0,0.0,0.0,0.0,0.0,0.0,0.0,0.0,0.0,0.0,0.0,0.0,0.0,0.0,0.0,0.0,0.0,0.0,0.0,0.0,0.0,0.0,0.0,0.0,0.0,0.0,0.0,0.0,0.0,0.0,0.0,3.0018,3.0124,3.0248,3.0293,0.0,0.0,0.0,0.0,0.0,0.0,0.0,0.0,0.0,0.0,0.0,0.0,0.0,0.0,0.0,0.0,0.0,0.0,0.0,0.0,0.0,0.0,0.0,0.0,0.0,0.0,0.0,0.0,0.0,0.0,0.0,0.0,0.0,0.0,0.0,0.0,0.0,0.0,0.0,0.0,0.0,0.0,0.0,0.0,0.0,0.0,0.0,0.0,0.0,0.0,0.0,0.0,0.0,0.0,0.0,0.0,0.0,0.0,0.0,0.0,0.0,0.0,0.0,0.0,0.0,0.0,0.0,0.0,0.0,0.0,0.0,0.0,0.0,0.0,0.0,0.0,0.0,0.0,0.0,0.0,0.0,0.0,0.0,0.0,0.0,0.0,0.0,0.0,0.0,0.0,0.0,0.0,0.0,0.0,0.0,0.0,0.0,0.0,0.0,0.0,0.0,0.0,0.0,0.0,0.0,0.0,0.0,0.0,0.0,0.0,3.0345,3.087,3.1048,3.0854,3.0757,3.0803,0.0,0.0,0.0,0.0,0.0,0.0,0.0,0.0,0.0,0.0,0.0,0.0,0.0,0.0,0.0,0.0,0.0,0.0,0.0,0.0,0.0,0.0,0.0,0.0,0.0,0.0,0.0,0.0,0.0,0.0,0.0,0.0,0.0,0.0,0.0,0.0,0.0,0.0,0.0,0.0,0.0,0.0,0.0,0.0,0.0,0.0,0.0,0.0,0.0,0.0,0.0,0.0,0.0,0.0,0.0,0.0,0.0,0.0,0.0,0.0,0.0,0.0,0.0,0.0,0.0,0.0,0.0,0.0,0.0,0.0,0.0,0.0,0.0,0.0,0.0,0.0,0.0,0.0,0.0,0.0,0.0,0.0,0.0,0.0,0.0,0.0,0.0,0.0,0.0,0.0,0.0,0.0,0.0,0.0,0.0,0.0,0.0,0.0,0.0,0.0,0.0,0.0,0.0,0.0,0.0,0.0,0.0,0.0,3.0386,3.115,3.167,3.194,3.1292,3.095,0.0,0.0,0.0,0.0,0.0,0.0,0.0,0.0,0.0,0.0,0.0,0.0,0.0,0.0,0.0,0.0,0.0,0.0,0.0,0.0,0.0,0.0,0.0,0.0,0.0,0.0,0.0,0.0,0.0,0.0,0.0,0.0,0.0,0.0,0.0,0.0,0.0,0.0,0.0,0.0,0.0,0.0,0.0,0.0,0.0,0.0,0.0,0.0,0.0,0.0,0.0,0.0,0.0,0.0,0.0,0.0,0.0,0.0,0.0,0.0,0.0,0.0,0.0,0.0,0.0,0.0,0.0,0.0,0.0,0.0,0.0,0.0,0.0,0.0,0.0,0.0,0.0,0.0,0.0,0.0,0.0,0.0,0.0,0.0,0.0,0.0,0.0,0.0,0.0,0.0,0.0,0.0,0.0,0.0,0.0,0.0,0.0,0.0,0.0,0.0,0.0,0.0,0.0,0.0,0.0,0.0,0.0,0.0,0.0,3.1214,3.2104,3.2805,3.3291,3.2715,3.2178,0.0,0.0,0.0,0.0,0.0,0.0,0.0,0.0,0.0,0.0,0.0,0.0,0.0,0.0,0.0,0.0,0.0,0.0,0.0,0.0,0.0,0.0,0.0,0.0,0.0,0.0,0.0,0.0,0.0,0.0,0.0,0.0,0.0,0.0,0.0,0.0,0.0,0.0,0.0,0.0,0.0,0.0,0.0,0.0,0.0,0.0,0.0,0.0,0.0,0.0,0.0,0.0,0.0,0.0,0.0,0.0,0.0,0.0,0.0,0.0,0.0,0.0,0.0,0.0,0.0,0.0,0.0,0.0,0.0,0.0,0.0,0.0,0.0,0.0,0.0,0.0,0.0,0.0,0.0,0.0,0.0,0.0,0.0,0.0,0.0,0.0,0.0,0.0,0.0,0.0,0.0,0.0,0.0,0.0,0.0,0.0,0.0,0.0,0.0,0.0,0.0,0.0,0.0,0.0,0.0,0.0,0.0,0.0,0.0,3.236,0.0,3.3672,3.4111,3.351,3.2923,0.0,0.0,0.0,0.0,0.0,0.0,0.0,0.0,0.0,0.0,0.0,0.0,0.0,0.0,0.0,0.0,0.0,0.0,0.0,0.0,0.0,0.0,0.0,0.0,0.0,0.0,0.0,0.0,0.0,0.0,0.0,0.0,0.0,0.0,0.0,0.0,0.0,0.0,0.0,0.0,0.0,0.0,0.0,0.0,0.0,0.0,0.0,0.0,0.0,0.0,0.0,0.0,0.0,0.0,0.0,0.0,0.0,0.0,0.0,0.0,0.0,0.0,0.0,0.0,0.0,0.0,0.0,0.0,0.0,0.0,0.0,0.0,0.0,0.0,0.0,0.0,0.0,0.0,0.0,0.0,0.0,0.0,0.0,0.0,0.0,0.0,0.0,0.0,0.0,0.0,0.0,0.0,0.0,0.0,0.0,0.0,0.0,0.0,0.0,0.0,0.0,0.0,0.0,0.0,0.0,0.0,0.0,0.0,3.309,3.3834,3.3993,3.4143,3.4267,3.3616,3.3018,0.0,0.0,0.0,0.0,0.0,0.0,0.0,0.0,0.0,0.0,0.0,0.0,0.0,0.0,0.0,0.0,0.0,0.0,0.0,0.0,0.0,0.0,0.0,0.0,0.0,0.0,0.0,0.0,0.0,0.0,0.0,0.0,0.0,0.0,0.0,0.0,0.0,0.0,0.0,0.0,0.0,0.0,0.0,0.0,0.0,0.0,0.0,0.0,0.0,0.0,0.0,0.0,0.0,0.0,0.0,0.0,0.0,0.0,0.0,0.0,0.0,0.0,0.0,0.0,0.0,0.0,0.0,0.0,0.0,0.0,0.0,0.0,0.0,0.0,0.0,0.0,0.0,0.0,0.0,0.0,0.0,0.0,0.0,0.0,0.0,0.0,0.0,0.0,0.0,0.0,0.0,0.0,0.0,0.0,0.0,0.0,0.0,0.0,0.0,0.0,0.0,0.0,0.0,0.0,0.0,0.0,0.0,0.0,0.0,3.4025,3.4075,3.4176,3.43,3.417,3.3833,0.0,0.0,0.0,0.0,0.0,0.0,0.0,0.0,0.0,0.0,0.0,0.0,0.0,0.0,0.0,0.0,0.0,0.0,0.0,0.0,0.0,0.0,0.0,0.0,0.0,0.0,0.0,0.0,0.0,0.0,0.0,0.0,0.0,0.0,0.0,0.0,0.0,0.0,0.0,0.0,0.0,0.0,0.0,0.0,0.0,0.0,0.0,0.0,0.0,0.0,0.0,0.0,0.0,0.0,0.0,0.0,0.0,0.0,0.0,0.0,0.0,0.0,0.0,0.0,0.0,0.0,0.0,0.0,0.0,0.0,0.0,0.0,0.0,0.0,0.0,0.0,0.0,0.0,0.0,0.0,0.0,0.0,0.0,0.0,0.0,0.0,0.0,0.0,0.0,0.0,0.0,0.0,0.0,0.0,0.0,0.0,0.0,0.0,0.0,0.0,0.0,0.0,0.0,0.0,0.0,0.0,0.0,0.0,0.0,3.5402,3.5065,3.4987,3.5158,3.5004,3.466,3.4103,0.0,0.0,0.0,0.0,0.0,0.0,0.0,0.0,0.0,0.0,0.0,0.0,0.0,0.0,0.0,0.0,0.0,0.0,0.0,0.0,0.0,0.0,0.0,0.0,0.0,0.0,0.0,0.0,0.0,0.0,0.0,0.0,0.0,0.0,0.0,0.0,0.0,0.0,0.0,0.0,0.0,0.0,0.0,0.0,0.0,0.0,0.0,0.0,0.0,0.0,0.0,0.0,0.0,0.0,0.0,0.0,0.0,0.0,0.0,0.0,0.0,0.0,0.0,0.0,0.0,0.0,0.0,0.0,0.0,0.0,0.0,0.0,0.0,0.0,0.0,0.0,0.0,0.0,0.0,0.0,0.0,0.0,0.0,0.0,0.0,0.0,0.0,0.0,0.0,0.0,0.0,0.0,0.0,0.0,0.0,0.0,0.0,0.0,0.0,0.0,0.0,0.0,0.0,0.0,0.0,0.0,0.0,0.0,3.7644,3.6929,3.6625,3.6751,3.6095,3.5498,0.0,0.0,0.0,0.0,0.0,0.0,0.0,0.0,0.0,0.0,0.0,0.0,0.0,0.0,0.0,0.0,0.0,0.0,0.0,0.0,0.0,0.0,0.0,0.0,0.0,0.0,0.0,0.0,0.0,0.0,0.0,0.0,0.0,0.0,0.0,0.0,0.0,0.0,0.0,0.0,0.0,0.0,0.0,0.0,0.0,0.0,0.0,0.0,0.0,0.0,0.0,0.0,0.0,0.0,0.0,0.0,0.0,0.0,0.0,0.0,0.0,0.0,0.0,0.0,0.0,0.0,0.0,0.0,0.0,0.0,0.0,0.0,0.0,0.0,0.0,0.0,0.0,0.0,0.0,0.0,0.0,0.0,0.0,0.0,0.0,0.0,0.0,0.0,0.0,0.0,0.0,0.0,0.0,0.0,0.0,0.0,0.0,0.0,0.0,0.0,0.0,0.0,0.0,0.0,0.0,0.0,0.0,0.0,0.0,3.8334,3.9271,3.9088,3.7735,3.7472,3.6825,0.0,0.0,0.0,0.0,0.0,0.0,0.0,0.0,0.0,0.0,0.0,0.0,0.0,0.0,0.0,0.0,0.0,0.0,0.0,0.0,0.0,0.0,0.0,0.0,0.0,0.0,0.0,0.0,0.0,0.0,0.0,0.0,0.0,0.0,0.0,0.0,0.0,0.0,0.0,0.0,0.0,0.0,0.0,0.0,0.0,0.0,0.0,0.0,0.0,0.0,0.0,0.0,0.0,0.0,0.0,0.0,0.0,0.0,0.0,0.0,0.0,0.0,0.0,0.0,0.0,0.0,0.0,0.0,0.0,0.0,0.0,0.0,0.0,0.0,0.0,0.0,0.0,0.0,0.0,0.0,0.0,0.0,0.0,0.0,0.0,0.0,0.0,0.0,0.0,0.0,0.0,0.0,0.0,0.0,0.0,0.0,0.0,0.0,0.0,0.0,0.0,0.0,0.0,0.0,0.0,0.0,0.0,0.0,3.8851,3.9593,4.1234,4.1379,3.9913,3.8935,3.7939,0.0,0.0,0.0,0.0,0.0,0.0,0.0,0.0,0.0,0.0,0.0,0.0,0.0,0.0,0.0,0.0,0.0,0.0,0.0,0.0,0.0,0.0,0.0,0.0,0.0,0.0,0.0,0.0,0.0,0.0,0.0,0.0,0.0,0.0,0.0,0.0,0.0,0.0,0.0,0.0,0.0,0.0,0.0,0.0,0.0,0.0,0.0,0.0,0.0,0.0,0.0,0.0,0.0,0.0,0.0,0.0,0.0,0.0,0.0,0.0,0.0,0.0,0.0,0.0,0.0,0.0,0.0,0.0,0.0,0.0,0.0,0.0,0.0,0.0,0.0,0.0,0.0,0.0,0.0,0.0,0.0,0.0,0.0,0.0,0.0,0.0,0.0,0.0,0.0,0.0,0.0,0.0,0.0,0.0,0.0,0.0,0.0,0.0,0.0,0.0,0.0,0.0,0.0,0.0,0.0,0.0,0.0,0.0,4.0094,4.1053,4.2664,4.3238,4.2572,4.0441,3.8896,0.0,0.0,0.0,0.0,0.0,0.0,0.0,0.0,0.0,0.0,0.0,0.0,0.0,0.0,0.0,0.0,0.0,0.0,0.0,0.0,0.0,0.0,0.0,0.0,0.0,0.0,0.0,0.0,0.0,0.0,0.0,0.0,0.0,0.0,0.0,0.0,0.0,0.0,0.0,0.0,0.0,0.0,0.0,0.0,0.0,0.0,0.0,0.0,0.0,0.0,0.0,0.0,0.0,0.0,0.0,0.0,0.0,0.0,0.0,0.0,0.0,0.0,0.0,0.0,0.0,0.0,0.0,0.0,0.0,0.0,0.0,0.0,0.0,0.0,0.0,0.0,0.0,0.0,0.0,0.0,0.0,0.0,0.0,0.0,0.0,0.0,0.0,0.0,0.0,0.0,0.0,0.0,0.0,0.0,0.0,0.0,0.0,0.0,0.0,0.0,0.0,0.0,0.0,0.0,0.0,0.0,0.0,0.0,3.9849,4.1348,4.2505,4.3171,4.3367,4.1749,4.0029,0.0,0.0,0.0,0.0,0.0,0.0,0.0,0.0,0.0,0.0,0.0,0.0,0.0,0.0,0.0,0.0,0.0,0.0,0.0,0.0,0.0,0.0,0.0,0.0,0.0,0.0,0.0,0.0,0.0,0.0,0.0,0.0,0.0,0.0,0.0,0.0,0.0,0.0,0.0,0.0,0.0,0.0,0.0,0.0,0.0,0.0,0.0,0.0,3.3549,0.0,0.0,0.0,0.0,0.0,0.0,0.0,0.0,0.0,0.0,0.0,0.0,0.0,0.0,0.0,0.0,0.0,0.0,0.0,0.0,0.0,0.0,0.0,0.0,0.0,0.0,0.0,0.0,0.0,0.0,0.0,0.0,0.0,0.0,0.0,0.0,0.0,0.0,0.0,0.0,0.0,0.0,0.0,0.0,0.0,0.0,0.0,0.0,0.0,0.0,0.0,0.0,0.0,0.0,0.0,0.0,0.0,0.0,0.0,4.0057,4.1454,4.2416,4.3115,4.3535,4.2506,4.0912,0.0,0.0,0.0,0.0,0.0,0.0,0.0,0.0,0.0,0.0,0.0,0.0,0.0,0.0,0.0,0.0,0.0,0.0,0.0,0.0,0.0,0.0,0.0,0.0,0.0,0.0,0.0,0.0,0.0,0.0,0.0,0.0,0.0,0.0,0.0,0.0,0.0,0.0,0.0,0.0,0.0,0.0,0.0,0.0,0.0,0.0,0.0,0.0,0.0,0.0,0.0,0.0,0.0,0.0,0.0,0.0,0.0,0.0,0.0,0.0,0.0,0.0,0.0,0.0,0.0,0.0,0.0,0.0,0.0,0.0,0.0,0.0,0.0,0.0,0.0,0.0,0.0,0.0,0.0,0.0,0.0,0.0,0.0,0.0,0.0,0.0,0.0,0.0,0.0,0.0,0.0,0.0,0.0,0.0,0.0,0.0,0.0,0.0,0.0,0.0,0.0,0.0,0.0,0.0,0.0,0.0,0.0,3.8932,4.0227,4.143,4.2325,4.3023,4.3446,4.2741,4.1375,3.9381,0.0,0.0,0.0,0.0,0.0,0.0,0.0,0.0,0.0,0.0,0.0,0.0,0.0,0.0,0.0,0.0,0.0,0.0,0.0,0.0,0.0,0.0,0.0,0.0,0.0,0.0,0.0,0.0,0.0,0.0,0.0,0.0,0.0,0.0,0.0,0.0,0.0,0.0,3.2085,3.4672,0.0,0.0,0.0,0.0,0.0,0.0,0.0,0.0,3.6095,0.0,0.0,0.0,0.0,0.0,0.0,0.0,0.0,0.0,0.0,0.0,0.0,0.0,0.0,0.0,0.0,0.0,0.0,0.0,0.0,0.0,0.0,0.0,0.0,0.0,0.0,0.0,0.0,0.0,0.0,0.0,0.0,0.0,0.0,0.0,0.0,0.0,0.0,0.0,0.0,0.0,0.0,0.0,0.0,0.0,0.0,0.0,0.0,0.0,0.0,0.0,0.0,0.0,0.0,0.0,0.0,3.7904,3.8621,3.9748,4.1302,4.1917,4.246,4.2959,4.2071,4.0878,3.9381,0.0,0.0,0.0,0.0,0.0,0.0,0.0,0.0,0.0,0.0,0.0,0.0,0.0,0.0,0.0,0.0,0.0,0.0,0.0,0.0,0.0,0.0,0.0,0.0,0.0,0.0,0.0,0.0,0.0,0.0,0.0,0.0,0.0,0.0,0.0,0.0,0.0,0.0,0.0,3.6509,3.7801,0.0,0.0,0.0,0.0,0.0,0.0,0.0,0.0,3.7046,0.0,0.0,0.0,0.0,0.0,0.0,0.0,0.0,0.0,0.0,0.0,0.0,0.0,0.0,0.0,0.0,0.0,0.0,0.0,0.0,0.0,0.0,0.0,0.0,0.0,0.0,0.0,0.0,0.0,0.0,0.0,0.0,0.0,0.0,0.0,0.0,0.0,0.0,0.0,0.0,0.0,0.0,0.0,0.0,0.0,0.0,0.0,0.0,0.0,0.0,0.0,0.0,0.0,0.0,0.0,3.8403,3.9117,4.0089,4.1393,4.198,4.2492,4.299,4.2301,4.1309,0.0,0.0,0.0,0.0,0.0,0.0,0.0,0.0,0.0,0.0,0.0,0.0,0.0,0.0,0.0,0.0,0.0,0.0,0.0,0.0,0.0,0.0,0.0,0.0,0.0,0.0,0.0,0.0,0.0,0.0,0.0,0.0,0.0,0.0,0.0,0.0,0.0,0.0,0.0,0.0,3.8272,3.9421,3.9846,0.0,0.0,0.0,0.0,0.0,0.0,3.8952,3.8494,0.0,0.0,0.0,0.0,0.0,0.0,0.0,0.0,0.0,0.0,0.0,0.0,0.0,0.0,0.0,0.0,0.0,0.0,0.0,0.0,0.0,0.0,0.0,0.0,0.0,0.0,0.0,0.0,0.0,0.0,0.0,0.0,0.0,0.0,0.0,0.0,0.0,0.0,0.0,0.0,0.0,0.0,0.0,0.0,0.0,0.0,0.0,0.0,0.0,0.0,0.0,0.0,0.0,0.0,0.0,3.9152,3.9771,4.0653,4.168,4.2269,4.2716,4.3052,4.2499,4.1579,0.0,0.0,0.0,0.0,0.0,0.0,0.0,0.0,0.0,0.0,0.0,0.0,0.0,0.0,0.0,0.0,0.0,0.0,0.0,0.0,0.0,0.0,0.0,0.0,0.0,0.0,0.0,0.0,0.0,0.0,0.0,0.0,0.0,0.0,0.0,0.0,0.0,0.0,0.0,0.0,0.0,4.1069,4.1024,4.1418,0.0,0.0,0.0,0.0,4.07,4.0617,0.0,0.0,0.0,0.0,0.0,0.0,0.0,0.0,0.0,0.0,0.0,0.0,0.0,0.0,0.0,0.0,0.0,0.0,0.0,0.0,0.0,0.0,0.0,0.0,0.0,0.0,0.0,0.0,0.0,0.0,0.0,0.0,0.0,0.0,0.0,0.0,0.0,0.0,0.0,0.0,0.0,0.0,0.0,0.0,0.0,0.0,0.0,0.0,0.0,0.0,0.0,0.0,0.0,0.0,0.0,0.0,3.9774,4.0251,4.1,4.2202,4.2739,4.2977,4.2899,4.1891,4.0767,0.0,0.0,0.0,0.0,0.0,0.0,0.0,0.0,0.0,0.0,0.0,0.0,0.0,0.0,0.0,0.0,0.0,0.0,0.0,0.0,0.0,0.0,0.0,0.0,0.0,0.0,0.0,0.0,0.0,0.0,0.0,0.0,0.0,0.0,0.0,0.0,0.0,0.0,0.0,0.0,0.0,4.2393,4.3786,4.3963,4.3646,0.0,0.0,4.3059,4.3655,4.3733,0.0,0.0,0.0,0.0,0.0,0.0,0.0,0.0,0.0,0.0,0.0,0.0,0.0,0.0,0.0,0.0,0.0,0.0,0.0,0.0,0.0,0.0,0.0,0.0,0.0,0.0,0.0,0.0,0.0,0.0,0.0,0.0,0.0,0.0,0.0,0.0,0.0,0.0,0.0,0.0,0.0,0.0,0.0,0.0,0.0,0.0,0.0,0.0,0.0,0.0,0.0,0.0,0.0,0.0,0.0,3.7436,3.94,4.0628,4.1275,4.1489,4.2343,4.2583,4.2174,4.1286,4.0177,0.0,0.0,0.0,0.0,0.0,0.0,0.0,0.0,0.0,0.0,0.0,0.0,0.0,0.0,0.0,0.0,0.0,0.0,0.0,0.0,0.0,0.0,0.0,0.0,0.0,0.0,0.0,0.0,0.0,0.0,0.0,0.0,0.0,0.0,0.0,0.0,0.0,0.0,0.0,0.0,0.0,0.0,4.387,4.4558,0.0,0.0,0.0,4.4715,4.5104,0.0,0.0,0.0,0.0,0.0,0.0,0.0,0.0,0.0,0.0,0.0,0.0,0.0,0.0,0.0,0.0,0.0,0.0,0.0,0.0,0.0,0.0,0.0,0.0,0.0,0.0,0.0,0.0,0.0,0.0,0.0,0.0,0.0,0.0,0.0,0.0,0.0,0.0,0.0,0.0,0.0,0.0,0.0,0.0,0.0,0.0,0.0,0.0,0.0,0.0,0.0,0.0,0.0,0.0,0.0,0.0,0.0,3.9494,4.1159,4.1837,4.1479,4.2294,4.2507,4.1916,4.1012,0.0,0.0,0.0,0.0,0.0,0.0,0.0,0.0,0.0,0.0,0.0,0.0,0.0,0.0,0.0,0.0,0.0,0.0,0.0,0.0,0.0,0.0,0.0,0.0,0.0,0.0,0.0,3.084,0.0,0.0,0.0,0.0,0.0,0.0,0.0,0.0,0.0,0.0,0.0,0.0,0.0,0.0,4.45,4.4347,4.552,4.5961,0.0,0.0,4.6307,4.6031,4.5771,4.5416,0.0,0.0,0.0,0.0,0.0,0.0,0.0,0.0,0.0,0.0,0.0,0.0,0.0,0.0,0.0,0.0,0.0,0.0,0.0,0.0,0.0,0.0,0.0,0.0,0.0,0.0,0.0,0.0,0.0,0.0,0.0,0.0,0.0,0.0,0.0,0.0,0.0,0.0,0.0,0.0,0.0,0.0,0.0,0.0,0.0,0.0,0.0,0.0,0.0,0.0,0.0,0.0,0.0,0.0,0.0,4.08,4.1979,4.27,4.3099,4.32,4.3117,4.2808,4.1318,4.0388,0.0,0.0,0.0,0.0,0.0,0.0,0.0,0.0,0.0,0.0,0.0,0.0,0.0,0.0,0.0,0.0,0.0,0.0,0.0,0.0,0.0,0.0,0.0,0.0,0.0,0.0,0.0,0.0,0.0,0.0,0.0,0.0,0.0,0.0,0.0,0.0,0.0,0.0,0.0,0.0,0.0,4.5622,4.6438,4.7713,4.8321,0.0,0.0,4.8114,4.6761,4.7631,4.732,4.3931,0.0,0.0,0.0,0.0,0.0,0.0,0.0,0.0,0.0,0.0,0.0,0.0,0.0,0.0,0.0,0.0,0.0,0.0,0.0,0.0,0.0,0.0,0.0,0.0,0.0,0.0,0.0,0.0,0.0,0.0,0.0,0.0,0.0,0.0,0.0,0.0,0.0,0.0,0.0,0.0,0.0,0.0,0.0,0.0,0.0,0.0,0.0,0.0,0.0,0.0,0.0,0.0,0.0,3.8777,4.0398,4.1855,4.2494,4.2271,4.2718,4.2563,4.162,4.0483,3.9768,0.0,0.0,0.0,0.0,0.0,0.0,0.0,0.0,0.0,0.0,0.0,0.0,0.0,0.0,0.0,0.0,0.0,0.0,0.0,0.0,0.0,0.0,0.0,0.0,0.0,0.0,0.0,0.0,3.4218,3.4898,3.5387,0.0,0.0,0.0,0.0,0.0,0.0,0.0,0.0,0.0,0.0,4.6558,4.7373,4.8232,0.0,0.0,4.8293,4.8603,4.8017,4.772,4.7133,4.6006,4.4561,0.0,0.0,0.0,0.0,0.0,0.0,0.0,0.0,0.0,0.0,0.0,0.0,0.0,0.0,0.0,0.0,0.0,0.0,0.0,0.0,0.0,0.0,0.0,0.0,0.0,0.0,0.0,0.0,0.0,0.0,0.0,0.0,0.0,0.0,0.0,0.0,0.0,0.0,0.0,0.0,0.0,0.0,0.0,0.0,0.0,0.0,0.0,0.0,0.0,0.0,0.0,0.0,3.9057,4.0616,4.1948,4.2355,4.1925,4.2433,4.2248,4.1187,4.0387,3.9906,0.0,0.0,0.0,0.0,0.0,0.0,0.0,0.0,0.0,0.0,0.0,0.0,0.0,0.0,0.0,0.0,0.0,0.0,0.0,0.0,0.0,0.0,0.0,0.0,0.0,0.0,0.0,0.0,3.5036,3.5732,3.6249,0.0,0.0,0.0,0.0,0.0,0.0,0.0,0.0,0.0,0.0,4.7353,4.808,4.8756,4.8947,4.8493,4.8838,4.9051,4.8844,4.7934,4.7224,4.7105,0.0,0.0,0.0,0.0,0.0,0.0,0.0,0.0,0.0,0.0,0.0,0.0,0.0,0.0,0.0,0.0,0.0,0.0,0.0,0.0,0.0,0.0,0.0,0.0,0.0,0.0,0.0,0.0,0.0,0.0,3.3429,0.0,0.0,0.0,0.0,0.0,0.0,0.0,0.0,0.0,0.0,0.0,0.0,0.0,0.0,0.0,0.0,0.0,0.0,0.0,0.0,0.0,0.0,3.9961,4.2018,4.2412,4.2602,4.2602,4.2602,4.242,4.2044,4.1342,4.1069,4.1229,0.0,0.0,0.0,0.0,0.0,0.0,0.0,0.0,0.0,0.0,0.0,0.0,0.0,0.0,0.0,0.0,0.0,0.0,0.0,0.0,0.0,0.0,0.0,0.0,0.0,0.0,3.509,3.5835,3.6284,0.0,0.0,0.0,0.0,0.0,0.0,0.0,0.0,0.0,0.0,4.6781,4.7976,4.8672,4.9493,4.9942,4.9942,4.9942,4.9671,4.8947,4.8661,4.8003,0.0,0.0,0.0,0.0,0.0,0.0,0.0,0.0,0.0,0.0,0.0,0.0,0.0,0.0,0.0,0.0,0.0,0.0,0.0,0.0,0.0,0.0,0.0,0.0,0.0,0.0,0.0,3.5095,3.5399,0.0,0.0,0.0,0.0,0.0,0.0,0.0,0.0,0.0,0.0,0.0,3.8865,3.9365,0.0,0.0,0.0,0.0,0.0,0.0,0.0,0.0,0.0,0.0,0.0,0.0,3.9992,4.2018,4.2443,4.2817,4.3217,4.2926,4.2497,4.1943,4.0884,3.9944,3.9174,0.0,0.0,0.0,0.0,0.0,0.0,0.0,0.0,0.0,0.0,0.0,0.0,0.0,0.0,0.0,0.0,0.0,0.0,0.0,0.0,0.0,0.0,0.0,0.0,0.0,3.4738,0.0,0.0,0.0,0.0,0.0,0.0,0.0,0.0,0.0,0.0,0.0,4.4482,4.6685,4.7886,4.8819,4.9493,4.9838,5.0011,0.0,0.0,0.0,0.0,0.0,0.0,0.0,0.0,0.0,0.0,0.0,0.0,0.0,0.0,4.2887,4.1399,4.0509,3.9984,3.9984,0.0,0.0,0.0,0.0,0.0,0.0,0.0,0.0,0.0,0.0,0.0,0.0,0.0,0.0,0.0,0.0,3.7831,0.0,0.0,0.0,0.0,0.0,0.0,0.0,0.0,4.0059,4.0492,4.0842,4.1379,4.1293,0.0,4.0657,3.9376,0.0,0.0,0.0,0.0,0.0,0.0,0.0,0.0,4.0366,4.2361,4.2566,4.291,4.3531,4.3019,4.2519,4.2084,4.1175,4.0223,3.9235,3.8909,3.7926,0.0,0.0,0.0,0.0,0.0,0.0,0.0,0.0,0.0,0.0,0.0,0.0,0.0,0.0,0.0,0.0,0.0,0.0,0.0,0.0,0.0,0.0,0.0,3.5674,0.0,0.0,0.0,0.0,0.0,0.0,0.0,0.0,0.0,4.3222,4.463,4.6246,4.7928,4.8854,4.951,4.9942,0.0,0.0,0.0,0.0,0.0,0.0,0.0,4.9061,4.8485,4.771,4.7402,4.789,4.8095,4.8031,4.7565,0.0,0.0,4.4059,4.3264,4.2932,4.2932,4.2932,4.2932,4.2932,4.2568,4.227,0.0,0.0,0.0,0.0,0.0,0.0,0.0,0.0,3.8031,3.8788,0.0,3.9308,0.0,0.0,0.0,0.0,0.0,0.0,0.0,0.0,4.1523,4.2204,4.2793,4.3003,4.2798,4.2143,4.1659,4.0908,3.9963,3.8433,0.0,0.0,0.0,0.0,0.0,0.0,4.1021,4.2985,4.2783,4.2971,4.3593,4.2971,4.2585,4.2498,4.2138,4.1734,4.1361,4.069,3.9692,3.8302,3.6812,0.0,0.0,0.0,0.0,0.0,0.0,0.0,0.0,0.0,0.0,0.0,0.0,0.0,0.0,0.0,0.0,0.0,0.0,0.0,0.0,3.5949,0.0,0.0,0.0,0.0,0.0,0.0,0.0,0.0,0.0,0.0,4.565,4.6823,4.8038,4.8938,0.0,0.0,0.0,0.0,5.0045,5.008,5.07,5.1149,5.1149,5.0758,5.0116,4.9249,0.0,0.0,4.9028,4.9723,5.0187,5.0187,4.9525,4.8465,4.6344,4.5847,4.5781,4.5814,4.5781,4.5847,4.5847,4.5682,4.5682,4.0413,0.0,0.0,0.0,0.0,3.8071,3.9061,4.0547,4.0547,4.0956,4.1663,4.1407,0.0,0.0,0.0,0.0,0.0,0.0,4.2019,4.2235,4.2808,4.3204,4.3353,4.392,4.3834,4.3184,4.3113,4.247,4.1317,4.093,3.997,3.8528,0.0,0.0,0.0,0.0,4.1348,4.2802,4.3179,4.3655,4.4302,4.3187,4.2088,4.1124,4.1262,4.1151,4.0765,4.0515,4.0087,3.9429,3.7734,0.0,0.0,0.0,0.0,0.0,0.0,0.0,0.0,0.0,0.0,0.0,0.0,0.0,0.0,0.0,0.0,0.0,0.0,0.0,3.5915,3.6375,3.7003,0.0,0.0,0.0,0.0,0.0,0.0,0.0,0.0,0.0,4.848,4.8114,4.8183,0.0,0.0,5.0183,5.0705,5.0804,5.0976,5.1528,0.0,0.0,0.0,5.1695,5.1319,5.0672,5.0459,5.0322,4.9955,5.0485,5.0817,5.032,5.0055,4.9657,4.9094,4.8067,4.7438,4.7371,4.7371,4.7371,4.7371,4.7371,4.7371,4.3907,4.0891,4.0117,3.995,4.0269,4.0722,4.1475,4.2404,4.2793,4.2995,4.3011,4.2932,4.2278,4.1212,4.114,0.0,0.0,0.0,4.2948,4.3226,4.3482,4.3747,4.4024,4.4425,4.4394,4.3994,4.3865,4.3345,4.2504,4.2505,4.1897,4.0714,0.0,0.0,4.0595,4.1013,4.1868,4.3133,4.3451,4.3932,4.4579,4.3426,4.2209,4.1016,4.129,4.1464,4.1342,4.1365,4.1179,4.0758,3.9177,3.7852,0.0,0.0,0.0,0.0,0.0,0.0,0.0,0.0,0.0,0.0,0.0,3.2627,3.3262,0.0,0.0,0.0,3.4633,3.5776,3.7181,3.7559,0.0,0.0,0.0,0.0,0.0,0.0,0.0,4.5788,4.689,4.8112,4.9746,4.9619,4.9693,5.074,5.0873,5.1016,5.1494,0.0,5.1671,5.2149,5.2337,5.2417,5.2451,5.217,5.1787,5.1295,5.1259,5.1315,5.1148,5.1446,5.1545,5.1214,5.1082,5.1082,5.1082,5.032,4.9525,4.8995,4.8862,4.8862,4.8895,4.8895,4.8862,4.6782,4.5626,4.3777,4.2856,4.2719,4.3603,4.3928,4.3803,4.4579,4.4649,4.4132,4.4076,4.38,4.3356,4.3226,0.0,0.0,4.2948,4.3252,4.384,4.376,4.3994,4.461,4.461,4.461,4.461,4.4075,4.3803,4.3655,4.3366,4.3096,4.2855,4.1821,4.1302,4.127,4.1721,4.2576,4.3747,4.3729,4.3932,4.4425,4.3552,4.2563,4.1552,4.1818,4.211,4.2395,4.2648,4.2541,4.2002,4.0771,3.9589,3.8401,0.0,0.0,0.0,0.0,0.0,0.0,0.0,0.0,0.0,0.0,0.0,0.0,0.0,0.0,0.0,3.5913,0.0,3.8254,3.9156,0.0,0.0,0.0,4.2752,4.427,4.4466,4.5206,4.7101,0.0,0.0,0.0,0.0,5.189,5.2268,5.2226,5.2188,5.2291,5.2287,5.2291,5.2429,5.2698,5.2919,5.2985,5.25,5.2001,5.1659,5.1451,5.1682,5.2177,5.2343,5.2409,5.231,5.2409,5.2376,5.2409,5.2243,5.1976,5.0618,5.0386,5.0386,5.0386,5.0386,5.0386,4.807,4.7304,4.646,4.5787,4.5342,4.5092,4.4956,4.4899,4.4733,4.4816,4.4994,4.478,4.4616,4.4507,4.4322,4.4192,4.4185,4.4154,4.4247,4.4401,4.4363,4.4486,4.461,4.461,4.461,4.461,4.4456,4.4401,4.4363,4.4284,4.3945,4.3414,4.3148,4.2819,4.243,4.3046,4.3468,4.363,4.4117,4.3925,4.3094,4.2828,4.2103,4.0811,4.0817,4.0872,4.0862,4.1661,4.2011,4.1824,4.0713,4.0051,3.9852,3.779,0.0,0.0,0.0,0.0,0.0,0.0,0.0,0.0,0.0,3.4973,3.6208,0.0,3.6572,0.0,3.7293,3.8365,3.9954,4.0618,0.0,0.0,4.3672,4.456,4.5487,4.5831,4.6612,4.8149,4.8655,4.9627,5.1511,5.1989,5.2396,5.297,5.2566,5.2425,5.3011,5.3115,5.3322,5.3808,5.392,5.4092,5.3962,5.3739,5.3279,5.2977,5.2671,5.2494,5.2412,5.2409,5.2409,5.2409,5.2409,5.2409,5.2409,5.2409,5.231,5.1943,5.1843,5.1877,5.1877,5.1843,5.1843,4.8532,4.8157,4.7819,4.7635,4.7415,4.6634,4.613,4.5875,4.6256,4.6202,4.586,4.5607,4.5559,4.5681,4.5542,4.5464,4.5464,4.5464,4.5495,4.5464,4.5464,4.5349,4.5033,4.5033,4.488,4.461,4.461,4.4648,4.4723,4.4648,4.4463,4.4167,4.4205,4.3982,4.3611,4.371,4.3852,4.4055,4.4425,4.4117,4.3063,4.2798,4.2186,4.1137,4.0935,4.0865,4.0888,4.1563,4.1885,4.1794,4.0987,4.0358,3.9918,3.8427,3.7268,0.0,0.0,0.0,0.0,0.0,0.0,0.0,0.0,0.0,0.0,0.0,3.846,0.0,3.956,0.0,4.2304,4.2721,4.333,4.4489,4.5014,4.5573,4.6337,4.686,4.7651,4.8946,4.962,5.0524,5.2065,5.2471,5.2775,5.3348,5.3,5.2885,5.3293,5.343,5.3567,5.3943,5.3915,5.3717,5.3617,5.3416,5.3213,5.2973,5.2799,5.2622,5.2445,5.2409,5.2409,5.2409,5.2409,5.2409,5.2409,5.2409,5.2409,5.2409,5.2409,5.2409,5.2409,5.2409,5.2409,4.8438,4.8313,4.8103,4.826,4.8583,4.7837,4.7236,4.6844,4.7892,4.7726,4.6689,4.6641,4.6689,4.685,4.6757,4.6726,4.6726,4.6634,4.6603,4.6603,4.6603,4.6296,4.5711,4.5649,4.528,4.4764,4.4671,4.4685,4.4836,4.4723,4.4723,4.4874,4.4874,4.4761,4.461,4.4024,4.4024,4.4579,4.461,4.4302,4.3624,4.3184,4.2545,4.1837,4.1492,4.1388,4.1495,4.1884,4.198,4.1797,4.1229,4.0545,3.9566,3.8739,3.7978,0.0,3.7308,0.0,0.0,0.0,0.0,0.0,0.0,0.0,0.0,3.9288,4.0547,4.2634,4.2175,4.2667,4.4685,4.4951,4.5218,4.5847,4.6013,4.6378,4.7106,4.7736,4.8563,4.9691,5.0691,5.1558,5.2236,5.2604,5.2939,5.3179,5.3314,5.3348,5.3382,5.3382,5.3415,5.3382,5.3246,5.331,5.3165,5.299,5.2988,5.2884,5.2914,5.2743,5.2774,5.2705,5.2705,5.2705,5.2738,5.2738,5.2672,5.2672,5.2672,5.2738,5.2771,5.2707,5.2475,5.2409,5.2409,4.7465,4.6931,4.6535,4.6403,4.6535,4.7135,4.7525,4.7709,4.7193,4.7046,4.7229,4.7882,4.8163,4.8204,4.765,4.7434,4.7373,4.685,4.6603,4.6603,4.6603,4.6542,4.6357,4.5708,4.537,4.5372,4.4887,4.461,4.4648,4.4761,4.4761,4.4648,4.4648,4.461,4.461,0.0,0.0,0.0,4.461,4.4302,4.3624,4.3507,4.2932,4.1868,4.1717,0.0,4.0991,4.1596,4.1885,4.1797,4.114,0.0,0.0,0.0,0.0,0.0,0.0,0.0,0.0,0.0,0.0,0.0,4.1281,4.1309,4.0878,4.1446,4.2568,4.4092,4.4158,4.4456,4.5514,4.6113,4.6543,4.6676,4.7206,4.7868,4.8597,4.8829,4.9426,5.0821,5.1184,5.1582,5.2254,5.2416,5.2516,5.2688,5.3052,5.3385,5.3418,5.3445,5.3416,5.3416,5.3821,5.436,5.4932,5.4895,5.4651,5.4678,5.457,5.4428,5.4103,5.4063,5.4096,5.4063,5.4092,5.4063,5.4096,5.4096,5.403,5.4096,5.4096,5.3765,5.2638,5.2409,5.2409,4.8538,0.0,4.7539,4.7096,0.0,4.7366,4.7675,4.7772,4.7658,4.7752,4.7964,4.8427,4.8604,4.8604,4.8266,4.8112,4.8081,4.7742,4.7548,4.7426,4.7426,4.7232,4.6804,4.6437,4.6067,4.5618,4.5249,4.5025,4.4905,4.4799,4.4723,4.4723,4.4648,4.461,4.461,4.461,4.461,4.461,4.461,4.4425,4.4086,4.3433,4.2792,4.2221,0.0,0.0,0.0,0.0,0.0,0.0,0.0,0.0,0.0,0.0,0.0,3.9605,3.9813,4.0066,4.0348,4.1011,4.174,4.244,4.3529,4.3827,4.3098,4.3694,4.4589,4.5649,4.5781,4.6079,4.6808,4.7239,4.7438,4.7471,4.81,4.873,4.9094,4.9756,5.0452,5.1183,5.1647,5.2011,5.234,5.2705,5.287,5.2937,5.35,5.3927,5.393,5.3923,5.3975,5.3941,5.4209,5.4608,5.4943,5.5043,5.5041,5.4825,5.4789,5.4712,5.4527,5.4527,5.4527,5.4527,5.4527,5.4527,5.4527,5.4527,5.4527,5.4527,5.4527,5.4328,5.3533,5.3169,5.2771,4.959,4.9031,4.8843,4.8293,4.7461,4.7998,4.8083,4.7956,0.0,0.0,0.0,4.8932,4.8974,4.9004,4.9004,4.887,4.8706,4.8706,4.8561,4.826,4.8301,4.7943,4.7217,4.7272,4.6833,4.5948,4.5711,4.5503,4.5241,4.4823,4.4685,4.4799,4.4648,4.4534,4.461,4.4648,4.4648,4.4648,4.4648,4.4648,4.4655,4.3636,4.2957,4.2747,4.2056,4.1574,4.1421,4.198,4.2076,4.1621,4.1644,4.1474,4.104,4.0785,4.0841,4.1267,4.1304,4.1522,4.1943,4.2638,4.34,4.4128,4.5284,4.5715,4.5119,4.5649,4.6311,4.7007,4.7106,4.7338,4.7934,4.8001,4.8067,4.8166,4.873,4.9193,4.9525,5.0518,5.1315,5.1547,5.2045,5.244,5.2572,5.3036,5.343,5.3665,5.4262,5.4792,5.4825,5.4626,5.4498,5.4667,5.4767,5.4759,5.4891,5.5028,5.4891,5.5061,5.499,5.4924,5.4891,5.4891,5.4891,5.5024,5.4891,5.4957,5.4924,5.5024,5.4891,5.4924,5.4891,5.4858,5.4692,5.4229,5.3632,4.8466,4.8009,4.7963,4.8135,4.8443,4.8865,4.9208,4.9521,4.94,4.9577,4.9796,5.0217,5.042,5.0389,5.0389,4.9965,4.92,4.92,4.8809,0.0,4.8187,4.824,4.8076,4.7568,4.7293,4.725,4.6142,4.5565,4.548,4.4918,4.461,4.461,4.4419,4.4419,4.461,4.4799,4.4836,4.4874,4.4874,4.4942,4.5092,4.4943,4.433,4.3353,4.3172,4.2685,4.1848,4.1947,4.2013,4.1981,4.15,4.1147,4.1082,4.078,4.0891,4.1689,4.255,4.3383,4.4191,4.492,4.5649,4.6344,4.6643,4.6676,4.6609,4.6676,4.704,4.7769,4.7802,4.7868,4.8001,4.8034,4.8299,4.8829,4.9061,4.9591,5.0717,5.1149,5.158,5.2144,5.231,5.2638,5.3135,5.3367,5.3732,5.4291,5.4953,5.5653,5.5918,5.5289,5.4854,5.5251,5.5416,5.5719,5.6084,5.6349,5.6249,5.6382,5.6282,5.6216,5.6216,5.6183,5.6216,5.6316,5.6216,5.6282,5.6282,5.6382,5.6249,5.6216,5.6183,5.6084,5.5587,5.5284,5.4986,4.8975,4.8729,4.87,4.8727,4.8784,4.8896,4.9275,4.9884,5.0122,5.011,4.9968,5.0188,5.0275,5.0275,5.0406,5.0179,4.9613,4.9787,4.9291,4.8339,4.8554,4.8384,4.7964,4.784,4.7701,4.7416,4.6843,4.6137,4.5462,4.5125,4.4788,4.445,4.4458,4.4496,4.461,4.4799,4.4949,4.5055,4.4949,4.4949,4.5024,4.457,4.4074,4.3495,4.3332,4.2973,4.2416,4.2792,4.2994,4.2994,4.2842,4.2781,4.2781,4.2526,4.2655,4.3234,4.3621,4.417,4.5004,4.5886,4.6709,4.7404,4.7504,4.7504,4.7504,4.7504,4.7636,4.7968,4.8001,4.8001,4.8034,4.8365,4.873,4.9061,4.979,5.0551,5.1216,5.1645,5.2045,5.2343,5.2409,5.2638,5.3334,5.3765,5.4295,5.4986,5.5752,5.6349,5.6647,5.615,5.5786,5.615,5.6183,5.6316,5.6647,5.668,5.668,5.668,5.668,5.668,5.668,5.668,5.668,5.668,5.668,5.668,5.668,5.668,5.668,5.668,5.668,5.6514,5.6249,5.6216,5.5819,4.9842,4.9705,4.961,4.9457,4.9291,4.9204,4.9628,5.0372,5.0866,5.0769,5.035,5.0437,5.0482,5.0482,5.0703,5.0598,5.0255,5.0371,4.9948,4.8991,4.9014,4.865,4.7994,4.8194,4.7985,4.7485,4.7302,4.6661,4.5776,4.5572,4.5144,4.458,4.4588,4.461,4.4685,4.4836,4.4986,4.5167,4.5017,4.4949,4.5024,4.4341,4.3889,4.371,4.35,4.3198,4.2931,4.3431,4.3674,4.3602,4.3847,4.4018,4.4018,4.405,4.4216,4.4614,4.4613,4.4879,4.5604,4.6421,4.7144,4.7671,4.7836,4.7836,4.7869,4.8134,4.8166,4.8034,4.8166,4.8266,4.8365,4.8928,4.9425,4.9624,5.0585,5.1315,5.158,5.2078,5.2409,5.2409,5.2542,5.2904,5.3599,5.4295,5.5024,5.5752,5.6349,5.668,5.668,5.668,5.668,5.668,5.668,5.668,5.668,5.668,5.668,5.668,5.668,5.668,5.668,5.668,5.668,5.668,5.668,5.668,5.668,5.668,5.668,5.668,5.668,5.668,5.6647,5.6614,5.6282,5.0394,5.0316,4.9873,5.0036,5.0538,5.0579,5.0986,5.1697,5.188,5.1727,5.1423,5.2153,5.2228,5.2123,5.2273,5.1831,5.0909,5.1147,5.0706,4.9891,4.9456,4.9151,4.8784,4.845,4.8187,4.7867,4.7338,4.6963,4.6689,4.6184,4.5696,4.5222,4.4803,4.4716,4.4836,4.4874,4.4986,4.5198,4.4986,4.5061,4.5389,4.5179,4.4725,4.4071,4.4008,4.3702,4.3136,4.3118,4.3185,4.3149,4.3423,4.3466,4.3567,4.3947,4.4475,4.5152,4.549,4.5986,4.6637,4.6833,4.6932,4.703,4.7303,4.7471,4.7504,4.8397,4.8696,4.8299,4.863,4.8995,4.9061,4.969,5.032,5.0851,5.1216,5.1547,5.2144,5.2376,5.2409,5.2409,5.2904,5.3599,5.4295,5.5019,5.5786,5.6382,5.6581,5.668,5.668,5.668,5.668,5.668,5.668,5.668,5.668,5.668,5.668,5.668,5.668,5.668,5.668,5.668,5.668,5.668,5.668,5.668,5.668,5.668,5.668,5.668,5.668,5.668,5.668,5.668,5.6316,4.9746,4.999,4.9766,5.0124,5.0775,5.0964,5.1041,5.1088,5.1416,5.1463,5.1433,5.2124,5.2261,5.1895,5.1987,5.1774,5.1364,5.1455,5.1001,5.0171,5.0063,4.9637,4.8793,4.8766,4.8389,4.7825,4.748,4.7093,4.6599,4.6172,4.5828,4.5493,4.5311,4.5048,4.4754,4.4836,4.4949,4.5024,4.4949,4.5017,4.5098,4.4942,4.4675,4.4427,4.4397,4.431,4.4031,4.4111,4.4148,4.4184,4.433,4.4543,4.4652,4.4867,4.5172,4.5599,4.592,4.6226,4.6515,4.6789,4.6927,4.6927,4.7202,4.7404,4.7437,4.8194,4.8693,4.8762,4.9292,4.9756,4.9789,5.0419,5.0982,5.1315,5.168,5.2042,5.2343,5.2409,5.2542,5.2937,5.3235,5.3861,5.492,5.5786,5.6316,5.6647,5.668,5.668,5.668,5.668,5.668,5.668,5.668,5.668,5.668,5.668,5.668,5.668,5.668,5.668,5.668,5.668,5.668,5.668,5.668,5.668,5.668,5.668,5.668,5.668,5.668,5.668,5.668,5.668,5.6514,4.9551,4.9892,4.9941,5.025,5.0822,5.0917,5.0947,5.0976,5.1182,5.1323,5.1369,5.1895,5.1941,5.1618,5.1711,5.1711,5.1618,5.1695,5.1361,5.0741,5.0698,5.0185,4.9191,4.89,4.8507,4.7869,4.7585,4.7254,4.6743,4.6486,4.6274,4.6133,4.5957,4.5565,4.5025,4.5077,4.5022,4.4905,4.4836,4.4836,4.4799,4.4685,4.461,4.461,4.4648,4.4685,4.4685,4.4836,4.4911,4.4911,4.5055,4.5167,4.5315,4.5426,4.5604,4.5792,4.6012,4.6124,4.6088,4.6369,4.6509,4.6474,4.6953,4.729,4.7418,4.8204,4.8901,4.9139,4.9866,5.0295,5.055,5.1148,5.158,5.1647,5.2144,5.2475,5.2638,5.2672,5.297,5.3599,5.3964,5.446,5.5653,5.6349,5.668,5.668,5.668,5.668,5.668,5.668,5.668,5.668,5.668,5.668,5.668,5.668,5.668,5.668,5.668,5.668,5.668,5.668,5.668,5.668,5.668,5.668,5.668,5.668,5.668,5.668,5.668,5.668,5.668,5.668,5.668,5.0453,5.0453,5.0453,5.0567,5.0822,5.0614,5.1071,5.1741,5.1649,5.1526,5.1556,5.1618,5.1649,5.1649,5.1987,5.1987,5.1665,5.1834,5.1849,5.1682,5.1213,5.0834,5.0427,4.9251,4.8531,4.8205,4.7725,4.7568,4.7801,4.7444,4.7354,4.7394,4.681,4.6313,4.5812,4.5573,4.5334,4.4953,4.4754,4.461,4.461,4.461,4.461,4.461,4.4761,4.4874,4.4874,4.4911,4.4911,4.4911,4.4911,4.4949,4.4986,4.5315,4.5573,4.5787,4.5823,4.5755,4.5609,4.5646,4.5604,4.5557,4.6543,4.7071,4.7134,4.8519,4.9415,4.9384,4.9973,5.0612,5.1098,5.1564,5.2101,5.217,5.2272,5.2636,5.3232,5.3232,5.3662,5.4357,5.4986,5.5653,5.6481,5.6647,5.668,5.668,5.668,5.668,5.668,5.668,5.668,5.668,5.668,5.668,5.668,5.668,5.668,5.668,5.668,5.668,5.668,5.668,5.668,5.668,5.668,5.668,5.668,5.668,5.668,5.668,5.668,5.668,5.668,5.668,5.668,4.9698,5.0038,5.0357,5.071,5.1011,5.0692,5.0882,5.1416,5.1041,5.1088,5.1339,5.1526,5.1479,5.1369,5.1711,5.1757,5.1602,5.1509,5.1463,5.1433,5.1192,5.0816,5.0319,4.9975,4.9238,4.8371,4.8159,4.8002,4.7739,4.7565,4.7388,4.723,4.6956,4.6539,4.5978,4.5559,4.534,4.5133,4.4811,4.461,4.4572,4.461,4.4648,4.4761,4.4874,4.4949,4.5092,4.5092,4.5092,4.5092,4.5092,4.5167,4.5278,4.5536,4.5719,4.5787,4.5823,4.5787,4.5714,4.5714,4.5866,4.6244,4.6866,4.7426,4.7723,4.8668,4.9323,4.9483,4.9801,5.0294,5.072,5.1043,5.1359,5.1692,5.1765,5.206,5.2655,5.3107,5.3717,5.4503,5.5512,5.6415,5.6581,5.668,5.668,5.668,5.668,5.668,5.668,5.668,5.668,5.668,5.668,5.668,5.668,5.668,5.668,5.668,5.668,5.668,5.668,5.668,5.668,5.668,5.668,5.668,5.668,5.668,5.668,5.668,5.668,5.668,5.668,5.668,5.668,4.9375,4.9766,5.0279,5.0567,5.0632,5.0375,5.0519,5.0899,5.0644,5.0787,5.1152,5.1386,5.1339,5.1276,5.1386,5.1433,5.1433,5.1276,5.1229,5.1229,5.1229,5.099,5.0601,5.0561,5.002,4.9044,4.8667,4.8334,4.7985,4.7757,4.7583,4.7357,4.7327,4.6993,4.6325,4.5991,4.5797,4.5462,4.4978,4.4718,4.4688,4.4504,4.4496,4.4685,4.4836,4.5024,4.5309,4.5278,4.5278,4.5278,4.5204,4.5309,4.5494,4.5609,4.575,4.5787,4.5823,4.5755,4.5745,4.5903,4.6181,4.6585,4.7389,4.7908,4.8117,4.8716,4.911,4.9221,4.9347,4.9622,4.9884,5.0089,5.0572,5.1236,5.1426,5.1847,5.2689,5.3422,5.424,5.5226,5.6084,5.6647,5.668,5.668,5.668,5.668,5.668,5.668,5.668,5.668,5.668,5.668,5.668,5.668,5.6713,5.6713,5.6746,5.6746,5.668,5.668,5.668,5.668,5.668,5.668,5.668,5.668,5.668,5.668,5.668,5.668,5.668,5.668,5.668,5.668,5.668,4.9669,4.9717,5.0231,5.0183,4.9863,4.9795,5.0038,5.0501,5.0548,5.0757,5.1152,5.1229,5.1229,5.1229,5.1229,5.1229,5.1229,5.1229,5.1229,5.1229,5.1229,5.1199,5.1109,5.0832,5.0547,5.0018,4.9118,4.8635,4.8544,4.8175,4.7983,4.7995,4.7819,4.7443,4.6982,4.6789,4.6486,4.592,4.5363,4.5029,4.4968,4.4521,4.4334,4.4465,4.4778,4.5154,4.5457,4.5463,4.5531,4.5463,4.5315,4.5278,4.5531,4.5536,4.5609,4.5787,4.5823,4.5745,4.5662,4.6196,4.6536,4.6774,4.7722,4.842,4.8363,4.8863,4.9125,4.8841,4.8708,4.8759,4.8913,4.9429,5.0195,5.1232,5.1438,5.2053,5.3198,5.4124,5.5084,5.6177,5.6564,5.668,5.668,5.668,5.668,5.668,5.6779,5.6846,5.6912,5.6978,5.6846,5.6846,5.7077,5.7243,5.6978,5.6713,5.6779,5.6812,5.6713,5.668,5.668,5.668,5.668,5.668,5.668,5.668,5.668,5.668,5.668,5.668,5.668,5.668,5.668,5.668,5.668,4.9157,4.9207,4.9746,4.9863,4.9746,4.9746,4.999,5.0501,5.0501,5.0757,5.1135,5.1229,5.1229,5.1229,5.1229,5.1229,5.1229,5.1229,5.1229,5.1229,5.1229,5.1229,5.1216,5.1222,5.0984,5.0381,4.9509,4.9089,4.8969,4.8517,4.8186,4.8083,4.7431,4.7133,4.7194,4.6604,4.6184,4.6339,4.5869,4.5617,4.5617,4.5405,4.519,4.5069,4.5357,4.5515,4.5346,4.5536,4.5714,4.5714,4.5641,4.5641,4.5682,4.5714,4.575,4.585,4.6266,4.6487,4.6508,4.7038,4.7637,4.804,4.8551,4.8914,4.9045,4.9175,4.9169,4.8914,4.8718,4.8789,4.9281,4.9528,5.0133,5.0812,5.1304,5.1903,5.2902,5.3576,5.4553,5.5716,5.5981,5.6211,5.6564,5.6713,5.6779,5.6846,5.7144,5.7442,5.7508,5.7806,5.8204,5.8204,5.8204,5.8005,5.7839,5.774,5.7773,5.7574,5.7342,5.7011,5.6912,5.6846,5.6812,5.668,5.668,5.668,5.668,5.668,5.668,5.668,5.668,5.668,5.668,5.668,5.668,4.8881,4.8959,4.9473,4.9424,4.9128,4.9277,4.96,4.9922,4.9892,5.0183,5.0537,5.0632,5.0757,5.0899,5.0947,5.1041,5.1182,5.1229,5.1229,5.1229,5.1229,5.1229,5.1182,5.1182,5.0926,5.0355,4.9683,4.9385,4.9356,4.894,4.8536,4.8193,4.754,4.7213,4.7266,4.6718,4.6595,4.6761,4.6316,4.6067,4.6007,4.5796,4.5616,4.5534,4.583,4.5967,4.5839,4.6216,4.6255,4.5882,4.5823,4.5823,4.5823,4.6044,4.6171,4.6329,4.6803,4.7214,4.7277,4.7877,4.8415,4.8825,4.911,4.9308,4.9479,4.9381,4.9353,4.9254,4.9202,4.9365,4.997,5.0328,5.0603,5.0974,5.139,5.2047,5.2844,5.3412,5.4105,5.5058,5.5539,5.5992,5.654,5.7033,5.7243,5.7475,5.7906,5.8204,5.827,5.8568,5.8833,5.8933,5.8734,5.8668,5.88,5.88,5.8833,5.8502,5.8138,5.7707,5.7409,5.7309,5.7243,5.6812,5.668,5.668,5.668,5.668,5.668,5.668,5.668,5.668,5.668,5.668,5.668,4.8881,4.9009,4.9473,4.9128,4.8409,4.881,4.9029,4.8959,4.9058,4.9375,4.9717,4.9863,5.0086,5.0453,5.0596,5.0805,5.1135,5.1229,5.1229,5.1229,5.1229,5.1182,5.1041,5.0757,5.0412,5.0026,4.9651,4.951,4.9498,4.9324,4.9015,4.8507,4.8194,4.7983,4.7461,4.7326,4.7135,4.713,4.6651,4.6424,4.6394,4.5885,4.562,4.5807,4.6143,4.6453,4.6655,4.7021,4.6925,4.6103,4.6108,4.6139,4.6108,4.655,4.6866,4.6898,4.7561,4.7877,4.8067,4.8573,4.8952,4.9078,4.9481,4.9764,4.9577,4.964,4.9727,4.982,4.9912,5.019,5.071,5.119,5.1572,5.1713,5.1845,5.2374,5.3365,5.3577,5.3911,5.4549,5.5205,5.5872,5.6564,5.7149,5.7745,5.8254,5.8477,5.8535,5.8797,5.8929,5.8984,5.9157,5.9429,5.9529,5.9694,5.9694,5.9728,5.9628,5.9198,5.8668,5.7972,5.774,5.7376,5.6945,5.668,5.668,5.668,5.668,5.668,5.668,5.668,5.668,5.668,5.668,5.668,4.8881,4.8959,4.9473,4.9277,4.881,4.9277,4.9256,4.9009,4.9326,4.9473,4.9669,4.9746,4.9941,5.0453,5.0501,5.0757,5.1135,5.1229,5.1229,5.1229,5.1229,5.0994,5.071,5.0548,5.0231,4.9757,4.9582,4.9678,4.9668,4.9528,4.9347,4.9153,4.842,4.8027,4.794,4.7377,4.7111,4.7282,4.716,4.701,4.698,4.686,4.6629,4.6388,4.6607,4.6651,4.6545,4.6967,4.737,4.7397,4.734,4.734,4.7277,4.7466,4.7593,4.7719,4.8225,4.8636,4.8762,4.9236,4.9615,4.9647,4.9837,5.0033,5.0254,5.0131,5.03,5.0534,5.0623,5.0784,5.1313,5.1621,5.1929,5.2359,5.239,5.2572,5.2935,5.3011,5.3201,5.3899,5.4611,5.5336,5.6039,5.6679,5.7203,5.7527,5.7925,5.842,5.8941,5.9413,5.9554,6.0299,6.0622,6.0589,6.0589,6.0589,6.0622,6.0688,6.0357,5.986,5.8966,5.8104,5.7508,5.6879,5.6746,5.668,5.668,5.668,5.668,5.668,5.668,5.668,5.668,5.668,5.668,4.9227,4.9277,4.9795,4.96,4.9009,4.9473,4.9277,4.871,4.8859,4.9058,4.9058,4.9029,4.9424,5.0135,5.0135,5.0567,5.1135,5.1229,5.1229,5.1229,5.1229,5.0674,5.0033,4.993,4.965,4.8813,4.919,4.9326,4.9415,4.9677,4.9746,4.9486,4.9022,4.8768,4.8671,4.7941,4.754,4.7641,4.7489,4.7309,4.7309,4.7309,4.7259,4.7039,4.7178,4.7103,4.717,4.7586,4.7737,4.7613,4.7725,4.7909,4.794,4.8162,4.8288,4.8351,4.8952,4.9331,4.9394,4.9671,5.0058,5.0279,5.0374,5.0601,5.0941,5.0965,5.1038,5.132,5.1314,5.1554,5.1959,5.2144,5.2329,5.2606,5.2729,5.2821,5.3067,5.316,5.3464,5.4041,5.471,5.5386,5.6061,5.6726,5.7209,5.7648,5.8197,5.871,5.9156,5.9675,6.0087,6.0548,6.0919,6.0787,6.0729,6.0804,6.0812,6.0945,6.092,6.0556,5.9761,5.8668,5.7906,5.7309,5.6945,5.6713,5.6779,5.6779,5.668,5.668,5.668,5.668,5.668,5.668,5.668,4.9795,4.9844,5.0327,4.9941,4.9128,4.9473,4.9108,4.8235,4.8185,4.8286,4.8308,4.8235,4.9009,4.9766,4.999,5.0346,5.1182,5.1229,5.1229,5.1229,5.1075,5.0461,4.9076,4.9407,4.8902,4.8042,4.8454,4.8696,4.8951,4.9766,4.9985,4.9651,4.9851,4.9835,4.9343,4.8701,4.8462,4.8327,4.7967,4.7668,4.7578,4.7519,4.7529,4.749,4.7503,4.7673,4.7939,4.8243,4.8091,4.7159,4.7714,4.8141,4.8218,4.8731,4.8952,4.9141,4.9615,5.0026,5.0058,5.0216,5.0469,5.0943,5.1069,5.1304,5.1674,5.1769,5.1883,5.2107,5.2082,5.226,5.2497,5.2667,5.2667,5.2729,5.2729,5.3037,5.3529,5.3714,5.396,5.4545,5.5175,5.5948,5.6598,5.7263,5.786,5.7442,5.7941,5.8215,5.8608,5.9036,5.9564,6.0087,6.042,6.075,6.076,6.0844,6.0928,6.1044,6.1044,6.0788,6.0291,5.933,5.8502,5.7873,5.7508,5.7177,5.7011,5.6945,5.6779,5.668,5.668,5.668,5.668,5.668,5.668,5.0327,5.0405,5.0852,5.0442,4.962,4.9649,4.9108,4.8134,4.8134,4.8437,4.866,4.871,4.9355,5.0279,5.0309,5.0662,5.1135,5.1229,5.1229,5.1229,5.1229,5.0248,4.8989,4.8914,4.8778,4.8304,4.7737,4.7885,4.8346,4.9009,4.9444,4.9659,4.9735,4.9864,4.9878,4.938,4.9159,4.9089,4.8865,4.8506,4.8117,4.8057,4.7935,4.7748,4.7701,4.7598,4.7611,4.7922,4.8149,4.8348,4.8702,4.9094,4.9347,4.9584,4.9679,4.9868,5.0342,5.0753,5.0816,5.1164,5.1606,5.1733,5.1828,5.1966,5.2418,5.2502,5.2633,5.2816,5.2869,5.2781,5.2712,5.2729,5.2729,5.2729,5.2729,5.2975,5.3529,5.3714,5.3837,5.4222,5.5024,5.5766,5.5967,5.6667,5.7104,5.7275,5.7417,5.7606,5.7948,5.8378,5.8876,5.9423,5.9512,5.9762,6.0163,6.0292,6.0506,6.075,6.0877,6.0886,6.0357,6.0158,5.933,5.8634,5.8038,5.7773,5.7574,5.7005,5.684,5.6779,5.6713,5.6641,5.6603,5.6641,5.6641,5.0805,5.0852,5.1088,5.0632,4.9844,4.9941,4.9424,4.866,4.876,4.9009,4.9227,4.9277,4.9746,5.0453,5.0548,5.0757,5.1135,5.1229,5.1229,5.1135,5.0994,5.036,4.956,4.8712,4.8313,4.8106,4.7863,4.7853,4.8151,4.861,4.9079,4.9326,4.9571,4.993,5.01,4.9551,4.9385,4.9521,4.9177,4.8849,4.8805,4.879,4.87,4.8473,4.8383,4.8339,4.8355,4.8501,4.8949,4.9431,4.9738,4.9883,4.9962,5.0247,5.0405,5.0532,5.1069,5.1417,5.1575,5.1796,5.2112,5.2523,5.2523,5.2818,5.3175,5.3278,5.3133,5.3095,5.3055,5.2997,5.2774,5.2729,5.2729,5.2729,5.2729,5.2883,5.3191,5.3529,5.4022,5.4514,5.5331,5.5855,5.6255,5.6532,5.6686,5.6957,5.7036,5.7196,5.7418,5.7806,5.8128,5.8473,5.846,5.8715,5.9335,5.9652,5.9957,6.0249,6.0548,6.0548,6.0309,6.0265,6.0258,5.9529,5.8833,5.8502,5.8204,5.7601,5.7132,5.7132,5.7066,5.6723,5.6519,5.6519,5.6519,5.1229,5.1229,5.1229,5.0662,4.999,5.0279,4.9892,4.9178,4.9473,4.962,4.9815,4.9815,5.0135,5.0519,5.0644,5.0852,5.1135,5.1229,5.1229,5.1182,5.0757,5.0394,4.9882,4.8913,4.8027,4.7453,4.7656,4.7937,4.8179,4.8509,4.881,4.8959,4.9326,4.9708,4.9882,4.9589,4.9391,4.9821,4.9558,4.9127,4.9298,4.9359,4.9389,4.9149,4.912,4.909,4.909,4.9209,4.9611,5.0419,5.0549,5.0443,5.0389,5.0721,5.1092,5.1083,5.16,5.1946,5.1999,5.2198,5.2587,5.3207,5.325,5.3502,5.3871,5.3793,5.349,5.317,5.3011,5.2953,5.2774,5.2819,5.2774,5.2729,5.2729,5.2729,5.2821,5.3252,5.396,5.4884,5.5161,5.553,5.6023,5.6392,5.6563,5.6656,5.6656,5.669,5.6933,5.7152,5.7323,5.7667,5.7711,5.8015,5.8573,5.9075,5.9387,5.9608,6.0001,6.0044,6.0044,6.0096,6.013,6.0217,5.9694,5.9257,5.8786,5.8243,5.7839,5.7681,5.7239,5.679,5.6521,5.6395,5.6362,5.1229,5.1229,5.1229,5.0852,5.0453,5.0453,5.0135,4.962,4.9717,4.999,5.0357,5.0375,5.0614,5.0947,5.1088,5.1135,5.1182,5.1229,5.1229,5.1135,5.0662,5.0279,4.9834,4.9034,4.8382,4.7925,4.774,4.774,4.805,4.8235,4.8509,4.881,4.9009,4.9277,4.9766,4.994,4.9727,4.9908,5.0017,4.9969,4.969,4.9878,4.9883,4.9569,4.9539,4.9509,4.9419,4.9359,4.9524,5.0012,5.0406,5.0758,5.1111,5.158,5.1653,5.1539,5.1914,5.2246,5.2394,5.2789,5.335,5.3785,5.3882,5.3839,5.4028,5.4017,5.3596,5.3157,5.2877,5.2788,5.3042,5.2997,5.2908,5.2819,5.2698,5.2729,5.2729,5.2914,5.3252,5.4052,5.4576,5.5052,5.5561,5.5899,5.5899,5.5899,5.5947,5.5947,5.6044,5.6122,5.6231,5.6603,5.6988,5.7402,5.7855,5.8395,5.876,5.885,5.9133,5.9476,5.952,5.9739,5.9848,5.998,6.0084,5.9762,5.9325,5.8807,5.8338,5.7968,5.7387,5.6774,5.6552,5.6362,5.6205,5.1229,5.1229,5.1229,5.0947,5.0596,5.0757,5.0567,5.0183,5.0346,5.0585,5.0805,5.0852,5.0994,5.1182,5.1229,5.1229,5.1229,5.1229,5.1229,5.1088,5.0442,5.0183,4.9844,4.9058,4.866,4.8352,4.7976,4.7746,4.8055,4.8134,4.8286,4.8409,4.8509,4.876,4.9079,4.9157,4.9502,4.962,4.9883,5.0132,5.0029,5.0471,5.0465,5.0361,5.0242,5.0272,5.0272,5.0272,5.0501,5.0955,5.1448,5.177,5.2045,5.2317,5.2437,5.1993,5.2213,5.2616,5.2791,5.3265,5.3608,5.3985,5.4103,5.3974,5.3844,5.364,5.3465,5.3113,5.2712,5.2712,5.3188,5.3144,5.3042,5.2953,5.2788,5.2698,5.2729,5.2729,5.2944,5.3252,5.3806,5.4422,5.496,5.5191,5.5191,5.5191,5.5191,5.5191,5.5191,5.5191,5.5253,5.6101,5.6563,5.6971,5.7417,5.7793,5.8104,5.8165,5.8363,5.8637,5.894,5.912,5.9564,5.9989,6.0017,5.9924,5.9834,5.9348,5.8772,5.8141,5.7388,5.6784,5.6507,5.6286,5.6065,5.1229,5.1229,5.1229,5.0994,5.071,5.1041,5.0994,5.0757,5.0994,5.1182,5.1229,5.1182,5.1182,5.1229,5.1229,5.1229,5.1229,5.1229,5.1229,5.1041,5.0346,5.0135,4.9844,4.9157,4.8409,4.8459,4.828,4.8083,4.8083,4.8083,4.8083,4.8185,4.8106,4.8258,4.861,4.866,4.8909,4.9009,4.9277,4.96,5.0405,5.0947,5.1229,5.1229,5.1229,5.1139,5.105,5.105,5.1189,5.1606,5.2048,5.2471,5.2592,5.286,5.279,5.2361,5.2435,5.274,5.298,5.3214,5.3377,5.3844,5.4028,5.3813,5.3465,5.3246,5.3024,5.2891,5.2667,5.2667,5.3157,5.3277,5.3219,5.3042,5.2877,5.2743,5.2729,5.2729,5.2729,5.3006,5.3314,5.3745,5.4314,5.4514,5.4514,5.4514,5.4514,5.4514,5.4483,5.4268,5.4514,5.5561,5.6286,5.6686,5.7019,5.7275,5.7401,5.7353,5.7653,5.798,5.8257,5.8487,5.903,5.9508,5.9739,5.9686,5.9773,5.9814,5.9216,5.8479,5.7488,5.6862,5.6564,5.6149,5.5791,5.1229,5.1229,5.1229,5.1182,5.1135,5.1182,5.1182,5.1135,5.1182,5.1229,5.1229,5.1229,5.1229,5.1229,5.1229,5.1229,5.1229,5.1135,5.1135,5.0994,5.0471,4.999,4.9766,4.9207,4.8559,4.8409,4.8235,4.8134,4.8083,4.8083,4.8083,4.8083,4.8083,4.8156,4.8258,4.8459,4.861,4.8509,4.9157,4.9844,5.0423,5.0899,5.1135,5.1229,5.1229,5.1229,5.1229,5.1229,5.1276,5.1369,5.1834,5.2063,5.2033,5.2002,5.2048,5.1987,5.2002,5.2033,5.2291,5.2622,5.3069,5.3552,5.3813,5.377,5.3246,5.2577,5.2306,5.2757,5.2622,5.2757,5.3113,5.3409,5.3396,5.3219,5.2997,5.2833,5.2774,5.2729,5.2729,5.2729,5.3037,5.3314,5.3699,5.3806,5.3837,5.3837,5.3837,5.3868,5.3929,5.3868,5.4052,5.5161,5.6176,5.6686,5.681,5.7019,5.7019,5.681,5.7067,5.737,5.7606,5.7933,5.8257,5.8701,5.9017,5.9464,5.9631,5.9599,5.9415,5.882,5.7923,5.72,5.6617,5.6098,5.5556,5.1229,5.1229,5.1229,5.1229,5.1229,5.1229,5.1229,5.1229,5.1229,5.1229,5.1229,5.1229,5.1229,5.1229,5.1229,5.1229,5.1135,5.0947,5.0805,5.0662,5.0135,4.9698,4.9502,4.8909,4.8358,4.8459,4.8258,4.8134,4.8083,4.8083,4.8083,4.8083,4.8083,4.8083,4.8083,4.8336,4.8308,4.8358,4.8859,4.9473,5.0038,5.0519,5.0947,5.1182,5.1229,5.1229,5.1229,5.1229,5.1229,5.1276,5.1665,5.1757,5.1665,5.1711,5.1849,5.1479,5.1479,5.1618,5.1941,5.2397,5.2846,5.3246,5.3509,5.3334,5.2667,5.2033,5.1711,5.2215,5.2261,5.2532,5.2935,5.3024,5.3144,5.31,5.2966,5.2833,5.2743,5.2729,5.2729,5.2729,5.2729,5.3006,5.3221,5.3252,5.3314,5.3283,5.3283,5.3252,5.3622,5.3976,5.433,5.4884,5.5899,5.6779,5.681,5.6906,5.6906,5.681,5.681,5.7067,5.7163,5.7401,5.7778,5.8058,5.8381,5.8837,5.9331,5.9531,5.9381,5.8907,5.8356,5.7527,5.6741,5.596,5.5556,5.1229,5.1229,5.1229,5.1229,5.1229,5.1229,5.1229,5.1229,5.1229,5.1229,5.1229,5.1229,5.1229,5.1229,5.1229,5.1229,5.1182,5.0805,5.0644,5.0231,4.9892,4.9571,4.9355,4.876,4.861,4.871,4.8258,4.8134,4.8083,4.8083,4.8083,4.8083,4.8083,4.8083,4.8083,4.8134,4.8134,4.8185,4.866,4.9256,4.9746,5.0231,5.071,5.1041,5.1229,5.1229,5.1229,5.1229,5.1229,5.1276,5.1479,5.1526,5.1369,5.1479,5.1526,5.1293,5.1276,5.1386,5.1711,5.2124,5.2622,5.2891,5.3024,5.2712,5.2094,5.1479,5.1293,5.1711,5.1941,5.2352,5.2712,5.2577,5.2846,5.2935,5.2891,5.2788,5.2743,5.2788,5.2774,5.2729,5.2729,5.2729,5.2852,5.279,5.276,5.276,5.2729,5.2729,5.3314,5.3976,5.4437,5.4976,5.5899,5.6748,5.681,5.681,5.681,5.681,5.681,5.681,5.6954,5.7098,5.7353,5.759,5.7793,5.8211,5.8792,5.9062,5.9298,5.8783,5.8224,5.756,5.683,5.6021,5.5539,5.1229,5.1229,5.1229,5.1229,5.1229,5.1229,5.1229,5.1229,5.1229,5.1229,5.1229,5.1229,5.1229,5.1229,5.1229,5.1229,5.1229,5.1182,5.0852,5.0739,5.071,4.9912,4.9424,4.9058,4.8959,4.8308,4.8134,4.8134,4.8083,4.8083,4.8083,4.8083,4.8083,4.8083,4.8083,4.8083,4.8083,4.8185,4.8559,4.9079,4.962,5.0135,5.0614,5.1041,5.1182,5.1229,5.1229,5.1229,5.1229,5.1229,5.1323,5.1339,5.1276,5.1323,5.1246,5.1276,5.1229,5.1276,5.1433,5.1757,5.1987,5.2033,5.2079,5.2124,5.1803,5.1433,5.1293,5.1339,5.1618,5.1895,5.2215,5.2352,5.2532,5.2757,5.2757,5.2757,5.2788,5.2966,5.2922,5.2774,5.2684,5.2684,5.2762,5.2793,5.2715,5.276,5.3037,5.3067,5.3498,5.4099,5.4529,5.5161,5.6053,5.6686,5.681,5.681,5.681,5.681,5.681,5.681,5.681,5.7002,5.7067,5.7258,5.7495,5.7871,5.8072,5.8289,5.8378,5.8428,5.8083,5.7349,5.6755,5.6027,5.5647,5.1229,5.1229,5.1229,5.1229,5.1229,5.1229,5.1229,5.1229,5.1229,5.1229,5.1229,5.1229,5.1229,5.1229,5.1229,5.1229,5.1182,5.0852,5.0692,5.0327,4.996,4.9424,4.893,4.876,4.8459,4.8185,4.8083,4.8083,4.8083,4.8083,4.8083,4.8083,4.8083,4.8083,4.8083,4.8083,4.8083,4.8134,4.8358,4.881,4.9522,4.9551,5.0086,5.1135,5.0852,5.0947,5.1135,5.1182,5.1229,5.1229,5.1229,5.1229,5.1229,5.1229,5.1229,5.1229,5.1229,5.1229,5.1276,5.1618,5.1895,5.1895,5.1895,5.1803,5.1572,5.1323,5.1229,5.1276,5.1369,5.1572,5.1941,5.1849,5.1895,5.2352,5.2622,5.2667,5.2833,5.3011,5.2833,5.2563,5.2563,5.2563,5.2733,5.2871,5.2854,5.2821,5.3129,5.3468,5.3929,5.4391,5.4884,5.5315,5.6176,5.6686,5.681,5.681,5.681,5.681,5.681,5.681,5.681,5.681,5.6954,5.705,5.7194,5.7401,5.7495,5.7448,5.759,5.8022,5.7652,5.7032,5.6416,5.5943,5.5794,5.1058,5.1105,5.1182,5.1229,5.1229,5.1229,5.1229,5.1229,5.1229,5.1229,5.1229,5.1229,5.1229,5.1229,5.1229,5.1229,5.1088,5.0787,5.0423,5.0086,4.962,4.9009,4.871,4.8509,4.8409,4.8185,4.8083,4.8083,4.8083,4.8083,4.8083,4.8083,4.8083,4.8083,4.8083,4.8083,4.8083,4.8083,4.8185,4.8509,4.9277,4.9207,4.9551,5.0757,5.0692,5.0805,5.1088,5.1229,5.1229,5.1229,5.1229,5.1229,5.1229,5.1229,5.1229,5.1229,5.1229,5.1229,5.1323,5.1433,5.1711,5.1618,5.1665,5.1479,5.1293,5.1229,5.1229,5.1229,5.1229,5.1369,5.1711,5.1479,5.1618,5.2124,5.2532,5.2667,5.2846,5.298,5.2653,5.2382,5.2458,5.2641,5.3071,5.3377,5.3714,5.3714,5.3791,5.4068,5.4314,5.4853,5.5345,5.5776,5.6317,5.6625,5.681,5.681,5.681,5.681,5.681,5.681,5.681,5.681,5.681,5.6906,5.7002,5.7002,5.705,5.7098,5.7448,5.784,5.7289,5.6661,5.6212,5.5803,5.5927,5.0822,5.087,5.1058,5.1182,5.1182,5.1229,5.1229,5.1229,5.1229,5.1229,5.1229,5.1229,5.1182,5.1135,5.1088,5.1041,5.087,5.0567,5.0231,4.9844,4.9522,4.9009,4.866,4.8459,4.8358,4.8185,4.8083,4.8083,4.8083,4.8083,4.8083,4.8083,4.8083,4.8083,4.8083,4.8083,4.8083,4.8083,4.8083,4.8459,4.8831,4.8909,4.9453,5.0183,5.0453,5.0567,5.0947,5.1182,5.1182,5.1229,5.1229,5.1229,5.1229,5.1229,5.1229,5.1229,5.1229,5.1229,5.1229,5.1229,5.1246,5.1293,5.1386,5.1276,5.1229,5.1229,5.1229,5.1229,5.1229,5.1229,5.1276,5.1276,5.1526,5.1803,5.2215,5.2622,5.2757,5.298,5.2667,5.2307,5.2505,5.287,5.3361,5.3865,5.4467,5.4652,5.4652,5.4806,5.5037,5.5376,5.5899,5.6115,5.6502,5.6625,5.681,5.681,5.681,5.681,5.681,5.681,5.681,5.681,5.681,5.681,5.681,5.6906,5.6858,5.681,5.7163,5.7386,5.6981,5.6435,5.5979,5.574,5.5978,5.0567,5.0614,5.071,5.0739,5.0757,5.1058,5.1229,5.1229,5.1229,5.1229,5.1229,5.1229,5.0994,5.0805,5.071,5.0614,5.0202,5.0154,4.9766,4.9669,4.9326,4.9058,4.866,4.8409,4.8308,4.8185,4.8083,4.8083,4.8083,4.8083,4.8083,4.8083,4.8083,4.8083,4.8083,4.8083,4.8083,4.8083,4.8134,4.8387,4.881,4.866,4.8909,4.9892,4.999,5.0279,5.0757,5.0994,5.1182,5.1229,5.1229,5.1229,5.1229,5.1229,5.1229,5.1229,5.1229,5.1229,5.1229,5.1229,5.1229,5.1229,5.1229,5.1229,5.1229,5.1229,5.1229,5.1229,5.1229,5.1229,5.1229,5.1229,5.1416,5.1572,5.1941,5.2352,5.2622,5.2891,5.2833,5.2398,5.2383,5.3637,5.4404,5.4772,5.5251,5.553,5.553,5.5745,5.5961,5.6146,5.6532,5.6563,5.6717,5.6748,5.681,5.681,5.681,5.681,5.681,5.681,5.681,5.681,5.681,5.681,5.681,5.681,5.681,5.681,5.6858,5.6848,5.6665,5.6619,5.6387,5.6202,5.6261,5.0357,5.0357,5.0453,5.0501,5.0548,5.0805,5.0994,5.1058,5.1152,5.1229,5.1229,5.1182,5.0947,5.0644,5.0453,5.0183,4.9717,4.9473,4.9424,4.9326,4.8859,4.861,4.8459,4.8336,4.8185,4.8083,4.8083,4.8083,4.8083,4.8083,4.8083,4.8083,4.8083,4.8083,4.8083,4.8083,4.8083,4.8083,4.8134,4.8207,4.8409,4.8409,4.8559,4.9256,4.9649,4.999,5.0501,5.0852,5.1182,5.1182,5.1182,5.1229,5.1229,5.1229,5.1229,5.1229,5.1229,5.1229,5.1229,5.1229,5.1229,5.1229,5.1229,5.1229,5.1229,5.1229,5.1229,5.1229,5.1229,5.1229,5.1229,5.1229,5.1276,5.1463,5.1757,5.217,5.2532,5.2802,5.2883,5.252,5.2684,5.4063,5.5326,5.579,5.6146,5.6269,5.6361,5.6594,5.6717,5.6779,5.681,5.681,5.6779,5.681,5.681,5.681,5.681,5.681,5.681,5.681,5.681,5.681,5.681,5.681,5.681,5.681,5.681,5.681,5.6858,5.6858,5.6765,5.6765,5.681,5.6662,5.6513,5.0086,5.0135,5.0357,5.0453,5.0453,5.0501,5.0614,5.0822,5.1058,5.1182,5.1229,5.1229,5.0947,5.0548,5.0501,5.0086,4.9571,4.9108,4.8959,4.876,4.8409,4.8258,4.8185,4.8134,4.8083,4.8083,4.8083,4.8083,4.8083,4.8083,4.8083,4.8083,4.8083,4.8083,4.8083,4.8083,4.8083,4.8083,4.8134,4.8185,4.8207,4.8185,4.8358,4.8859,4.9277,4.9746,5.0183,5.0614,5.0947,5.1088,5.1135,5.1182,5.1182,5.1229,5.1229,5.1229,5.1229,5.1229,5.1229,5.1229,5.1229,5.1229,5.1229,5.1229,5.1229,5.1229,5.1229,5.1229,5.1229,5.1229,5.1229,5.1229,5.1229,5.1463,5.1665,5.2033,5.2397,5.2641,5.2811,5.2839,5.3095,5.4057,5.535,5.6076,5.6467,5.6594,5.6625,5.6686,5.6779,5.6779,5.681,5.681,5.681,5.681,5.681,5.681,5.681,5.681,5.681,5.681,5.681,5.681,5.681,5.681,5.681,5.681,5.681,5.681,5.681,5.681,5.681,5.681,5.681,5.681,5.6693,4.9844,4.9844,4.9941,4.9941,4.999,5.0135,5.0471,5.0775,5.0917,5.1011,5.1229,5.1229,5.0947,5.0501,5.0086,4.962,4.9128,4.866,4.8409,4.8258,4.8235,4.8134,4.8083,4.8083,4.8083,4.8083,4.8083,4.8083,4.8083,4.8083,4.8083,4.8083,4.8083,4.8083,4.8083,4.8083,4.8083,4.8083,4.8083,4.8083,4.8083,4.8083,4.8286,4.8509,4.893,4.9355,4.9522,4.996,5.0298,5.0662,5.0662,5.0757,5.1229,5.1229,5.1229,5.1229,5.1229,5.1229,5.1229,5.1229,5.1229,5.1229,5.1229,5.1229,5.1229,5.1229,5.1229,5.1229,5.1229,5.1229,5.1229,5.1229,5.1229,5.1369,5.1572,5.1849,5.2231,5.252,5.2716,5.3183,5.3434,5.4413,5.5676,5.6181,5.6541,5.673,5.681,5.681,5.681,5.681,5.681,5.681,5.681,5.681,5.681,5.681,5.681,5.681,5.681,5.681,5.681,5.681,5.681,5.681,5.681,5.681,5.681,5.681,5.681,5.681,5.681,5.681,5.681,5.681,5.681,4.9649,4.9571,4.9669,4.9746,4.9746,4.9863,5.0154,5.0537,5.0728,5.0917,5.1058,5.1182,5.0947,5.0501,5.0135,4.9698,4.8959,4.871,4.8409,4.8185,4.8083,4.8083,4.8083,4.8083,4.8083,4.8083,4.8083,4.8083,4.8083,4.8083,4.8083,4.8083,4.8083,4.8083,4.8083,4.8083,4.8083,4.8083,4.8083,4.8083,4.8083,4.8083,4.8083,4.8235,4.861,4.881,4.893,4.9375,4.9844,5.0135,5.0183,5.0423,5.0899,5.1041,5.1229,5.1229,5.1229,5.1229,5.1229,5.1229,5.1229,5.1229,5.1229,5.1229,5.1229,5.1229,5.1229,5.1229,5.1229,5.1229,5.1229,5.1229,5.1229,5.1229,5.1433,5.1665,5.2013,5.2346,5.2825,5.3345,5.4134,5.5085,5.5815,5.6232,5.6567,5.6713,5.681,5.681,5.681,5.681,5.681,5.681,5.681,5.681,5.681,5.681,5.681,5.681,5.681,5.681,5.681,5.681,5.681,5.681,5.681,5.681,5.681,5.681,5.681,5.681,5.681,5.681,5.681,5.681,5.681,4.9551,4.9355,4.9571,4.9649,4.9649,4.962,4.9844,5.0086,5.0537,5.0822,5.084,5.1058,5.0994,5.0662,5.0327,4.9795,4.9157,4.876,4.8358,4.8083,4.8083,4.8083,4.8083,4.8083,4.8083,4.8083,4.8083,4.8083,4.8083,4.8083,4.8083,4.8083,4.8083,4.8083,4.8083,4.8083,4.8083,4.8083,4.8083,4.8083,4.8083,4.8083,4.8134,4.8156,4.8459,4.881,4.8909,4.9178,4.9571,4.962,4.9717,4.9892,5.0375,5.0947,5.1135,5.1182,5.1135,5.1229,5.1229,5.1229,5.1229,5.1229,5.1229,5.1229,5.1229,5.1229,5.1229,5.1229,5.1229,5.1229,5.1229,5.1229,5.1229,5.1229,5.1323,5.163,5.2008,5.261,5.3398,5.395,5.4669,5.553,5.5956,5.6342,5.6585,5.6761,5.681,5.681,5.681,5.681,5.681,5.681,5.681,5.681,5.681,5.681,5.681,5.681,5.681,5.681,5.681,5.681,5.681,5.681,5.681,5.681,5.681,5.681,5.681,5.681,5.681,5.681,5.681,5.681,5.681,4.9698,4.96,4.9453,4.9305,4.9157,4.9305,4.9453,4.9551,5.0279,5.0632,5.0822,5.1058,5.1135,5.0899,5.0172,4.9611,4.9424,4.876,4.8258,4.8134,4.8083,4.8083,4.8083,4.8083,4.8083,4.8083,4.8083,4.8083,4.8083,4.8083,4.8083,4.8083,4.8083,4.8083,4.8083,4.8083,4.8083,4.8083,4.8083,4.8083,4.8083,4.8083,4.8134,4.8134,4.8308,4.8358,4.8409,4.8409,4.876,4.9009,4.9029,4.9404,4.9892,5.068,5.0947,5.0805,5.0994,5.1135,5.1229,5.1229,5.1229,5.1229,5.1229,5.1229,5.1229,5.1229,5.1229,5.1229,5.1229,5.1229,5.1229,5.1229,5.1229,5.1229,5.1319,5.1712,5.2107,5.3032,5.3952,5.462,5.52,5.562,5.6047,5.6342,5.6585,5.6682,5.6761,5.681,5.681,5.681,5.681,5.681,5.681,5.681,5.681,5.681,5.681,5.681,5.681,5.681,5.681,5.681,5.681,5.681,5.681,5.681,5.681,5.681,5.681,5.681,5.681,5.681,5.6858,5.6858,5.681,4.9571,4.9326,4.9029,4.9009,4.9058,4.9108,4.9256,4.9551,4.9941,5.0103,5.0124,5.0436,5.0696,5.0674,4.989,4.9494,4.9337,4.881,4.8358,4.8185,4.8083,4.8083,4.8083,4.8083,4.8083,4.8083,4.8083,4.8083,4.8083,4.8083,4.8083,4.8083,4.8083,4.8083,4.8083,4.8083,4.8083,4.8083,4.8083,4.8083,4.8083,4.8083,4.8083,4.8083,4.8083,4.8083,4.8083,4.8083,4.8258,4.861,4.876,4.898,4.9424,5.0057,5.0471,5.0567,5.0757,5.0994,5.1088,5.1182,5.1182,5.1182,5.1182,5.1182,5.1229,5.1229,5.1229,5.1229,5.1229,5.1229,5.1229,5.1229,5.1229,5.1229,5.1708,5.2204,5.2852,5.3672,5.4371,5.493,5.525,5.53,5.5681,5.588,5.6176,5.6585,5.6664,5.681,5.681,5.681,5.681,5.681,5.681,5.681,5.681,5.681,5.681,5.681,5.681,5.681,5.681,5.681,5.681,5.681,5.681,5.681,5.681,5.681,5.681,5.681,5.681,5.681,5.6858,5.6906,5.6954,4.9355,4.8831,4.8581,4.876,4.9108,4.9009,4.9128,4.9473,4.9669,4.9524,4.926,4.9569,4.9899,4.9852,4.9278,4.9204,4.8862,4.8347,4.811,4.8156,4.8134,4.8083,4.8083,4.8083,4.8083,4.8083,4.8083,4.8083,4.8083,4.8083,4.8083,4.8083,4.8083,4.8083,4.8083,4.8083,4.8083,4.8083,4.8083,4.8083,4.8083,4.8083,4.8083,4.8083,4.8083,4.8083,4.8083,4.8083,4.8106,4.8308,4.861,4.876,4.9029,4.9473,4.9844,5.0086,5.0231,5.0519,5.0805,5.0947,5.0994,5.1088,5.1135,5.1135,5.1135,5.1088,5.1088,5.1182,5.1182,5.1259,5.1259,5.1259,5.1259,5.1588,5.2187,5.2785,5.3533,5.4251,5.473,5.5209,5.5179,5.5179,5.5381,5.5631,5.5929,5.6323,5.6567,5.6713,5.681,5.681,5.681,5.681,5.681,5.681,5.681,5.681,5.681,5.681,5.681,5.681,5.681,5.681,5.681,5.681,5.681,5.681,5.681,5.6858,5.6858,5.681,5.6906,5.6923,5.6971,5.7019,5.7115,4.9058,4.861,4.8481,4.8431,4.8409,4.871,4.8831,4.8831,4.9424,4.9533,4.9126,4.8712,4.8738,4.8909,4.7854,4.7817,4.8534,4.7893,4.7897,4.7999,4.7903,4.7981,4.8083,4.8083,4.8083,4.8083,4.8083,4.8083,4.8083,4.8083,4.8083,4.8083,4.8083,4.8083,4.8083,4.8083,4.8083,4.8083,4.8083,4.8083,4.8083,4.8083,4.8083,4.8083,4.8083,4.8083,4.8083,4.8083,4.8083,4.8258,4.8509,4.8559,4.871,4.898,4.9404,4.9551,4.9698,4.9941,5.0202,5.0471,5.0567,5.0614,5.0662,5.0757,5.0757,5.071,5.0805,5.1088,5.1165,5.1302,5.1302,5.1349,5.1409,5.2247,5.2965,5.3503,5.4162,5.461,5.5059,5.5209,5.5179,5.533,5.5601,5.58,5.6028,5.6372,5.6567,5.6664,5.6713,5.6761,5.6761,5.681,5.681,5.681,5.681,5.681,5.681,5.681,5.681,5.681,5.681,5.681,5.681,5.681,5.681,5.681,5.6858,5.6906,5.6875,5.6875,5.7019,5.7067,5.7132,5.718,5.7353]}]]